[[{"header":{"parameterUnit":"m.s-1","parameterCategory":1,"la1":30.6,"la2":28.766,"lo1":-90.7593,"lo2":-88.6598,"dy":0.0162,"dx":0.0183,"nx":116,"ny":114,"refTime":"2024-06-18T06:00:00:Z","depth":0,"parameterNumber":2,"parameterNumberName":"U-component_of_WINDS"},"data":[0.0,0.0,0.0,0.0,0.0,0.0,0.0,0.0,0.0,0.0,0.0,0.0,0.0,0.0,0.0,0.0,0.0,0.0,0.0,0.0,0.0,0.0,0.0,0.0,0.0,0.0,0.0,0.0,0.0,0.0,0.0,0.0,0.0,0.0,0.0,0.0,0.0,0.0,0.0,0.0,0.0,0.0,0.0,0.0,0.0,0.0,0.0,0.0,0.0,0.0,0.0,0.0,0.0,0.0,0.0,0.0,0.0,0.0,0.0,0.0,0.0,0.0,0.0,0.0,0.0,0.0,0.0,0.0,0.0,0.0,0.0,0.0,0.0,0.0,0.0,0.0,0.0,0.0,0.0,0.0,0.0,0.0,0.0,0.0,0.0,0.0,0.0,0.0,0.0,0.0,0.0,0.0,0.0,0.0,0.0,0.0,0.0,0.0,0.0,0.0,0.0,0.0,0.0,0.0,0.0,0.0,0.0,0.0,0.0,0.0,0.0,0.0,0.0,0.0,0.0,0.0,0.0,0.0,0.0,0.0,0.0,0.0,0.0,0.0,0.0,0.0,0.0,0.0,0.0,0.0,0.0,0.0,0.0,0.0,0.0,0.0,0.0,0.0,0.0,0.0,0.0,0.0,0.0,0.0,0.0,0.0,0.0,0.0,0.0,0.0,0.0,0.0,0.0,0.0,0.0,0.0,0.0,0.0,0.0,0.0,0.0,0.0,0.0,0.0,0.0,0.0,0.0,0.0,0.0,0.0,0.0,0.0,0.0,0.0,0.0,0.0,0.0,0.0,0.0,0.0,0.0,0.0,0.0,0.0,0.0,0.0,0.0,0.0,0.0,0.0,0.0,0.0,0.0,0.0,0.0,0.0,0.0,0.0,0.0,0.0,0.0,0.0,0.0,0.0,0.0,0.0,0.0,0.0,0.0,0.0,0.0,0.0,0.0,0.0,0.0,0.0,0.0,0.0,0.0,0.0,0.0,0.0,0.0,0.0,0.0,0.0,0.0,0.0,0.0,0.0,0.0,0.0,0.0,0.0,0.0,0.0,0.0,0.0,0.0,0.0,0.0,0.0,0.0,0.0,0.0,0.0,0.0,0.0,0.0,0.0,0.0,0.0,0.0,0.0,0.0,0.0,0.0,0.0,0.0,0.0,0.0,0.0,0.0,0.0,0.0,0.0,0.0,0.0,0.0,0.0,0.0,0.0,0.0,0.0,0.0,0.0,0.0,0.0,0.0,0.0,0.0,0.0,0.0,0.0,0.0,0.0,0.0,0.0,0.0,0.0,0.0,0.0,0.0,0.0,0.0,0.0,0.0,0.0,0.0,0.0,0.0,0.0,0.0,0.0,0.0,0.0,0.0,0.0,0.0,0.0,0.0,0.0,0.0,0.0,0.0,0.0,0.0,0.0,0.0,0.0,0.0,0.0,0.0,0.0,0.0,0.0,0.0,0.0,0.0,0.0,0.0,0.0,0.0,0.0,0.0,0.0,0.0,0.0,0.0,0.0,0.0,0.0,0.0,0.0,0.0,0.0,0.0,0.0,0.0,0.0,0.0,0.0,0.0,0.0,0.0,0.0,0.0,0.0,0.0,0.0,0.0,0.0,0.0,0.0,0.0,0.0,0.0,0.0,0.0,0.0,0.0,0.0,0.0,0.0,0.0,0.0,0.0,0.0,0.0,0.0,0.0,0.0,0.0,0.0,0.0,0.0,0.0,0.0,0.0,0.0,0.0,0.0,0.0,0.0,0.0,0.0,0.0,0.0,0.0,0.0,0.0,0.0,0.0,0.0,0.0,0.0,0.0,0.0,0.0,0.0,0.0,0.0,0.0,0.0,0.0,0.0,0.0,0.0,0.0,0.0,0.0,0.0,0.0,0.0,0.0,0.0,0.0,0.0,0.0,0.0,0.0,0.0,0.0,0.0,0.0,0.0,0.0,0.0,0.0,0.0,0.0,0.0,0.0,0.0,0.0,0.0,0.0,0.0,0.0,0.0,0.0,0.0,0.0,0.0,0.0,0.0,0.0,0.0,0.0,0.0,0.0,0.0,0.0,0.0,0.0,0.0,0.0,0.0,0.0,0.0,0.0,0.0,0.0,0.0,0.0,0.0,0.0,0.0,0.0,0.0,0.0,0.0,0.0,0.0,0.0,0.0,0.0,0.0,0.0,0.0,0.0,0.0,0.0,0.0,0.0,0.0,0.0,0.0,0.0,0.0,0.0,0.0,0.0,0.0,0.0,0.0,0.0,0.0,0.0,0.0,0.0,0.0,0.0,0.0,0.0,0.0,0.0,0.0,0.0,0.0,0.0,0.0,0.0,0.0,0.0,0.0,0.0,0.0,0.0,0.0,0.0,0.0,0.0,0.0,0.0,0.0,0.0,0.0,0.0,0.0,0.0,0.0,0.0,0.0,0.0,0.0,0.0,0.0,0.0,0.0,0.0,0.0,0.0,0.0,0.0,0.0,0.0,0.0,0.0,0.0,0.0,0.0,0.0,0.0,0.0,0.0,0.0,0.0,0.0,0.0,0.0,0.0,0.0,0.0,0.0,0.0,0.0,0.0,0.0,0.0,0.0,0.0,0.0,0.0,0.0,0.0,0.0,0.0,0.0,0.0,0.0,0.0,0.0,0.0,0.0,0.0,0.0,0.0,0.0,0.0,0.0,0.0,0.0,0.0,0.0,0.0,0.0,0.0,0.0,0.0,0.0,0.0,0.0,0.0,0.0,0.0,0.0,0.0,0.0,0.0,0.0,0.0,0.0,0.0,0.0,0.0,0.0,0.0,0.0,0.0,0.0,0.0,0.0,0.0,0.0,0.0,0.0,0.0,0.0,0.0,0.0,0.0,0.0,0.0,0.0,0.0,0.0,0.0,0.0,0.0,0.0,0.0,0.0,0.0,0.0,0.0,0.0,0.0,0.0,0.0,0.0,0.0,0.0,0.0,0.0,0.0,0.0,0.0,0.0,0.0,0.0,0.0,0.0,0.0,0.0,0.0,0.0,0.0,0.0,0.0,0.0,0.0,0.0,0.0,0.0,0.0,0.0,0.0,0.0,0.0,0.0,0.0,0.0,0.0,0.0,0.0,0.0,0.0,0.0,0.0,0.0,0.0,0.0,0.0,0.0,0.0,0.0,0.0,0.0,0.0,0.0,0.0,0.0,0.0,0.0,0.0,0.0,0.0,0.0,0.0,0.0,0.0,0.0,0.0,0.0,0.0,0.0,0.0,0.0,0.0,0.0,0.0,0.0,0.0,0.0,0.0,0.0,0.0,0.0,0.0,0.0,0.0,0.0,0.0,0.0,0.0,0.0,0.0,0.0,0.0,0.0,0.0,0.0,0.0,0.0,0.0,0.0,0.0,0.0,0.0,0.0,0.0,0.0,0.0,0.0,0.0,0.0,0.0,0.0,0.0,0.0,0.0,0.0,0.0,0.0,0.0,0.0,0.0,0.0,0.0,0.0,0.0,0.0,0.0,0.0,0.0,0.0,0.0,0.0,0.0,0.0,0.0,0.0,0.0,0.0,0.0,0.0,0.0,0.0,0.0,0.0,0.0,0.0,0.0,0.0,0.0,0.0,0.0,0.0,0.0,0.0,0.0,0.0,0.0,0.0,0.0,0.0,0.0,0.0,0.0,0.0,0.0,0.0,0.0,0.0,0.0,0.0,0.0,0.0,0.0,0.0,0.0,0.0,0.0,0.0,0.0,0.0,0.0,0.0,0.0,0.0,0.0,0.0,0.0,0.0,0.0,0.0,0.0,0.0,0.0,0.0,0.0,0.0,0.0,0.0,0.0,0.0,0.0,0.0,0.0,0.0,0.0,0.0,0.0,0.0,0.0,0.0,0.0,0.0,0.0,0.0,0.0,0.0,0.0,0.0,0.0,0.0,0.0,0.0,0.0,0.0,0.0,0.0,0.0,0.0,0.0,0.0,0.0,0.0,0.0,0.0,0.0,0.0,0.0,0.0,0.0,0.0,0.0,0.0,0.0,0.0,0.0,0.0,0.0,0.0,0.0,0.0,0.0,0.0,0.0,0.0,0.0,0.0,0.0,0.0,0.0,0.0,0.0,0.0,0.0,0.0,0.0,0.0,0.0,0.0,0.0,0.0,0.0,0.0,0.0,0.0,0.0,0.0,0.0,0.0,0.0,0.0,0.0,0.0,0.0,0.0,0.0,0.0,0.0,0.0,0.0,0.0,0.0,0.0,0.0,0.0,0.0,0.0,0.0,0.0,0.0,0.0,0.0,0.0,0.0,0.0,0.0,0.0,0.0,0.0,0.0,0.0,0.0,0.0,0.0,0.0,0.0,0.0,0.0,0.0,0.0,0.0,0.0,0.0,0.0,0.0,0.0,0.0,0.0,0.0,0.0,0.0,0.0,0.0,0.0,0.0,0.0,0.0,0.0,0.0,0.0,0.0,0.0,0.0,0.0,0.0,0.0,0.0,0.0,0.0,0.0,0.0,0.0,0.0,0.0,0.0,0.0,0.0,0.0,0.0,0.0,0.0,0.0,0.0,0.0,0.0,0.0,0.0,0.0,0.0,0.0,0.0,0.0,0.0,0.0,0.0,0.0,0.0,0.0,0.0,0.0,0.0,0.0,0.0,0.0,0.0,0.0,0.0,0.0,0.0,0.0,0.0,0.0,0.0,0.0,0.0,0.0,0.0,0.0,0.0,0.0,0.0,0.0,0.0,0.0,0.0,0.0,0.0,0.0,0.0,0.0,0.0,0.0,0.0,0.0,0.0,0.0,0.0,0.0,0.0,0.0,0.0,0.0,0.0,0.0,0.0,0.0,0.0,0.0,0.0,0.0,0.0,0.0,0.0,0.0,0.0,0.0,0.0,0.0,0.0,0.0,0.0,0.0,0.0,0.0,0.0,0.0,0.0,0.0,0.0,0.0,0.0,0.0,0.0,0.0,0.0,0.0,0.0,0.0,0.0,0.0,0.0,0.0,0.0,0.0,0.0,0.0,0.0,0.0,0.0,0.0,0.0,0.0,0.0,0.0,0.0,0.0,0.0,0.0,0.0,0.0,0.0,0.0,0.0,0.0,0.0,0.0,0.0,0.0,0.0,0.0,0.0,0.0,0.0,0.0,0.0,0.0,0.0,0.0,0.0,0.0,0.0,0.0,0.0,0.0,0.0,0.0,0.0,0.0,0.0,0.0,0.0,0.0,0.0,0.0,0.0,0.0,0.0,0.0,0.0,0.0,0.0,0.0,0.0,0.0,0.0,0.0,0.0,0.0,0.0,0.0,0.0,0.0,0.0,0.0,0.0,0.0,0.0,0.0,0.0,0.0,0.0,0.0,0.0,0.0,0.0,0.0,0.0,0.0,0.0,0.0,0.0,0.0,0.0,0.0,0.0,0.0,0.0,0.0,0.0,0.0,0.0,0.0,0.0,0.0,0.0,0.0,0.0,0.0,0.0,0.0,0.0,0.0,0.0,0.0,0.0,0.0,0.0,0.0,0.0,0.0,0.0,0.0,0.0,0.0,0.0,0.0,0.0,0.0,0.0,0.0,0.0,0.0,0.0,0.0,0.0,0.0,0.0,0.0,0.0,0.0,0.0,0.0,0.0,0.0,0.0,0.0,0.0,0.0,0.0,0.0,0.0,0.0,0.0,0.0,0.0,0.0,0.0,0.0,0.0,0.0,0.0,0.0,0.0,0.0,0.0,0.0,0.0,0.0,0.0,0.0,0.0,0.0,0.0,0.0,0.0,0.0,0.0,0.0,0.0,0.0,0.0,0.0,0.0,0.0,0.0,0.0,0.0,0.0,0.0,0.0,0.0,0.0,0.0,0.0,0.0,0.0,0.0,0.0,0.0,0.0,0.0,0.0,0.0,0.0,0.0,0.0,0.0,0.0,0.0,0.0,0.0,0.0,0.0,0.0,0.0,0.0,0.0,0.0,0.0,0.0,0.0,0.0,0.0,0.0,0.0,0.0,0.0,0.0,0.0,0.0,0.0,0.0,0.0,0.0,0.0,0.0,0.0,0.0,0.0,0.0,0.0,0.0,0.0,0.0,0.0,0.0,0.0,0.0,0.0,0.0,0.0,0.0,0.0,0.0,0.0,0.0,0.0,0.0,0.0,0.0,0.0,0.0,0.0,0.0,0.8823,0.9029,0.0,0.0,0.0,0.0,0.0,0.0,0.0,0.0,0.0,0.0,0.0,0.0,0.0,0.0,0.0,0.0,0.0,0.0,0.0,0.0,0.0,0.0,0.0,0.6921,0.6979,0.6908,0.697,0.6979,0.6908,0.6937,0.6937,0.6908,0.6908,0.6908,0.6908,0.6908,0.703,0.7288,0.703,0.6908,0.6908,0.6908,0.6891,0.6871,0.0,0.0,0.0,0.0,0.0,0.0,0.0,0.0,0.0,0.0,0.0,0.0,0.0,0.0,0.0,0.0,0.0,0.0,0.0,0.0,0.0,0.0,0.0,0.0,0.0,0.0,0.0,0.0,0.0,0.0,0.0,0.0,0.0,0.0,0.0,0.0,0.0,0.0,0.0,0.0,0.0,0.0,0.0,0.0,0.0,0.0,0.0,0.0,0.0,0.0,0.0,0.0,0.0,0.0,0.0,0.0,0.0,0.0,0.0,0.0,0.0,0.0,0.0,0.0,0.0,0.0,0.0,0.0,0.0,0.0,0.941,0.9822,0.0,0.0,0.0,0.0,0.0,0.0,0.0,0.0,0.0,0.0,0.0,0.0,0.0,0.0,0.0,0.0,0.0,0.0,0.0,0.0,0.0,0.6041,0.6713,0.6811,0.6853,0.6919,0.6929,0.6965,0.7043,0.6952,0.6939,0.7043,0.7043,0.7043,0.7043,0.7105,0.7322,0.7696,0.7262,0.7043,0.7043,0.7148,0.7166,0.7127,0.7434,0.0,0.0,0.0,0.0,0.0,0.0,0.0,0.0,0.0,0.0,0.0,0.0,0.0,0.0,0.0,0.0,0.0,0.0,0.0,0.0,0.0,0.0,0.0,0.0,0.0,0.0,0.0,0.0,0.0,0.0,0.0,0.0,0.0,0.0,0.0,0.0,0.0,0.0,0.0,0.0,0.0,0.0,0.0,0.0,0.0,0.0,0.0,0.0,0.0,0.0,0.0,0.0,0.0,0.0,0.0,0.0,0.0,0.0,0.0,0.0,0.0,0.0,0.0,1.0787,1.0393,1.0519,0.9121,0.8816,0.9393,0.9988,1.0358,1.0538,1.0019,0.0,0.0,0.0,0.0,0.0,0.0,0.0,0.0,0.0,0.0,0.0,0.0,0.0,0.0,0.0,0.0,0.0,0.0,0.0,0.5878,0.6322,0.6475,0.6582,0.6651,0.6651,0.6923,0.7552,0.7166,0.7114,0.7575,0.7588,0.7588,0.7588,0.7887,0.7915,0.7696,0.7627,0.7588,0.7601,0.8122,0.837,0.8321,0.741,0.7515,0.8295,0.0,0.0,0.0,0.0,0.0,0.0,0.0,0.0,0.0,0.0,0.0,0.0,0.0,0.0,0.0,0.0,0.0,0.0,0.0,0.0,0.0,0.0,0.0,0.0,0.0,0.0,0.0,0.0,0.0,0.0,0.0,0.0,0.0,0.0,0.0,0.0,0.0,0.0,0.0,0.0,0.0,0.8452,0.919,0.0,0.0,0.0,0.0,0.0,0.0,0.0,0.0,0.0,0.0,0.0,0.0,0.0,1.1229,1.1095,1.087,1.0774,1.0785,1.08,1.0797,1.0739,1.0528,1.0409,1.0406,1.0384,0.0,0.9235,0.9107,0.0,0.0,0.0,0.0,0.0,0.0,0.0,0.0,0.0,0.0,0.0,0.0,0.0,0.0,0.0,0.0,0.0,0.0,0.0,0.0,0.0,0.6191,0.6207,0.6625,0.6315,0.6533,0.7578,0.7379,0.7526,0.8177,0.8213,0.8213,0.8213,0.8389,0.841,0.8263,0.8223,0.8213,0.8213,0.8474,0.8605,0.8578,0.808,0.7949,0.8073,0.7775,0.0,0.0,0.0,0.0,0.0,0.0,0.0,0.0,0.0,0.0,0.0,0.0,0.0,0.0,0.0,0.0,0.0,0.0,0.0,0.0,0.0,0.0,0.0,0.0,0.0,0.0,0.0,0.0,0.0,0.0,0.0,0.0,0.0,0.0,0.0,0.0,0.0,0.0,0.0,0.9268,0.979,1.1052,1.0836,1.0831,0.0,0.0,0.0,0.0,0.0,0.0,0.0,0.0,0.0,1.2339,1.2491,1.2467,1.2279,1.213,1.2244,1.2605,1.1821,1.1348,1.1121,1.0538,1.0146,0.9868,0.9731,0.9444,0.9077,0.944,0.9775,1.0098,0.0,0.0,0.0,0.0,1.0939,1.1132,0.0,0.0,0.0,0.0,0.0,0.0,0.0,0.0,0.0,0.0,0.0,0.0,0.6223,0.5868,0.5846,0.6398,0.5955,0.6232,0.7604,0.7455,0.7733,0.8665,0.8781,0.8837,0.8837,0.8877,0.8801,0.8571,0.8748,0.8837,0.8837,0.897,0.9024,0.9024,0.9024,0.8744,0.8255,0.8141,0.7824,0.7337,0.0,0.0,0.0,0.0,0.0,0.0,0.0,0.0,0.0,0.0,0.0,0.0,0.0,0.0,0.0,0.0,0.0,0.0,0.0,0.0,0.0,0.0,0.0,0.0,0.0,0.0,0.0,0.0,0.0,0.0,0.0,0.0,0.0,0.0,0.0,0.0,0.0,1.0251,1.0907,1.2403,1.2307,1.2266,0.0,0.0,0.0,0.0,0.0,0.0,1.3473,1.344,1.3301,1.3119,1.3488,1.3551,1.3307,1.3084,1.3214,1.3694,1.2552,1.187,1.1589,1.0705,1.016,0.9842,0.9575,0.946,0.9487,0.9846,1.0166,1.0378,1.0229,1.0186,1.0279,1.0693,1.0901,1.1002,0.0,0.0,0.0,0.0,0.0,0.0,0.0,0.0,0.0,0.0,0.0,0.5407,0.5536,0.547,0.5509,0.5731,0.5602,0.6219,0.7873,0.7266,0.7477,0.8915,0.9284,0.9459,0.9459,0.9459,0.9061,0.8218,0.905,0.9459,0.9472,0.9973,1.0221,1.0221,1.0221,1.0058,0.9692,0.8175,0.7997,0.8608,0.7449,0.0,0.0,0.0,0.0,0.0,0.0,0.0,0.0,0.0,0.0,0.0,0.0,0.0,0.0,0.0,0.0,0.0,0.0,0.0,0.0,0.0,0.0,0.0,0.0,0.0,0.0,0.0,0.0,0.0,0.0,0.0,0.0,0.0,0.0,0.0,0.0,0.0,0.0,1.2387,1.2646,0.0,0.0,0.0,0.0,1.4023,1.3454,1.3671,1.4917,1.4111,1.3873,1.4476,1.3922,1.3593,1.3573,1.2751,1.2362,1.2393,1.2318,1.2276,1.2233,1.1681,1.1407,1.1353,1.07,1.0431,1.04,0.9919,0.9886,1.0134,1.0249,1.0641,1.1101,1.0826,1.0907,1.1153,0.0,0.0,0.0,0.5661,0.5687,0.5769,0.595,0.5993,0.6016,0.6077,0.5621,0.5433,0.5786,0.534,0.53,0.6022,0.5688,0.6043,0.7449,0.7284,0.7746,0.913,0.9426,0.9703,0.9999,0.9249,0.9064,0.9485,0.9835,1.0207,1.0611,1.1147,1.1381,1.1381,1.1381,1.1048,1.0397,0.9134,0.8523,0.8344,0.7467,0.7333,0.0,0.0,0.0,0.0,0.0,0.0,0.0,0.0,0.0,0.0,0.0,0.0,0.0,0.0,0.0,0.0,0.0,0.0,0.0,0.0,0.0,0.0,0.0,0.0,0.0,0.0,0.0,0.0,0.0,0.0,0.0,0.0,0.0,0.0,0.0,0.0,0.0,1.4703,1.3786,0.0,1.4151,1.3672,1.3714,1.4728,1.4095,1.444,1.624,1.5379,1.5108,1.5734,1.4901,1.4454,1.4503,1.3551,1.3092,1.3126,1.2443,1.1959,1.1651,1.1468,1.118,1.0841,1.0597,1.0327,1.0033,0.9843,0.9963,1.0301,1.0361,1.0489,1.0673,1.0548,1.0569,1.0716,0.5358,0.5358,0.0,0.554,0.5586,0.5631,0.5752,0.5763,0.5736,0.5675,0.5332,0.5179,0.5399,0.507,0.5108,0.5777,0.5456,0.5861,0.7334,0.7348,0.7985,0.9506,0.9726,0.9738,0.9618,0.92,0.9309,1.0008,1.0211,1.0606,1.1123,1.1607,1.1772,1.164,1.1846,1.1553,1.0885,1.0179,0.9305,0.8345,0.7693,0.7796,0.8311,0.0,0.0,0.0,0.0,0.0,0.0,0.0,0.0,0.0,0.0,0.0,0.0,0.0,0.0,0.0,0.0,0.0,0.0,0.0,0.0,0.0,0.0,0.0,0.0,0.0,0.0,0.0,0.0,0.0,0.0,0.0,0.0,0.0,0.0,1.2673,1.3224,1.5164,1.4378,1.4022,1.4902,1.4547,1.4724,1.5737,1.514,1.538,1.6892,1.6092,1.5802,1.6323,1.5605,1.5212,1.5259,1.4239,1.3731,1.3759,1.2808,1.2119,1.1636,1.1453,1.1086,1.0592,1.0405,1.0158,0.9882,0.9882,1.0026,1.0229,1.0019,0.9907,0.9859,0.9859,0.9859,0.9922,0.5088,0.5098,0.5224,0.5617,0.5522,0.5512,0.5837,0.5558,0.5278,0.5215,0.4907,0.4599,0.4359,0.4674,0.4907,0.4929,0.4929,0.5706,0.7548,0.7433,0.8125,0.9995,1.0135,0.9597,0.8405,0.9378,0.9827,0.9653,1.0192,1.0629,1.0959,1.136,1.1342,1.0998,1.1583,1.1613,1.1234,1.1234,1.0308,0.8827,0.8184,0.821,0.8655,0.0,0.0,0.0,0.0,0.0,0.0,0.0,0.0,0.0,0.0,0.0,0.0,0.0,0.0,0.0,0.0,0.0,0.0,0.0,0.0,0.0,0.0,0.0,0.0,0.0,0.0,0.0,0.0,0.0,0.0,0.0,0.0,0.0,1.2623,1.2977,1.3275,1.3635,1.4329,1.4704,1.4479,1.5973,1.697,1.6984,1.6631,1.6553,1.6915,1.617,1.5889,1.6224,1.5954,1.579,1.5768,1.4642,1.4073,1.4048,1.3341,1.2768,1.2219,1.1699,1.1194,1.0721,1.0193,0.9941,0.9913,0.9913,0.9884,0.9765,0.9227,0.8937,0.8805,0.8778,0.8771,0.8844,0.4882,0.5,0.5127,0.5253,0.534,0.5427,0.5522,0.5407,0.528,0.5205,0.4914,0.4796,0.5065,0.4985,0.5052,0.544,0.5482,0.5928,0.6974,0.7068,0.7786,0.9386,0.9279,0.9429,0.9965,0.9982,1.0254,1.0819,1.1511,1.1902,1.2003,1.2498,1.2668,1.2568,1.2735,1.2538,1.2051,1.1818,1.1264,1.0437,0.9243,0.8836,0.8919,0.0,0.0,0.0,0.0,0.0,0.0,0.0,0.0,0.0,0.0,0.0,0.0,0.0,0.0,0.0,0.0,0.0,0.0,0.0,0.0,0.0,0.0,0.0,0.0,0.0,0.0,0.0,0.0,0.0,0.0,0.0,1.2257,1.2679,1.3599,1.3871,1.4379,1.5512,1.5005,1.4867,1.564,1.5708,1.6,1.6727,1.6689,1.6974,1.7795,1.7223,1.6891,1.6993,1.6072,1.5415,1.5083,1.3899,1.3119,1.2771,1.187,1.1367,1.1189,1.0651,1.0071,0.9488,0.935,0.8791,0.8052,0.8052,0.7254,0.6197,0.823,0.8981,0.8868,0.8331,0.81,0.8001,0.4674,0.4764,0.4903,0.5069,0.5176,0.5253,0.5302,0.5263,0.5135,0.493,0.4886,0.491,0.5018,0.5002,0.5117,0.5422,0.5442,0.5929,0.7058,0.7763,0.8308,0.873,0.9153,0.9575,0.9958,1.0286,1.079,1.1427,1.1854,1.2139,1.2273,1.2773,1.289,1.275,1.2978,1.2724,1.2142,1.193,1.1483,1.0821,0.9921,0.973,0.9893,0.904,0.9214,0.9791,0.8775,0.8891,0.9452,0.9108,0.0,0.0,0.0,0.0,0.0,0.0,0.0,0.0,0.0,0.0,0.0,0.0,0.0,0.0,0.0,0.0,0.0,0.0,0.0,0.0,0.0,0.0,0.0,0.0,1.2883,1.3425,1.4199,1.4373,1.4686,1.5356,1.5251,1.5486,1.6376,1.6235,1.6428,1.7279,1.7149,1.7123,1.7347,1.7025,1.6673,1.6308,1.5454,1.4864,1.4595,1.3249,1.245,1.2146,1.0397,0.9466,0.9197,0.8007,0.7117,0.6581,0.6581,0.6186,0.5577,0.5577,0.4621,0.3411,0.0,0.0,0.0,0.0,0.6968,0.6338,0.4465,0.4476,0.4616,0.5001,0.503,0.5059,0.5185,0.5146,0.4981,0.4629,0.4884,0.4971,0.4619,0.4884,0.5098,0.5098,0.5146,0.5869,0.7486,0.8811,0.9118,0.8203,0.9399,0.9805,0.9223,1.0441,1.1259,1.1582,1.1582,1.1745,1.2041,1.2395,1.2377,1.2048,1.2532,1.2372,1.1774,1.1774,1.1322,1.0549,1.037,1.0591,1.0878,0.9753,0.9748,1.0142,0.8549,0.8617,0.9377,0.867,0.0,0.0,0.0,0.0,0.0,0.0,0.0,0.0,0.0,0.0,0.0,0.0,0.0,0.0,0.0,0.0,0.0,0.0,0.0,0.0,0.0,0.0,0.0,0.0,1.3428,1.401,1.4522,1.4616,1.4578,1.4384,1.5357,1.6254,1.6774,1.7041,1.7382,1.797,1.7534,1.6901,1.6103,1.6043,0.0,0.0,0.0,1.3987,1.3727,1.2269,1.1418,1.1123,0.8415,0.694,0.645,0.4282,0.3057,0.2651,0.2584,0.2517,0.2419,0.2215,0.1323,0.0286,0.2831,0.3774,0.3868,0.5303,0.4994,0.3884,0.4258,0.4384,0.4575,0.4813,0.4981,0.5127,0.5262,0.5224,0.5146,0.5077,0.5088,0.5098,0.5068,0.5088,0.5098,0.5098,0.5449,0.6185,0.7436,0.8125,0.849,0.8514,0.9029,0.9478,0.9827,1.0608,1.1182,1.1519,1.1519,1.1557,1.1627,1.17,1.17,1.1627,1.1708,1.1689,1.1553,1.1553,1.1369,1.1071,1.1034,1.0534,0.9797,0.9563,0.9489,0.9423,0.8662,0.8833,0.9397,0.9249,0.9487,0.9932,1.0396,1.0148,0.0,0.0,0.0,0.0,0.0,0.0,0.0,0.0,0.0,0.0,0.0,0.0,0.0,0.0,0.0,0.0,0.0,0.0,0.0,1.4054,1.4135,1.4134,1.4396,1.477,1.5242,1.588,1.616,1.6527,1.7079,1.6548,1.6346,1.6794,1.6077,1.5491,1.5163,1.5041,1.4651,1.3955,1.3286,1.2008,1.0114,0.9272,0.7918,0.6073,0.3614,0.0,0.2983,0.0633,-0.054,-0.0708,-0.1183,-0.1727,-0.2376,-0.3753,-0.5624,-0.7176,-0.2312,-0.0763,-0.1084,0.0063,0.0312,0.0062,0.4176,0.4281,0.4413,0.4624,0.4714,0.4844,0.5156,0.5342,0.5489,0.5582,0.5771,0.5821,0.5622,0.5718,0.5715,0.5519,0.6203,0.6835,0.7273,0.7869,0.8187,0.8148,0.8915,0.9483,0.9792,1.0753,1.1325,1.1497,1.1497,1.1497,1.1497,1.1497,1.1497,1.1497,1.1497,1.1386,1.1199,1.1199,1.1029,1.0755,1.0755,1.0414,0.9908,1.0089,1.0227,1.0278,0.9746,0.96,0.9646,0.9646,0.9444,0.929,0.9797,0.9865,0.9891,0.0,0.0,0.0,0.0,0.0,0.0,0.0,0.0,0.0,0.0,0.0,0.0,0.0,0.0,1.321,1.4506,0.0,1.3878,1.4637,1.4683,1.4627,1.4736,1.482,1.499,1.5406,1.5477,1.5602,1.5879,1.5404,1.5173,1.5385,1.4856,1.4164,1.3315,1.277,1.1997,1.0891,0.9003,0.7446,0.6249,0.4446,0.2959,0.1818,-0.0791,-0.1867,-0.162,-0.3914,-0.4994,-0.5123,-0.5428,-0.6104,-0.7173,-0.9396,-1.1022,-1.1955,-0.9826,-0.7537,-0.5345,-0.4595,-0.41,-0.3948,0.4156,0.4166,0.4219,0.4465,0.4455,0.4554,0.4961,0.5414,0.5758,0.5923,0.6382,0.6557,0.6181,0.635,0.64,0.6153,0.6818,0.7217,0.7125,0.7699,0.7944,0.7753,0.8858,0.9513,0.9606,1.069,1.1274,1.1274,1.1274,1.1274,1.1274,1.1274,1.1274,1.1274,1.1274,1.1086,1.0783,1.0783,1.0602,1.0303,1.0303,1.0341,1.0456,1.0721,1.0966,1.1104,1.0713,1.0302,0.9918,0.9898,0.9331,0.8722,0.9157,0.9519,0.9867,1.0432,1.1163,0.0,0.0,0.0,0.0,0.0,0.0,0.0,0.0,1.272,1.2801,1.4426,1.414,1.3805,1.451,1.4598,1.4596,1.4663,1.4776,1.486,1.4858,1.4462,1.4123,1.3961,1.4261,1.4413,1.4374,1.3751,1.3391,1.3508,1.2821,1.171,1.0144,0.9389,0.8246,0.6603,0.4144,0.2555,0.1977,-0.0381,-0.1872,-0.2476,-0.5325,-0.6608,-0.6554,-0.8879,-0.9906,-0.9899,-1.0048,-1.0843,-1.2231,-1.4458,-1.5516,-1.581,-1.683,-1.4429,-1.0271,-0.9298,-0.8622,-0.8343,0.4156,0.4055,0.4048,0.4426,0.4495,0.4555,0.4716,0.529,0.5707,0.5729,0.6291,0.6679,0.6628,0.6551,0.6622,0.6937,0.6593,0.659,0.7158,0.7375,0.7602,0.7868,0.8641,0.9232,0.9587,1.0143,1.0428,1.0428,1.0428,1.0428,1.0428,1.0428,1.0428,1.0428,1.0428,1.0419,1.0361,1.0361,1.0341,1.0303,1.0303,1.0505,1.084,1.0883,1.0612,1.0267,1.0453,1.029,0.997,0.985,0.9841,0.9907,0.997,0.9653,0.9589,1.1165,1.1518,1.1702,1.3224,1.386,1.4023,1.3778,1.3579,1.362,0.0,1.3663,1.3369,1.4989,1.4771,1.4318,1.4424,1.4427,1.4304,1.3982,1.3946,1.3961,1.3953,1.3256,1.2561,1.2065,1.3121,1.3813,1.357,1.1302,1.0099,1.0714,0.8404,0.6233,0.46,0.4396,0.3421,0.1395,0.1018,-0.0446,-0.3068,-0.3423,-0.4916,-0.7609,-1.0547,-1.1654,-1.1162,-1.401,-1.5013,-1.4513,-1.5223,-1.6458,-1.799,-1.8401,-1.9146,-2.0029,-2.0143,-1.9263,-1.7539,-1.4771,-1.3698,-1.3622,0.4156,0.398,0.39,0.426,0.4321,0.4449,0.4818,0.5343,0.5805,0.6129,0.682,0.711,0.6635,0.6499,0.6679,0.729,0.7094,0.7079,0.7362,0.7418,0.753,0.7661,0.8225,0.8708,0.9069,0.9493,0.9716,0.9716,0.9716,0.9716,0.9716,0.9716,0.9716,0.9725,1.001,1.0137,1.0117,1.004,1.0011,0.9991,0.9666,0.9646,0.9814,1.005,0.9857,0.9655,1.113,1.1399,0.0,1.0976,1.081,1.0559,1.0212,1.025,1.0599,1.1535,1.2275,1.3006,1.3833,1.3905,1.3647,1.3341,1.3204,1.3238,1.3612,1.3723,1.3838,1.4117,1.4387,1.4492,1.4184,1.4134,1.4086,1.3837,1.3378,1.2602,1.1369,1.0425,0.9344,0.7862,0.7581,0.8235,1.008,0.7455,0.5734,0.6028,0.4055,0.2365,0.128,0.0127,-0.1052,-0.2311,-0.4847,-0.6795,-0.8021,-0.9862,-1.1383,-1.2663,-1.428,-1.4917,-1.4686,-1.5922,-1.6542,-1.6718,-1.7736,-1.8927,-2.0191,-2.0897,-2.1448,-2.186,-2.1955,-2.151,-2.0627,-1.8783,-1.7333,-1.6392,0.4094,0.3897,0.3793,0.4073,0.4115,0.4266,0.471,0.5305,0.5834,0.6233,0.7022,0.7338,0.6738,0.6542,0.6699,0.7312,0.7317,0.7269,0.723,0.7342,0.7419,0.7419,0.792,0.8362,0.8724,0.9105,0.9299,0.9299,0.9299,0.9299,0.9299,0.9299,0.9299,0.9299,0.9567,0.9715,0.9794,0.9608,0.9579,0.9628,0.9208,0.9056,0.9079,0.9236,0.9131,0.9149,1.1099,1.1509,1.1158,1.1235,1.1139,1.0871,1.0239,1.0704,1.1539,1.1921,1.3152,1.4354,1.4142,1.3911,1.3539,1.2882,1.2772,1.2852,1.2958,1.3457,1.3813,1.3493,1.4075,1.4433,1.3751,1.3651,1.3367,1.2373,1.1667,1.0384,0.7911,0.7012,0.5865,0.3821,0.2435,0.2508,0.4787,0.2873,0.1454,0.1342,-0.0346,-0.1981,-0.3312,-0.4741,-0.6021,-0.7216,-1.034,-1.2128,-1.2308,-1.4561,-1.5778,-1.5997,-1.6898,-1.7429,-1.7606,-1.8036,-1.8503,-1.9001,-1.9761,-2.0504,-2.1295,-2.2146,-2.2526,-2.2535,-2.2626,-2.2443,-2.2011,-2.1323,-2.0231,-1.9172,0.3911,0.3796,0.3751,0.389,0.3911,0.398,0.4192,0.5062,0.5709,0.5718,0.6592,0.7181,0.7092,0.6798,0.6708,0.6981,0.6835,0.6665,0.6547,0.6956,0.7214,0.7214,0.7843,0.8397,0.8781,0.9115,0.9299,0.9299,0.9299,0.9299,0.9299,0.9299,0.9299,0.9279,0.897,0.903,0.9299,0.8961,0.903,0.9299,0.9237,0.9197,0.9133,0.8701,0.8558,0.8746,0.9725,0.9815,0.9528,0.9852,1.0385,1.0786,1.0122,1.0829,1.1978,1.2443,1.4031,1.5378,1.4149,1.4277,1.4392,1.2889,1.2696,1.2899,1.2904,1.2914,1.3107,1.3666,1.4172,1.419,1.3138,1.2924,1.1895,0.8706,0.8145,0.6983,0.3647,0.3168,0.2499,0.0743,-0.0884,-0.2046,-0.2523,-0.2356,-0.2398,-0.2785,-0.4861,-0.7445,-1.0509,-1.073,-1.1865,-1.4301,-1.4532,-1.4907,-1.5558,-1.5654,-1.6036,-1.669,-1.8223,-1.9257,-1.9942,-2.1458,-2.2135,-2.2133,-2.1713,-2.1626,-2.1793,-2.1959,-2.2063,-2.2128,-2.2128,-2.2105,-2.2105,-2.2058,-2.2337,-2.2725,0.389,0.3643,0.3563,0.3959,0.3926,0.4018,0.4583,0.5068,0.5467,0.5734,0.6259,0.0,0.0,0.0,0.0,0.0,0.6638,0.6647,0.7002,0.6637,0.6658,0.7248,0.7108,0.7353,0.8114,0.8033,0.8091,0.8378,0.8144,0.8049,0.8049,0.8049,0.8049,0.8041,0.8203,0.8338,0.8419,0.8215,0.8091,0.7996,0.7475,0.7099,0.6833,0.6988,0.6914,0.6906,0.0,0.9245,1.0091,1.0681,1.1337,1.1789,1.1154,1.1551,1.2342,1.286,1.353,1.3915,1.2986,1.2611,1.241,1.215,1.2165,1.2347,1.2745,1.3423,1.3561,1.2172,1.3283,1.3478,1.0075,1.0142,0.9646,0.6352,0.502,0.3591,0.1221,-0.0499,-0.1984,-0.3221,-0.558,-0.709,-0.7016,-0.6224,-0.6171,-0.728,-0.8932,-1.0566,-1.2179,-1.3058,-1.3888,-1.4733,-1.6297,-1.7203,-1.7418,-1.8097,-1.8522,-1.877,-2.0086,-2.1041,-2.1621,-2.2536,-2.2912,-2.2825,-2.2655,-2.2587,-2.2555,-2.2768,-2.2881,-2.2912,-2.3031,-2.3098,-2.3143,-2.345,-2.3486,-2.3268,0.3876,0.3639,0.3574,0.3994,0.396,0.0,0.0,0.0,0.0,0.0,0.0,0.0,0.0,0.0,0.0,0.0,0.0,0.6403,0.6766,0.6392,0.6345,0.6777,0.6631,0.6819,0.7432,0.7272,0.7324,0.7577,0.7258,0.7158,0.725,0.725,0.7224,0.7154,0.7301,0.7321,0.7259,0.6997,0.6836,0.6753,0.6247,0.5868,0.5613,0.5836,0.5805,0.0,0.6955,0.8046,0.9114,1.0187,1.1015,1.1505,1.0827,1.1194,1.2006,1.2701,1.2934,1.2815,1.2097,1.1749,1.1551,1.1573,1.1572,1.1737,1.2309,1.2829,1.2621,1.0633,1.1418,1.1289,0.7471,0.68,0.5886,0.3093,0.0798,-0.1191,-0.2902,-0.4921,-0.653,-0.7389,-0.9146,-1.0437,-1.0786,-1.0146,-1.0094,-1.0916,-1.2121,-1.3307,-1.4458,-1.5504,-1.6233,-1.6588,-1.8251,-1.9174,-1.9174,-2.0196,-2.0927,-2.1365,-2.2335,-2.3093,-2.363,-2.4024,-2.4149,-2.4042,-2.3902,-2.3635,-2.3381,-2.3644,-2.3607,-2.3414,-2.3566,-2.3595,-2.3653,-2.3931,-2.3867,-2.3551,0.3829,0.3728,0.3749,0.0,0.0,0.0,0.0,0.0,0.0,0.0,0.0,0.0,0.0,0.0,0.0,0.0,0.0,0.0,0.5903,0.6162,0.6207,0.5944,0.6414,0.6723,0.6757,0.6849,0.6903,0.6924,0.6654,0.6654,0.6904,0.6904,0.6801,0.6598,0.6258,0.6033,0.5886,0.5338,0.5293,0.5556,0.5479,0.5427,0.5393,0.5177,0.5187,0.5396,0.5959,0.627,0.6685,0.8363,0.9468,0.9995,0.9254,0.9868,1.1044,1.1985,1.2288,1.2173,1.1524,1.1611,1.175,1.1126,1.0916,1.0994,1.1494,1.1073,1.0226,0.9014,0.8621,0.7735,0.525,0.2957,0.0851,-0.1039,-0.4333,-0.7108,-0.8325,-0.9861,-1.1047,-1.1519,-1.1651,-1.2327,-1.3912,-1.4092,-1.4016,-1.379,-1.4477,-1.5666,-1.7396,-1.805,-1.8827,-1.9796,-2.0467,-2.0756,-2.0729,-2.1806,-2.291,-2.4016,-2.4617,-2.5213,-2.5745,-2.5785,-2.5821,-2.5774,-2.5326,-2.4826,-2.43,-2.443,-2.4179,-2.3683,-2.361,-2.3616,-2.3653,-2.3659,-2.3659,-2.3788,0.0,0.0,0.0,0.0,0.0,0.0,0.0,0.0,0.0,0.0,0.0,0.0,0.0,0.0,0.0,0.0,0.0,0.0,0.5942,0.5488,0.5529,0.6235,0.5648,0.5615,0.6264,0.5728,0.5577,0.5893,0.5559,0.5439,0.5503,0.5503,0.5487,0.5416,0.4973,0.4774,0.47,0.4152,0.3858,0.3755,0.3524,0.3221,0.2979,0.35,0.3342,0.306,0.4928,0.5545,0.5722,0.7399,0.8422,0.9028,0.9179,0.9779,1.041,1.0291,1.0601,1.0879,1.0458,1.0436,1.0543,1.0661,0.9802,0.8926,0.8965,0.8214,0.714,0.5786,0.4824,0.3539,0.1134,-0.143,-0.3505,-0.4462,-0.7835,-1.0182,-0.9658,-1.2374,-1.4277,-1.3917,-1.5053,-1.5907,-1.6051,-1.666,-1.717,-1.7503,-1.6764,-1.6934,-1.843,-1.9085,-1.9705,-2.0397,-2.1428,-2.1735,-2.1307,-2.1572,-2.2089,-2.278,-2.3384,-2.4203,-2.5232,-2.5667,-2.5905,-2.5929,-2.5818,-2.5681,-2.5477,-2.4791,-2.4627,-2.47,-2.3898,-2.3824,-2.4162,-2.4461,-2.4583,-2.4688,0.0,0.0,0.0,0.0,0.0,0.0,0.0,0.0,0.0,0.0,0.0,0.0,0.0,0.0,0.0,0.0,0.0,0.0,0.0,0.521,0.5161,0.5593,0.5138,0.5057,0.5389,0.4896,0.4739,0.4964,0.4555,0.4398,0.4507,0.4282,0.4128,0.4029,0.3763,0.3526,0.3306,0.2959,0.2675,0.0,0.0,0.2082,0.1873,0.2381,0.234,0.2168,0.3475,0.3951,0.4102,0.504,0.5876,0.6711,0.768,0.7758,0.7615,0.8261,0.8626,0.8891,0.9174,0.9008,0.8816,0.9055,0.7891,0.6748,0.6898,0.5619,0.4003,0.2648,0.0834,-0.1066,-0.2914,-0.5685,-0.7789,-0.7998,-1.1217,-1.348,-1.2777,-1.4858,-1.632,-1.5919,-1.6994,-1.7862,-1.8082,-1.8768,-1.9424,-1.9985,-1.885,-1.8569,-1.9582,-2.0217,-2.0683,-2.0994,-2.1878,-2.2454,-2.2626,-2.2626,-2.3065,-2.3876,-2.424,-2.4888,-2.5811,-2.6138,-2.6352,-2.6433,-2.6509,-2.6401,-2.6131,-2.5621,-2.5546,-2.5621,-2.4694,-2.4627,-2.502,-2.4949,-2.4902,-2.4981,0.0,0.0,0.0,0.0,0.0,0.0,0.0,0.0,0.0,0.5352,0.5827,0.6106,0.6122,0.5773,0.0,0.0,0.0,0.0,0.0,0.0,0.4986,0.4622,0.476,0.4719,0.4404,0.4228,0.4142,0.4169,0.3637,0.3509,0.3759,0.3223,0.2865,0.2708,0.2642,0.2381,0.1982,0.1803,0.1648,0.1547,0.1505,0.1457,0.1427,0.0,0.1724,0.1842,0.1936,0.212,0.2353,0.2452,0.3049,0.3965,0.5423,0.494,0.4203,0.6166,0.655,0.6587,0.7577,0.7373,0.6876,0.6876,0.5518,0.4287,0.4805,0.2816,0.0555,-0.0543,-0.3212,-0.5625,-0.6483,-0.9506,-1.1675,-1.1113,-1.4062,-1.6362,-1.6242,-1.7013,-1.7641,-1.7718,-1.8188,-1.8912,-1.9824,-2.0394,-2.0974,-2.1566,-2.0699,-2.0346,-2.0811,-2.1315,-2.1687,-2.1847,-2.22,-2.2987,-2.4205,-2.4147,-2.4666,-2.5784,-2.5784,-2.6111,-2.6727,-2.6727,-2.6832,-2.7055,-2.7196,-2.7009,-2.6648,-2.6608,-2.6531,-2.6317,-2.5514,-2.5433,-2.5694,-2.506,-2.4902,-2.502,0.0,0.0,0.0,0.0,0.0,0.0,0.0,0.4199,0.4516,0.4602,0.5192,0.5522,0.5251,0.5493,0.0,0.0,0.0,0.0,0.0,0.0,0.0,0.4616,0.4277,0.4044,0.3932,0.3525,0.3358,0.347,0.2996,0.2875,0.3062,0.2534,0.2258,0.2208,0.181,0.1588,0.1477,0.0957,0.0733,0.0689,0.0533,0.0457,0.0484,0.0775,0.0,0.0,0.1121,0.1395,0.1542,0.2255,0.26,0.286,0.3534,0.3536,0.3508,0.4486,0.4753,0.4813,0.5275,0.5311,0.5224,0.5224,0.2998,0.0924,0.1293,-0.1413,-0.4039,-0.4269,-0.6978,-0.9047,-0.8145,-1.1649,-1.4036,-1.2039,-1.4683,-1.691,-1.6792,-1.7894,-1.8895,-1.9323,-1.9916,-2.0343,-2.053,-2.1016,-2.1584,-2.2133,-2.1984,-2.1914,-2.2014,-2.2101,-2.2633,-2.3615,-2.3204,-2.3576,-2.4823,-2.435,-2.4465,-2.5161,-2.5161,-2.5522,-2.6217,-2.6217,-2.663,-2.7325,-2.735,-2.76,-2.7896,-2.6967,-2.6531,-2.6294,-2.5175,-2.4678,-2.4581,-2.4436,-2.4899,-2.5572,0.0,0.0,0.0,0.0,0.0,0.0,0.3765,0.3912,0.4111,0.4179,0.4689,0.5028,0.4995,0.5235,0.5178,0.0,0.0,0.0,0.0,0.0,0.0,0.4034,0.3819,0.3543,0.3232,0.3136,0.3135,0.3189,0.0,0.2386,0.2477,0.1722,0.1366,0.1366,0.1054,0.0942,0.0897,0.0291,0.0022,-0.0045,-0.035,-0.0514,-0.0522,-0.0099,0.0,0.0,0.0444,0.0585,0.0632,0.1058,0.1197,0.1401,0.248,0.2247,0.1793,0.3131,0.3432,0.3478,0.4196,0.3531,0.2605,0.2581,0.0313,-0.1966,-0.2158,-0.4181,-0.6287,-0.7189,-0.9404,-1.1129,-1.0935,-1.3205,-1.4839,-1.4053,-1.5356,-1.6936,-1.824,-1.8511,-1.912,-2.0514,-2.0955,-2.1232,-2.1493,-2.202,-2.2447,-2.2694,-2.2706,-2.2706,-2.2706,-2.2706,-2.298,-2.356,-2.3275,-2.3382,-2.4018,-2.3708,-2.4076,-2.5091,-2.5091,-2.5646,-2.6669,-2.6669,-2.6959,-2.7401,-2.7401,-2.76,-2.7889,-2.734,-2.7243,-2.7257,-2.594,-2.5545,-2.5618,-2.4884,-2.4899,-2.5346,0.0,0.0,0.0,0.0,0.0,0.0,0.3744,0.3705,0.3775,0.3976,0.4345,0.4654,0.4765,0.498,0.4913,0.0,0.0,0.0,0.0,0.0,0.0,0.0,0.3462,0.32,0.2646,0.0,0.0,0.2997,0.2322,0.0,0.0,0.0,0.0,0.0,0.0517,0.0472,0.045,-0.0157,-0.0447,0.0,0.0,-0.1216,-0.1269,0.0,0.0,0.0,0.0,-0.0078,0.0,0.0,0.0,0.0198,0.1396,0.0744,-0.0104,0.167,0.1648,0.1289,0.2447,0.1281,-0.0271,-0.0287,-0.2402,-0.4564,-0.4932,-0.6406,-0.8081,-0.954,-1.103,-1.2283,-1.2979,-1.3989,-1.4869,-1.5339,-1.5734,-1.6783,-1.9131,-1.8832,-1.9108,-2.1079,-2.1446,-2.1707,-2.2259,-2.2782,-2.3108,-2.3108,-2.3108,-2.3108,-2.3108,-2.3108,-2.3168,-2.3305,-2.3305,-2.3454,-2.3708,-2.3708,-2.4337,-2.555,-2.5577,-2.6149,-2.7207,-2.7233,-2.731,-2.7437,-2.7437,-2.7514,-2.76,-2.76,-2.7729,-2.7837,-2.6734,-2.6363,-2.6363,-2.5248,-2.4869,-2.4981,0.0,0.0,0.0,0.0,0.0,0.0,0.3725,0.3705,0.3775,0.3976,0.4345,0.4463,0.4134,0.4704,0.474,0.0,0.0,0.0,0.0,0.0,0.0,0.0,0.0,0.0,0.0,0.0,0.0,0.2649,0.0,0.0,0.0,0.0,0.0,0.0,0.0,0.0405,0.036,-0.0224,0.0,0.0,0.0,0.0,0.0,0.0,0.0,0.0,0.0,-0.0355,0.0,0.0,0.0,-0.007,-0.0454,-0.1189,-0.1635,-0.0181,-0.1431,-0.3017,-0.1642,-0.2164,-0.3068,-0.2913,-0.4921,-0.6815,-0.6208,-0.8379,-1.0651,-1.1126,-1.183,-1.2394,-1.2479,-1.3499,-1.4322,-1.4277,-1.5325,-1.6692,-1.8138,-1.8669,-1.9397,-2.0629,-2.1207,-2.1707,-2.2259,-2.2782,-2.3108,-2.3108,-2.3108,-2.3108,-2.3108,-2.3108,-2.3365,-2.3985,-2.4015,-2.4523,-2.5633,-2.5633,-2.5961,-2.6633,-2.6779,-2.6963,-2.7207,-2.7335,-2.7463,-2.7575,-2.7575,-2.76,-2.76,-2.76,-2.7265,-2.6735,-2.6615,-2.5858,-2.48,-2.4694,-2.4795,-2.5005,0.0,0.0,0.0,0.0,0.0,0.0,0.374,0.3705,0.3822,0.4191,0.4387,0.4473,0.4423,0.4568,0.4423,0.3749,0.3896,0.0,0.0,0.0,0.0,0.0,0.0,0.0,0.0,0.0,0.2594,0.2594,0.1925,0.0,0.0,0.0,0.0,0.0,0.0,0.0,0.0247,-0.0358,0.0,0.0,0.0,0.0,0.0,0.0,0.0,0.0,0.0,0.0,-0.0021,-0.0226,-0.0304,-0.0397,-0.0971,-0.1992,-0.2756,-0.1459,-0.2069,-0.3048,-0.2485,-0.343,-0.4584,-0.463,-0.6109,-0.7782,-0.8753,-0.9097,-0.9881,-1.2245,-1.1964,-1.1705,-1.2943,-1.3785,-1.4516,-1.5131,-1.5913,-1.6892,-1.8197,-1.8393,-1.8926,-2.0335,-2.0813,-2.137,-2.2234,-2.2782,-2.3108,-2.3108,-2.3108,-2.3108,-2.3108,-2.3108,-2.3215,-2.3484,-2.3514,-2.3738,-2.4192,-2.4221,-2.4766,-2.5838,-2.5974,-2.6498,-2.731,-2.7463,-2.7549,-2.76,-2.76,-2.76,-2.76,-2.76,-2.7435,-2.7121,-2.6303,-2.5674,-2.5098,-2.4313,-2.4057,-2.4199,0.0,0.0,0.0,0.0,0.0,0.3837,0.3719,0.3705,0.3831,0.4238,0.429,0.4366,0.4595,0.4413,0.4112,0.3699,0.3688,0.0,0.0,0.0,0.0,0.0,0.0,0.0,0.0,0.0,0.2545,0.2507,0.185,0.1511,0.0,0.0,0.0,0.0,0.0,0.0,0.0,0.0,0.0,0.0,0.0,0.0,0.0,0.0,0.0,0.0,0.0,0.0,0.0,0.0,0.0,-0.0456,-0.0999,-0.2069,-0.2937,-0.1972,-0.2581,-0.3468,-0.299,-0.4221,-0.5663,-0.5883,-0.7115,-0.8642,-1.0029,-0.9579,-0.9666,-1.2447,-1.1938,-1.1508,-1.323,-1.3865,-1.4446,-1.5439,-1.5964,-1.6731,-1.8142,-1.8258,-1.8817,-2.0528,-2.0548,-2.0978,-2.2393,-2.2882,-2.3108,-2.3108,-2.3108,-2.3138,-2.3198,-2.3198,-2.3258,-2.3395,-2.356,-2.3767,-2.3943,-2.4105,-2.4696,-2.5715,-2.5878,-2.6457,-2.7401,-2.7524,-2.76,-2.76,-2.76,-2.76,-2.76,-2.76,-2.76,-2.748,-2.6333,-2.5779,-2.5465,-2.4328,-2.3883,-2.3873,0.0,0.0,0.0,0.0,0.0,0.3246,0.3644,0.3705,0.3775,0.3981,0.4005,0.4107,0.4385,0.4154,0.3898,0.3628,0.3665,0.0,0.0,0.0,0.0,0.0,0.0,0.0,0.0,0.0,0.2446,0.2296,0.1701,0.1297,0.1093,0.0359,0.0,0.0,0.0,0.0,0.0,0.0,0.0,0.0,0.0,0.0,-0.0572,0.0,0.0,0.0,0.0,0.0,0.0,0.0,0.0,0.0,0.0,-0.1419,-0.1925,-0.152,-0.342,-0.5322,-0.3648,-0.4759,-0.6426,-0.6644,-0.8187,-0.9616,-0.9374,-1.0013,-1.0874,-1.1585,-1.1807,-1.2147,-1.3034,-1.3493,-1.3911,-1.451,-1.5058,-1.6003,-1.7661,-1.8364,-1.9398,-2.1259,-2.0489,-2.0677,-2.2882,-2.3108,-2.3108,-2.3108,-2.3108,-2.3198,-2.3403,-2.3403,-2.3628,-2.406,-2.4681,-2.5273,-2.5866,-2.6474,-2.6846,-2.6977,-2.7104,-2.7258,-2.7401,-2.7524,-2.76,-2.76,-2.76,-2.76,-2.76,-2.76,-2.76,-2.7525,-2.6866,-2.6183,-2.5525,-2.4844,-2.4507,-2.4395,0.0,0.0,0.0,0.0,0.0,0.0,0.3686,0.3705,0.3775,0.3976,0.4,0.4102,0.438,0.4167,0.3898,0.3628,0.3665,0.0,0.0,0.0,0.0,0.0,0.0,0.0,0.0,0.2349,0.2387,0.243,0.1923,0.152,0.1225,0.0623,0.0228,0.0,0.0,0.0,0.0,0.0,0.0,0.0,-0.0244,-0.0199,-0.0177,0.0,0.0,0.0,0.0,0.0,0.0,0.0,0.0,0.0,0.0,0.0,0.0,-0.2416,-0.3757,-0.5203,-0.5466,-0.6326,-0.7361,-0.8243,-0.8882,-0.9647,-1.0976,-1.0779,-1.0874,-1.292,-1.2686,-1.2328,-1.3062,-1.3476,-1.4265,-1.6022,-1.6375,-1.698,-1.8624,-1.9167,-1.9581,-2.0079,-2.0938,-2.1945,-2.2995,-2.3108,-2.3168,-2.33,-2.33,-2.336,-2.3539,-2.3539,-2.3599,-2.3763,-2.3927,-2.4131,-2.4334,-2.4523,-2.5049,-2.5892,-2.5632,-2.596,-2.6788,-2.6496,-2.6375,-2.639,-2.68,-2.6982,-2.7023,-2.7433,-2.76,-2.748,-2.6363,-2.5841,-2.5596,-2.4469,-2.4085,-2.4135,0.0,0.0,0.0,0.0,0.0,0.0,0.3691,0.3705,0.3752,0.3873,0.3892,0.3989,0.4219,0.4032,0.3782,0.3503,0.3517,0.0,0.0,0.0,0.0,0.0,0.0,0.0,0.2373,0.2376,0.2435,0.2571,0.2127,0.1707,0.1295,0.0987,0.0531,0.0,0.019,0.0174,0.0,0.0,0.0,0.0,0.0174,0.021,0.0191,0.0,0.0,0.0,0.0,0.0,0.0,0.0,0.0,0.0,0.0,0.0,0.0,0.0,-0.3563,-0.4641,-0.5731,-0.6618,-0.754,-0.8731,-0.9306,-0.9888,-1.1118,-1.0809,-1.0794,-1.2758,-1.2535,-1.2211,-1.3047,-1.3476,-1.4235,-1.5891,-1.6023,-1.6656,-1.8785,-1.9042,-1.9244,-1.9875,-2.1504,-2.2585,-2.2569,-2.2959,-2.33,-2.345,-2.348,-2.3552,-2.3688,-2.3717,-2.376,-2.3776,-2.3881,-2.3927,-2.3927,-2.4176,-2.4681,-2.5481,-2.5175,-2.5453,-2.6229,-2.5933,-2.5933,-2.6149,-2.6283,-2.6616,0.0,-2.7203,-2.7382,-2.7465,-2.6123,-2.5685,-2.5627,-2.4294,-2.3903,-2.4082,0.0,0.0,0.0,0.0,0.0,0.0,0.0,0.3705,0.3705,0.3705,0.3705,0.3775,0.3958,0.3817,0.3596,0.332,0.3293,0.0,0.0,0.0,0.0,0.0,0.0,0.0,0.2495,0.2501,0.2566,0.2717,0.2338,0.1882,0.1361,0.1406,0.0936,0.0055,0.0548,0.0502,0.0,0.0,0.0,0.0,0.0145,0.029,0.0,0.0,0.0,0.0,0.0,0.0,0.0,0.0,0.0,0.0,0.0,0.0,0.0,0.0,0.0,0.0,0.0,-0.5941,-0.706,-0.8353,-0.947,-1.0241,-1.0173,-1.037,0.0,-1.1507,-1.166,-1.1993,-1.3062,-1.351,-1.3955,-1.468,-1.4605,-1.5478,-1.8423,-1.8445,-1.8834,-2.0619,-2.2146,-2.2745,-2.1919,-2.2798,-2.345,-2.3599,-2.3628,-2.37,-2.3891,-2.392,-2.3979,-2.4083,-2.4334,-2.4465,-2.4465,-2.5021,-2.5384,-2.5577,-2.5508,-2.5591,-2.5783,-2.5755,-2.6041,-2.6537,-2.6068,-2.6496,-2.7433,-2.6971,-2.71,-2.7465,-2.6183,-2.573,-2.5627,-2.4354,-2.3991,-2.4202,0.0,0.0,0.0,0.0,0.0,0.0,0.0,0.0,0.0,0.0,0.3705,0.3724,0.377,0.3733,0.3592,0.0,0.0,0.0,0.0,0.0,0.0,0.0,0.0,0.0,0.2495,0.2501,0.2607,0.2846,0.2649,0.2345,0.1905,0.1885,0.1353,0.0484,0.0994,0.1059,0.0,0.0,0.0,0.0,0.0567,0.058,0.0,0.0,0.0,0.0,0.0384,0.021,0.0,0.0,0.0,0.0,0.0,0.0,0.0,0.0,-0.3182,-0.3878,-0.5148,0.0,-0.6887,-0.8879,-0.9529,-0.9894,0.0,-1.0865,-1.1153,-1.2156,-1.236,-1.2687,-1.37,-1.3955,-1.4589,-1.6382,-1.6279,-1.6961,-1.9755,-2.0438,-2.1028,-2.203,-2.2486,-2.2819,-2.3118,-2.3416,-2.3628,-2.3832,-2.3832,-2.3878,-2.4024,-2.4067,-2.4054,-2.4083,-2.4157,-2.4187,-2.4187,-2.4319,-2.4664,-2.5132,-2.4664,-2.4921,-2.5797,-2.537,-2.5272,-2.5439,-2.6163,-2.639,-2.6269,-2.706,-2.7458,-2.751,-2.6701,-2.6135,-2.5688,-2.4859,-2.4351,-2.4061,0.0,0.0,0.0,0.0,0.0,0.0,0.0,0.0,0.0,0.0,0.3705,0.3705,0.3705,0.3705,0.359,0.0,0.0,0.0,0.0,0.0,0.0,0.0,0.0,0.2224,0.2495,0.2501,0.262,0.289,0.2824,0.2503,0.1969,0.2153,0.1656,0.0608,0.0878,0.0886,0.0,0.0,0.0,0.0602,0.0706,0.0,0.0,0.0,0.0,0.0,0.0681,0.0444,0.0,0.0037,-0.0228,-0.0622,0.0,0.0,0.0,0.0,-0.3212,-0.367,-0.4873,-0.591,-0.7106,-0.8917,-0.9512,-0.9818,-1.0495,-1.0676,-1.0943,-1.1715,0.0,-1.2663,-1.3643,-1.4127,-1.4933,-1.6643,-1.6884,-1.7644,-1.9974,-2.1113,-2.1903,-2.249,-2.2652,-2.2927,-2.3535,-2.3688,-2.3819,-2.3979,-2.3979,-2.4037,-2.4083,-2.4083,-2.4083,-2.4083,-2.4083,-2.4083,-2.4083,-2.4083,-2.4258,-2.4591,-2.4258,-2.4419,-2.5006,-2.4721,-2.4721,-2.5033,-2.5342,-2.5605,-2.5837,-2.6481,-2.693,-2.7115,-2.6415,-2.6,-2.5673,-2.4694,-2.4193,-2.4003,0.0,0.0,0.0,0.0,0.0,0.0,0.0,0.0,0.0,0.0,0.0,0.0,0.0,0.0,0.0,0.0,0.0,0.0,0.0,0.0,0.0,0.0,0.2083,0.2209,0.244,0.2484,0.2592,0.2774,0.2812,0.2498,0.1851,0.226,0.1872,0.0821,0.0647,0.0569,0.0565,0.0528,0.0619,0.0773,0.0823,0.0,0.0,0.0,0.0,0.0,0.0,0.0,0.0,0.013,-0.0193,-0.0622,-0.1375,0.0,0.0,0.0,0.0,0.0,-0.4658,-0.6039,-0.7432,-0.8553,-0.9294,-0.9806,-1.004,-1.0305,0.0,0.0,0.0,0.0,-1.3493,-1.4487,-1.5433,-1.6317,-1.7068,-1.8093,-1.9673,-2.0998,-2.1905,-2.228,-2.2534,-2.293,-2.3495,-2.3767,-2.3979,-2.4083,-2.4083,-2.4083,-2.4083,-2.4083,-2.4083,-2.4083,-2.4083,-2.4083,-2.4083,-2.4083,-2.4083,-2.4083,-2.4083,-2.4141,-2.4229,-2.4229,-2.4563,-2.5076,-2.4578,-2.495,-2.5933,-2.5933,-2.6226,-2.663,-2.599,-2.5691,-2.5469,-2.4347,-2.393,-2.394,0.0,0.0,0.0,0.0,0.0,0.0,0.0,0.0,0.0,0.0,0.0,0.0,0.0,0.0,0.0,0.0,0.0,0.0,0.0,0.0,0.0,0.1947,0.2031,0.2121,0.2153,0.2387,0.2412,0.223,0.2442,0.2389,0.2063,0.2133,0.2047,0.1831,0.1147,0.1023,0.1327,0.1148,0.1062,0.106,0.1341,0.0,0.0,0.0,0.0,0.0,0.0,0.0,0.0,0.0352,-0.0035,-0.0622,-0.1375,0.0,0.0,0.0,0.0,0.0,-0.5677,-0.674,-0.7405,-0.7619,-0.8598,-0.963,-0.9945,-1.0515,-1.1176,0.0,0.0,0.0,-1.4299,-1.592,-1.6968,-1.6426,-1.7872,-1.9155,-1.9452,-2.0489,-2.1297,-2.1454,-2.1961,-2.2561,-2.3217,-2.3754,-2.4083,-2.4083,-2.4083,-2.4083,-2.4083,-2.4083,-2.4083,-2.4083,-2.4083,-2.4083,-2.4083,-2.4083,-2.4083,-2.4083,-2.4083,-2.4361,-2.4863,-2.4863,-2.516,-2.5687,-2.5577,-2.5933,-2.6563,-2.6563,-2.6583,-2.6584,-2.6488,-2.5764,-2.4762,-2.4552,-2.4125,-2.3674,0.0,0.0,0.0,0.0,0.0,0.0,0.0,0.0,0.0,0.0,0.0,0.0,0.0,0.0,0.0,0.0,0.0,0.0,0.0,0.0,0.2441,0.2081,0.1944,0.1965,0.2156,0.2209,0.2268,0.2305,0.2286,0.2174,0.1937,0.1761,0.1677,0.1637,0.1202,0.1109,0.1272,0.1187,0.1119,0.1111,0.0,0.0,0.0,0.0,0.0,0.0,0.0,0.0,0.0,0.0,0.0,-0.0622,-0.1375,0.0,0.0,0.0,0.0,0.0,-0.5527,-0.6558,-0.7289,-0.75,-0.8938,-1.0416,-1.0823,-1.1628,-1.2457,-1.3005,-1.3807,-1.4585,-1.5142,-1.6389,-1.7541,-1.8191,-1.8863,-1.9544,-2.0207,-2.0784,-2.1219,-2.1581,-2.2218,-2.2842,-2.3383,-2.3826,-2.4083,-2.4083,-2.4083,-2.4083,-2.4083,-2.4083,-2.4083,-2.4083,-2.4083,-2.4083,-2.4083,-2.4083,-2.4083,-2.4083,-2.4083,-2.4258,-2.4505,-2.4505,-2.4664,-2.4893,-2.5231,-2.5536,-2.5838,-2.6431,-2.6473,-2.6095,-2.6063,-2.5457,-2.456,-2.4186,-2.3923,-2.3717,0.0,0.0,0.0,0.0,0.0,0.0,0.0,0.0,0.0,0.0,0.0,0.0,0.0,0.0,0.0,0.0,0.0,0.0,0.0,0.2845,0.249,0.2149,0.1824,0.1781,0.2052,0.2024,0.2071,0.2225,0.2095,0.1928,0.1701,0.1432,0.1291,0.1293,0.1182,0.1107,0.1093,0.1093,0.1093,0.1111,0.0,0.0,0.0,0.0,0.0,0.0,0.0,0.0,0.0,0.0,0.0,0.0,0.0,0.0,0.0,-0.3523,-0.3988,-0.4312,-0.5551,-0.6579,-0.7417,-0.7953,-0.9317,-1.0691,-1.1157,-1.222,-1.3237,-1.3641,-1.4665,-1.5567,-1.5867,-1.6528,-1.779,-2.0143,-1.9698,-1.9532,-2.0911,-2.109,-2.1295,-2.1831,-2.2521,-2.3064,-2.3385,-2.38,-2.4067,-2.4067,-2.4083,-2.4083,-2.4083,-2.4083,-2.4083,-2.4083,-2.4083,-2.4083,-2.4083,-2.4083,-2.4083,-2.4083,-2.4083,-2.4083,-2.4083,-2.4083,-2.4171,-2.4345,-2.4649,-2.4948,-2.5244,-2.6001,-2.5905,-2.5283,-2.5253,-2.4828,-2.4194,-2.3804,-2.3739,-2.3861,0.0,0.0,0.0,0.0,0.0,0.0,0.0,0.0,0.0,0.0,0.0,0.0,0.0,0.0,0.0,0.0,0.0,0.0,0.0,0.2742,0.2331,0.194,0.1667,0.1554,0.1649,0.1888,0.1788,0.1391,0.1671,0.1681,0.1432,0.1345,0.1309,0.1295,0.1228,0.1166,0.1093,0.1093,0.1093,0.1127,0.1442,0.0,0.0,0.0,0.0,0.0,0.0,0.0,0.0,0.0,0.0,0.0,0.0,0.0,-0.2884,-0.3744,-0.421,-0.4847,-0.6591,-0.7444,-0.8057,-0.8973,-0.921,-0.9362,-0.9824,-1.1295,-1.2658,-1.3057,-1.502,-1.6595,-1.6314,-1.6574,-1.7979,-2.1467,-2.0141,-1.9209,-2.0886,-2.109,-2.1295,-2.1831,-2.2437,-2.2837,-2.2847,-2.3509,-2.392,-2.392,-2.4037,-2.4083,-2.4083,-2.4083,-2.4083,-2.4083,-2.4083,-2.4083,-2.4083,-2.4083,-2.4083,-2.4083,-2.4083,-2.4083,-2.4083,-2.4083,-2.4419,-2.492,-2.439,-2.4765,-2.5715,-2.53,-2.4735,-2.4118,-2.4126,-2.3741,-2.3253,-2.3646,-2.3861,-2.3982,0.0,0.0,0.0,0.0,0.0,0.0,0.0,0.0,0.0,0.0,0.0,0.0,0.0,0.0,0.0,0.0,0.0,0.0,0.0,0.2887,0.2652,0.2594,0.2013,0.1766,0.1919,0.1726,0.1619,0.1619,0.1579,0.148,0.1332,0.1317,0.1279,0.1236,0.1175,0.1115,0.1093,0.1093,0.1093,0.1111,0.1243,0.1293,0.0,0.0,0.0,0.0,0.0,0.0,0.0,0.0,-0.0822,-0.1368,-0.2144,-0.2603,-0.3064,-0.4081,-0.4473,-0.4871,-0.6253,-0.7106,-0.7783,-0.8606,-0.9268,-0.9945,-1.0842,-1.2116,-1.3418,-1.4489,-1.5329,-1.6264,-1.754,-1.7016,-1.7312,-2.0237,-1.9143,-1.8375,-1.9741,-2.074,-2.1447,-2.1733,-2.2687,-2.3308,-2.3308,-2.3748,-2.4037,-2.4037,-2.4054,-2.4083,-2.4083,-2.4083,-2.4083,-2.4083,-2.4083,-2.4083,-2.4083,-2.4083,-2.4083,-2.4083,-2.4083,-2.4083,-2.4083,-2.4083,-2.4229,-2.4447,-2.4591,-2.4907,-2.5314,-2.5453,-2.4922,-2.3915,-2.3129,-2.2715,-2.2649,-2.3091,-2.3355,-2.3551,0.0,0.0,0.0,0.0,0.0,0.0,0.0,0.0,0.0,0.0,0.0,0.0,0.0,0.0,0.0,0.0,0.0,0.0,0.3278,0.2957,0.2815,0.2897,0.2326,0.2018,0.2015,0.1743,0.1634,0.1681,0.15,0.1358,0.1299,0.1305,0.1276,0.1231,0.1169,0.1141,0.1141,0.1141,0.1111,0.1093,0.1093,0.1043,0.0,0.0,0.0,0.0,0.0,0.0,0.0,0.0,-0.1302,-0.1953,-0.2676,-0.3143,-0.3605,-0.4419,-0.4871,-0.531,-0.627,-0.7203,-0.8041,-0.8591,-0.9408,-1.0337,-1.1329,-1.2402,-1.3498,-1.4563,-1.5177,-1.612,-1.8105,-1.7389,-1.7165,-1.9176,-1.8624,-1.8288,-1.9415,-2.0742,-2.1739,-2.2,-2.2952,-2.3599,-2.3599,-2.3848,-2.4037,-2.4037,-2.4083,-2.4083,-2.4083,-2.4083,-2.4083,-2.4083,-2.4083,-2.4083,-2.4083,-2.4083,-2.4083,-2.4083,-2.4083,-2.4083,-2.4083,-2.4083,-2.4083,-2.4112,-2.4534,-2.4734,-2.475,-2.5118,-2.4558,-2.3389,-2.2297,-2.1955,-2.2119,-2.2558,-2.283,-2.3017,0.0,0.0,0.0,0.0,0.0,0.0,0.0,0.0,0.3204,0.294,0.3077,0.0,0.0,0.0,0.0,0.0,0.0,0.0,0.3208,0.2895,0.2712,0.2716,0.2578,0.2287,0.1822,0.1988,0.1875,0.1389,0.1389,0.1357,0.1299,0.1305,0.1298,0.1295,0.1234,0.1205,0.1205,0.1205,0.1169,0.1094,0.1094,0.0942,0.071,0.0,0.0,0.0,0.0,0.0,0.0,0.0,-0.2059,-0.3011,-0.3091,-0.3795,-0.4624,-0.478,-0.5475,-0.6312,-0.6855,-0.7986,-0.9016,-0.9157,-0.9659,-1.0274,-1.086,-1.1821,-1.2622,-1.2773,-1.4486,-1.6402,-1.773,-1.7607,-1.7647,-1.8708,-1.8839,-1.9182,-2.0236,-2.1241,-2.2116,-2.2693,-2.327,-2.3586,-2.3586,-2.3789,-2.3891,-2.3891,-2.4037,-2.4083,-2.4083,-2.4083,-2.4083,-2.4083,-2.4083,-2.4083,-2.4083,-2.4083,-2.4083,-2.4083,-2.4083,-2.4083,-2.4083,-2.4083,-2.4083,-2.4083,-2.4083,-2.4083,-2.4083,-2.4083,-2.3404,-2.2323,-2.1649,-2.1471,-2.165,-2.2119,-2.2397,-2.2489,0.0,0.0,0.0,0.0,0.0,0.0,0.0,0.0,0.314,0.2867,0.3,0.0,0.0,0.0,0.0,0.0,0.0,0.0,0.3208,0.3109,0.3114,0.3259,0.3,0.2675,0.2307,0.1793,0.1475,0.1327,0.1327,0.1318,0.1303,0.1307,0.1298,0.1297,0.1278,0.127,0.127,0.127,0.1234,0.1158,0.0962,0.0819,0.0693,0.0,0.0,0.0,0.0,0.0,0.0,0.0,0.0,0.0,-0.3846,-0.4399,-0.4813,-0.5561,-0.592,-0.6214,-0.6939,-0.7765,-0.8496,-0.8779,-0.983,-1.0784,-1.0662,-1.0818,-1.1283,-1.2358,-1.3966,-1.5505,-1.6654,-1.6804,-1.7106,-1.8224,-1.8336,-1.8512,-1.9136,-2.0432,-2.1412,-2.1591,-2.2534,-2.317,-2.317,-2.369,-2.4037,-2.4037,-2.4083,-2.4083,-2.4083,-2.4083,-2.4083,-2.4083,-2.4083,-2.4083,-2.4083,-2.4083,-2.4083,-2.4083,-2.4083,-2.4083,-2.4083,-2.4083,-2.4083,-2.4083,-2.4083,-2.4083,-2.4031,-2.3221,-2.2701,-2.2283,-2.1297,-2.0923,-2.1008,-2.1506,-2.1756,-2.1898,0.0,0.0,0.0,0.0,0.0,0.0,0.0,0.0,0.3041,0.2688,0.2867,0.2996,0.0,0.0,0.0,0.3192,0.3192,0.0,0.3192,0.3192,0.3293,0.3494,0.3365,0.3066,0.2629,0.1753,0.1298,0.1309,0.1309,0.1304,0.1292,0.1309,0.1291,0.1293,0.1293,0.1293,0.1292,0.1153,0.1062,0.0978,0.0676,0.0474,0.0314,0.0,0.0,0.0,0.0,0.0,0.0,0.0,0.0,0.0,-0.4189,-0.4655,-0.5032,-0.5729,-0.5968,-0.6235,-0.7302,-0.7988,-0.8602,-0.9435,-1.0211,-1.0751,-1.0617,-1.0807,-1.14,-1.2734,-1.3826,-1.4773,-1.5588,-1.6243,-1.684,-1.7349,-1.7967,-1.8446,-1.8703,-2.005,-2.1024,-2.1024,-2.205,-2.2836,-2.3056,-2.3493,-2.3822,-2.407,-2.4083,-2.4083,-2.4083,-2.4083,-2.4083,-2.4083,-2.4083,-2.4083,-2.4083,-2.4083,-2.4083,-2.4083,-2.4083,-2.4083,-2.4083,-2.4083,-2.4083,-2.4083,-2.4083,-2.4083,-2.3992,-2.2871,-2.2414,-2.2296,-2.1157,-2.0699,-2.0724,-2.1008,-2.118,-2.1277,0.0,0.0,0.3461,0.3478,0.0,0.0,0.0,0.2961,0.2911,0.2461,0.2699,0.2902,0.0,0.0,0.0,0.3192,0.3192,0.3192,0.3192,0.3192,0.3293,0.3494,0.3578,0.3356,0.278,0.182,0.1321,0.129,0.1295,0.1308,0.1299,0.1305,0.1312,0.1308,0.1308,0.1308,0.1287,0.0952,0.0764,0.0672,0.0316,-0.0019,-0.0311,-0.0636,0.0,0.0,0.0,0.0,0.0,0.0,0.0,0.0,-0.4268,-0.4696,-0.5251,-0.5503,-0.579,-0.6339,-0.7834,-0.8423,-0.8994,-1.0609,-1.0661,-1.0429,-1.0757,-1.1503,-1.2412,-1.3494,-1.3931,-1.423,-1.4624,-1.5849,-1.6695,-1.6379,-1.7673,-1.8738,-1.8786,-1.9945,-2.079,-2.0804,-2.1663,-2.2464,-2.2986,-2.3078,-2.3365,-2.3965,-2.4005,-2.4031,-2.4083,-2.4083,-2.4083,-2.4083,-2.4083,-2.4083,-2.4083,-2.4083,-2.4083,-2.4083,-2.4083,-2.4083,-2.4083,-2.4083,-2.4083,-2.4083,-2.4083,-2.4083,-2.3992,-2.2872,-2.2414,-2.2296,-2.1145,-2.0699,-2.0699,-2.0699,-2.0699,-2.0699,0.0,0.0,0.3197,0.3249,0.0,0.0,0.2754,0.2851,0.2806,0.2449,0.2699,0.2902,0.2902,0.3082,0.0,0.3192,0.3192,0.3192,0.3192,0.3192,0.3293,0.3494,0.322,0.2884,0.2488,0.1913,0.1478,0.1225,0.1274,0.1308,0.1299,0.1305,0.1334,0.137,0.137,0.137,0.1348,0.1017,0.0841,0.0727,0.0187,-0.0383,-0.0921,-0.1106,-0.1496,0.0,0.0,0.0,0.0,0.0,0.0,0.0,-0.4683,-0.5002,-0.5269,-0.6048,-0.6229,-0.6501,-0.8084,-0.8262,-0.8379,-0.993,-1.0475,-1.0813,-1.1612,-1.1972,-1.2264,-1.2895,-1.3648,-1.4294,-1.4627,-1.5479,-1.6215,-1.6478,-1.7461,-1.8324,-1.8738,-1.9334,-1.9843,-2.0155,-2.0794,-2.1389,-2.1811,-2.2283,-2.2807,-2.3367,-2.3378,-2.3587,-2.4057,-2.4083,-2.4083,-2.4083,-2.4083,-2.4083,-2.4083,-2.4083,-2.4083,-2.4083,-2.4083,-2.4083,-2.4083,-2.4083,-2.4083,-2.4083,-2.4083,-2.4083,-2.3992,-2.2872,-2.2388,-2.2283,-2.1157,-2.0699,-2.0699,-2.0699,-2.0699,-2.0699,0.0,0.0,0.0,0.0,0.0,0.0,0.0,0.0,0.2949,0.2678,0.288,0.305,0.305,0.3135,0.0,0.0,0.3192,0.3192,0.3192,0.3192,0.3293,0.3494,0.321,0.2853,0.2464,0.1949,0.1548,0.1249,0.1252,0.1279,0.1299,0.1305,0.1342,0.1389,0.1231,0.1164,0.1119,0.0492,0.0199,0.013,-0.0477,-0.0979,-0.1405,-0.1653,-0.1965,-0.2337,-0.2641,0.0,0.0,0.0,0.0,0.0,0.0,0.0,-0.5159,-0.5942,-0.6096,-0.6331,-0.7811,-0.8174,-0.8496,-1.0015,-1.055,-1.0871,-1.1564,-1.219,-1.2662,-1.2764,-1.3494,-1.4269,-1.4789,-1.5451,-1.5992,-1.6244,-1.7064,-1.78,-1.8081,-1.8711,-1.9263,-1.9656,-2.0166,-2.0666,-2.1158,-2.1508,-2.1881,-2.242,-2.2745,-2.3114,-2.3639,-2.3926,-2.4083,-2.4083,-2.4083,-2.4083,-2.4083,-2.4083,-2.4083,-2.4083,-2.4083,-2.4083,-2.4083,-2.4083,-2.4083,-2.4083,-2.4083,-2.4083,-2.3992,-2.2871,-2.2401,-2.2297,-2.1157,-2.0699,-2.0699,-2.0699,-2.0699,-2.0699,0.0,0.0,0.0,0.0,0.0,0.0,0.0,0.0,0.0,0.2926,0.3078,0.3192,0.3192,0.3192,0.3192,0.0,0.0,0.0,0.3192,0.324,0.3326,0.3498,0.3365,0.3033,0.249,0.2057,0.1642,0.1266,0.116,0.1142,0.1195,0.1205,0.1217,0.1231,0.091,0.0733,0.0626,-0.0176,-0.0528,-0.0597,-0.1143,-0.1553,-0.1857,-0.2108,-0.2361,-0.2626,-0.2911,-0.3282,-0.363,-0.3728,0.0,0.0,0.0,0.0,-0.5094,-0.5638,-0.5833,-0.6149,-0.7376,-0.8129,-0.891,-1.0259,-1.0696,-1.0882,-1.1172,-1.2206,-1.3056,-1.288,-1.3555,-1.4351,-1.4926,-1.5417,-1.5797,-1.5889,-1.6589,-1.7177,-1.7258,-1.7926,-1.8577,-1.8983,-1.9393,-1.9888,-2.0445,-2.065,-2.0982,-2.1513,-2.2094,-2.2598,-2.3039,-2.355,-2.3825,-2.3812,-2.3916,-2.391,-2.381,-2.4015,-2.4015,-2.381,-2.3806,-2.3812,-2.3825,-2.3812,-2.3916,-2.4083,-2.3979,-2.3926,-2.3848,-2.2699,-2.223,-2.2139,-2.1093,-2.0699,-2.0699,-2.0699,-2.0699,-2.0699,0.0,0.0,0.0,0.0,0.0,0.0,0.0,0.0,0.0,0.0,0.3078,0.3192,0.3192,0.3192,0.3192,0.3192,0.3192,0.3192,0.3192,0.0,0.0,0.3502,0.3594,0.3248,0.244,0.2395,0.1976,0.1118,0.088,0.078,0.0778,0.0783,0.0722,0.0603,0.0322,0.0043,-0.0245,-0.0474,-0.0652,-0.0779,-0.1097,-0.1705,-0.2374,-0.2252,-0.2684,-0.3375,-0.3466,-0.3577,-0.3751,-0.4221,-0.4484,0.0,0.0,0.0,-0.5397,-0.5705,-0.6003,-0.6395,-0.7148,-0.8127,-0.913,-0.9964,-1.0711,-1.118,-1.0978,-1.1852,-1.2741,-1.2939,-1.4037,-1.4903,-1.4766,-1.5005,-1.5372,-1.5807,-1.6015,-1.6244,-1.6644,-1.6809,-1.7057,-1.7529,-1.7988,-1.8429,-1.8882,-1.9648,-2.0372,-2.0956,-2.1391,-2.1916,-2.2492,-2.2569,-2.2622,-2.2624,-2.308,-2.313,-2.2728,-2.3648,-2.3619,-2.2728,-2.2665,-2.2637,-2.2635,-2.2637,-2.3186,-2.4057,-2.3535,-2.3313,-2.3221,-2.21,-2.1629,-2.1564,-2.0936,-2.0699,-2.0699,-2.0699,-2.0699,-2.0699,0.0,0.0,0.0,0.0,0.0,0.0,0.0,0.0,0.0,0.0,0.0,0.3192,0.3192,0.3192,0.3192,0.3192,0.3192,0.3192,0.3192,0.3383,0.3369,0.3063,0.3187,0.2869,0.2033,0.2001,0.1739,0.1215,0.0763,0.0522,0.0457,-0.0021,-0.013,0.0096,-0.0322,-0.0592,-0.0762,-0.1129,-0.1286,-0.1341,-0.1725,-0.2258,-0.282,-0.2649,-0.302,-0.3594,-0.3428,-0.3642,-0.4011,-0.4205,-0.4516,-0.4826,-0.489,0.0,0.0,0.0,-0.615,-0.6833,-0.8213,-0.8648,-0.9002,-1.0149,-1.0666,-1.0951,-1.1099,-1.191,-1.2798,-1.3298,-1.4087,-1.472,-1.4708,-1.4697,-1.4821,-1.5162,-1.5492,-1.5741,-1.5945,-1.6341,-1.6773,-1.7253,-1.7468,-1.7674,-1.7847,-1.8484,-1.9001,-1.9247,-1.9984,-2.0671,-2.1207,-2.1523,-2.1675,-2.1663,-2.1903,-2.1917,-2.1718,-2.2397,-2.2652,-2.245,-2.2397,-2.2401,-2.2387,-2.2116,-2.2415,-2.3147,-2.2885,-2.274,-2.2702,-2.1851,-2.1511,-2.1459,-2.0909,-2.0699,-2.0699,-2.0699,-2.0699,-2.0699,0.0,0.0,0.0,0.0,0.0,0.0,0.0,0.0,0.0,0.0,0.0,0.3192,0.3192,0.0,0.0,0.0,0.3192,0.3192,0.3192,0.3338,0.3218,0.2771,0.2855,0.2549,0.1764,0.1718,0.1544,0.125,0.0639,0.0322,0.0224,-0.0635,-0.0881,-0.062,-0.105,-0.1231,-0.1262,-0.1684,-0.1861,-0.1908,-0.2305,-0.2744,-0.3148,-0.3162,-0.3525,-0.4021,-0.3685,-0.4008,-0.4538,-0.4378,-0.4644,-0.5068,-0.5148,-0.5287,0.0,0.0,0.0,-0.709,-0.8728,-0.8759,-0.8687,-1.0172,-1.0722,-1.0963,-1.1215,-1.2119,-1.3017,-1.3303,-1.3813,-1.4257,-1.4477,-1.4454,-1.4454,-1.4593,-1.4962,-1.522,-1.522,-1.5689,-1.6196,-1.6584,-1.675,-1.6881,-1.6941,-1.749,-1.7812,-1.7812,-1.8658,-1.9315,-1.9684,-2.0066,-2.035,-2.0446,-2.0622,-2.0702,-2.0697,-2.0977,-2.1392,-2.1856,-2.1727,-2.1623,-2.1636,-2.1272,-2.1353,-2.181,-2.1939,-2.2085,-2.2126,-2.1525,-2.1302,-2.125,-2.0857,-2.0699,-2.0699,-2.0699,-2.0699,-2.0699,0.0,0.0,0.0,0.0,0.0,0.0,0.0,0.0,0.0,0.0,0.0,0.3192,0.3192,0.3192,0.3192,0.3192,0.3192,0.3192,0.3192,0.3216,0.0,0.0,0.295,0.0,0.1913,0.1941,0.1696,0.1104,0.0515,0.0177,0.009,-0.0792,-0.1383,-0.1717,-0.1802,-0.1844,-0.1861,-0.1957,-0.2124,-0.2386,-0.26,-0.2919,-0.3324,-0.3712,-0.4344,-0.4992,-0.4729,-0.502,-0.5462,-0.5086,-0.5065,-0.5269,-0.5789,-0.5955,-0.6142,0.0,0.0,0.0,-0.7765,-0.792,-0.82,-0.9744,-1.0929,-1.1654,-1.1297,-1.2418,-1.3352,-1.2609,-1.3087,-1.3716,-1.3997,-1.4244,-1.4396,-1.4396,-1.4441,-1.4463,-1.4463,-1.4485,-1.4589,-1.4798,-1.5283,-1.5696,-1.5946,-1.6797,-1.7338,-1.7338,-1.7751,-1.7993,-1.8017,-1.8054,-1.8265,-1.8733,-1.9289,-1.9568,-1.9571,-1.961,-1.9887,-2.0392,-1.982,-1.9559,-1.9559,-1.9533,-1.9743,-2.0169,-2.0716,-2.1196,-2.1511,-2.0962,-2.0751,-2.0751,-2.0712,-2.0699,-2.0699,-2.0699,-2.0699,-2.0699,0.0,0.0,0.0,0.0,0.0,0.0,0.0,0.0,0.0,0.0,0.0,0.0,0.0,0.3192,0.3192,0.3192,0.3192,0.3109,0.2895,0.2878,0.0,0.0,0.2121,0.1913,0.1405,0.1459,0.1289,0.0904,0.0343,-0.0077,-0.0366,-0.1191,-0.1595,-0.1623,-0.1852,-0.2062,-0.2241,-0.2391,-0.2454,-0.2519,-0.3107,-0.3532,-0.3825,-0.3933,-0.4273,-0.47,-0.4565,-0.4807,-0.5231,-0.53,-0.5391,-0.5484,-0.564,-0.579,-0.6074,-0.6794,-0.6909,-0.6968,-0.7697,-0.8034,-0.837,-0.9188,-1.0796,-1.2014,-1.1405,-1.2236,-1.3145,-1.3161,-1.2939,-1.2972,-1.3635,-1.381,-1.3952,-1.4127,-1.415,-1.415,-1.415,-1.4291,-1.4419,-1.4489,-1.4783,-1.5012,-1.5116,-1.5889,-1.6406,-1.6406,-1.6819,-1.7069,-1.7069,-1.7069,-1.714,-1.7317,-1.7542,-1.7936,-1.8536,-1.8536,-1.8953,-1.973,-1.9506,-1.9394,-1.9394,-1.9131,-1.9225,-1.9617,-1.9564,-2.0099,-2.0975,-2.0791,-2.0699,-2.0674,-2.0372,-2.0232,-2.0232,-2.0232,-2.0093,-1.9901,0.0,0.0,0.0,0.2948,0.0,0.2852,0.2802,0.2838,0.2848,0.2799,0.0,0.0,0.0,0.0,0.2892,0.2873,0.287,0.2761,0.2513,0.2494,0.0,0.0,0.1689,0.155,0.1144,0.1094,0.0982,0.0802,0.0164,-0.0285,-0.0575,-0.1289,-0.1624,-0.1608,-0.1985,-0.2236,-0.242,-0.2687,-0.282,-0.2924,-0.3613,-0.4045,-0.4252,-0.4391,-0.476,-0.5158,-0.49,-0.5227,-0.5793,-0.5951,-0.6018,-0.6055,-0.6192,-0.6346,-0.652,-0.682,-0.6983,-0.7141,-0.7497,-0.7915,-0.8457,-0.9232,-1.0646,-1.1824,-1.1843,-1.2272,-1.2793,-1.3103,-1.2701,-1.2473,-1.3051,-1.3279,-1.3533,-1.4023,-1.3973,-1.3921,-1.4079,-1.4129,-1.4163,-1.4267,-1.4466,-1.4639,-1.4697,-1.5267,-1.5636,-1.5636,-1.5911,-1.6094,-1.6094,-1.6094,-1.6174,-1.6359,-1.6507,-1.6991,-1.7798,-1.7798,-1.8199,-1.8972,-1.8972,-1.8972,-1.8934,-1.8691,-1.8786,-1.9184,-1.8931,-1.9368,-2.0271,-2.0271,-2.0271,-2.0233,-1.9914,-1.9875,-1.9965,-1.985,-1.9708,-1.9604,0.2877,0.2894,0.2847,0.2376,0.2246,0.2157,0.2034,0.2126,0.2159,0.202,0.0,0.0,0.0,0.0,0.0,0.2205,0.2193,0.2161,0.21,0.2073,0.1921,0.1579,0.1692,0.1572,0.1187,0.0925,0.0784,0.0782,-0.0018,-0.043,-0.0529,-0.1066,-0.1491,-0.1825,-0.2227,-0.2412,-0.2471,-0.2863,-0.3262,-0.3662,-0.4127,-0.4384,-0.4589,-0.5106,-0.5832,-0.6502,-0.5845,-0.6327,-0.7249,-0.7071,-0.6967,-0.7021,-0.7559,-0.7677,-0.7549,-0.7213,-0.7344,-0.7535,0.0,0.0,0.0,-0.9846,-1.0477,-1.1085,-1.2503,-1.2539,-1.2266,-1.2276,-1.2266,-1.2256,-1.2276,-1.2596,-1.3173,-1.4148,-1.3931,-1.3772,-1.4262,-1.3931,-1.3713,-1.3984,-1.4231,-1.4477,-1.4685,-1.4949,-1.5108,-1.5108,-1.5108,-1.5108,-1.5108,-1.5108,-1.5337,-1.5867,-1.6313,-1.6818,-1.735,-1.7373,-1.7611,-1.8088,-1.8084,-1.8084,-1.8084,-1.8084,-1.8356,-1.8771,-1.8771,-1.9011,-1.9368,-1.9394,-1.9394,-1.9394,-1.9394,-1.9604,-1.9927,-1.9539,-1.963,-1.9888,0.2624,0.2614,0.255,0.2273,0.2211,0.218,0.2151,0.2223,0.2265,0.0,0.0,0.0,0.2304,0.2304,0.2291,0.228,0.222,0.2088,0.1831,0.159,0.1277,0.0889,0.0778,0.0633,0.0474,0.0442,0.0336,0.0155,-0.026,-0.056,-0.0741,-0.1424,-0.1841,-0.2032,-0.2487,-0.2941,-0.335,-0.3449,-0.3658,-0.3926,-0.4294,-0.4757,-0.5215,-0.5218,-0.5741,-0.6431,-0.6192,-0.6462,-0.6956,-0.6979,-0.7278,-0.7711,-0.8199,-0.8074,-0.7722,-0.758,-0.7762,-0.789,-0.718,0.0,0.0,0.0,0.0,0.0,-1.0932,-1.1206,-1.1503,-1.1736,-1.124,-1.0992,-1.1664,-1.1882,-1.2461,-1.4045,-1.42,-1.4273,-1.4738,-1.4407,-1.4142,-1.4216,-1.4331,-1.443,-1.4477,-1.4857,-1.5108,-1.5108,-1.5108,-1.5108,-1.5108,-1.5108,-1.5177,-1.5315,-1.5452,-1.5785,-1.6313,-1.6658,-1.7082,-1.7588,-1.7939,-1.8084,-1.8084,-1.8084,-1.8166,-1.8275,-1.8275,-1.8356,-1.8518,-1.9131,-1.9394,-1.9368,-1.909,-1.9025,-1.9131,-1.8999,-1.8827,-1.8655,0.2221,0.2238,0.2185,0.1875,0.1823,0.1832,0.1828,0.1868,0.1893,0.0,0.0,0.0,0.1735,0.1748,0.1687,0.1475,0.1436,0.131,0.1093,0.0883,0.0676,0.045,0.0379,0.0304,0.0245,0.008,-0.0059,-0.0234,-0.0766,-0.1126,-0.1271,-0.1866,-0.2201,-0.2295,-0.275,-0.316,-0.3507,-0.3632,-0.3871,-0.4172,-0.4758,-0.5144,-0.5414,-0.5688,-0.6081,-0.6468,-0.6376,-0.6631,-0.7077,-0.7515,-0.8078,-0.8641,-0.8898,-0.8697,-0.8337,-0.8109,-0.8295,-0.8432,-0.7799,-0.8087,-0.8608,-0.88,0.0,0.0,-1.1089,-1.1063,-1.1116,-1.1797,-1.1369,-1.1021,-1.1509,-1.1902,-1.2482,-1.3535,-1.4031,-1.4531,-1.5194,-1.4883,-1.4593,-1.4593,-1.4729,-1.4852,-1.4963,-1.5121,-1.5267,-1.5418,-1.5234,-1.5108,-1.5108,-1.5108,-1.5108,-1.5108,-1.5108,-1.536,-1.59,-1.6163,-1.6552,-1.7071,-1.7576,-1.7817,-1.7802,-1.802,-1.8084,-1.8084,-1.8084,-1.8084,-1.8139,-1.8652,-1.8866,-1.8839,-1.8598,-1.8637,-1.8771,-1.8583,-1.8464,-1.841,0.0,0.18,0.1777,0.1364,0.1293,0.1279,0.126,0.1249,0.1238,0.0,0.1192,0.1103,0.0858,0.0887,0.0752,0.0345,0.0309,0.0282,0.0222,0.0183,0.0149,0.0157,0.0245,0.0263,0.0196,-0.0255,-0.0488,-0.0483,-0.138,-0.1863,-0.1945,-0.2374,-0.2579,-0.26,-0.3046,-0.3264,-0.3336,-0.3683,-0.4052,-0.4465,-0.5269,-0.5514,-0.5494,-0.6319,-0.6685,-0.678,-0.659,-0.6904,-0.7546,-0.8401,-0.9071,-0.9542,-0.9638,-0.9513,-0.9235,-0.8812,-0.8949,0.0,-0.8747,-0.8673,0.0,-1.0261,-1.0346,0.0,-1.2093,-1.1606,-1.1132,-1.2178,-1.2035,-1.1722,-1.1664,-1.2255,-1.2801,-1.2956,-1.3669,-1.4573,-1.5546,-1.5339,-1.507,-1.507,-1.5305,-1.5547,-1.5793,-1.5645,-1.5656,-1.5956,-1.5498,-1.52,-1.52,-1.5142,-1.5108,-1.5108,-1.5108,-1.5337,-1.582,-1.5877,-1.6094,-1.653,-1.706,-1.735,-1.7419,-1.7825,-1.8054,-1.8084,-1.8084,-1.8084,-1.8084,-1.8084,-1.8084,-1.8084,-1.8084,-1.8356,-1.8664,-1.8247,-1.8356,-1.8664,0.1398,0.1362,0.1336,0.1304,0.1305,0.1214,0.094,0.0944,0.0865,0.0532,0.0488,0.0472,0.0417,0.0434,0.0401,0.0299,0.0295,0.0296,0.0291,0.0019,-0.013,-0.0118,-0.0312,-0.0408,-0.0432,-0.0823,-0.1018,-0.0956,-0.1696,-0.2095,-0.2231,-0.2797,-0.3099,-0.3152,-0.3342,-0.3688,-0.4117,-0.4507,-0.4802,-0.5009,-0.4936,-0.563,-0.6741,-0.6748,-0.7294,-0.799,-0.7458,-0.7666,-0.8303,-0.8997,-0.9193,-0.9291,-1.0306,-1.0386,-1.0081,-0.9988,-0.9997,-0.999,-0.9574,-0.9693,-1.0034,-1.0368,-1.0585,0.0,-1.1423,-1.1617,-1.1776,-1.2224,-1.1819,-1.1505,-1.1861,-1.189,-1.2214,-1.3276,-1.3607,-1.421,-1.5504,-1.5608,-1.5556,-1.5556,-1.5653,-1.5742,-1.5782,-1.6146,-1.6386,-1.6461,-1.6026,-1.5727,-1.5727,-1.5337,-1.5108,-1.5108,-1.5108,-1.5154,-1.5269,-1.5693,-1.5957,-1.6049,-1.6543,-1.6979,-1.7407,-1.7484,-1.7748,-1.8084,-1.8084,-1.8084,-1.8084,-1.8084,-1.8084,-1.8084,-1.8084,-1.8166,-1.822,-1.8139,-1.8166,-1.822,0.0811,0.0745,0.0725,0.0782,0.0802,0.0755,0.057,0.0544,0.048,0.0316,0.0324,0.0252,0.0025,0.005,0.0024,-0.0186,-0.0197,-0.0186,-0.0158,-0.0307,-0.0497,-0.0685,-0.0786,-0.094,-0.1152,-0.1417,-0.1542,-0.1541,-0.2153,-0.2492,-0.2558,-0.321,-0.3628,-0.3857,-0.3849,-0.4228,-0.4837,-0.4811,-0.5211,-0.5857,-0.5919,-0.6344,-0.6987,-0.7243,-0.7693,-0.811,-0.7809,-0.8054,-0.8601,-0.9206,-0.9605,-0.997,-1.0678,-1.1048,-1.1108,-1.0726,-1.0732,-1.0814,-1.0401,-1.0459,-1.065,-1.0887,-1.1074,0.0,0.0,-1.1444,-1.1623,-1.2818,-1.2434,-1.2173,-1.3044,-1.3076,-1.3224,-1.3882,-1.3691,-1.4005,-1.5526,-1.5515,-1.5339,-1.5339,-1.5489,-1.5762,-1.6168,-1.6316,-1.6459,-1.6598,-1.638,-1.6243,-1.6243,-1.5785,-1.551,-1.551,-1.5246,-1.5108,-1.5108,-1.5372,-1.551,-1.5521,-1.6026,-1.6405,-1.6658,-1.7177,-1.7545,-1.7771,-1.8008,-1.8084,-1.8084,-1.8084,-1.8084,-1.8084,-1.8084,-1.8084,-1.8084,-1.8084,-1.8084,-1.8084,0.0274,0.0255,0.0213,0.0294,0.0288,0.0263,0.019,0.014,0.0094,0.0076,0.0026,-0.0131,-0.0511,-0.056,-0.072,-0.1028,-0.1055,-0.1015,-0.0965,-0.0924,-0.1033,-0.1367,-0.1265,-0.1383,-0.1731,-0.1873,-0.1972,-0.2024,-0.27,-0.3003,-0.2996,-0.37,-0.4201,-0.4522,-0.4457,-0.4842,-0.5507,-0.5192,-0.572,-0.6812,-0.7194,-0.7238,-0.7172,-0.7773,-0.8025,-0.8072,-0.8072,-0.8273,-0.8654,-0.9227,-0.997,-1.0689,-1.0887,-1.1473,-1.1972,-1.1311,-1.1357,-1.155,-1.121,-1.1196,-1.1338,-1.1667,-1.1816,-1.1893,0.0,0.0,0.0,-1.3273,-1.3083,-1.2975,-1.3994,-1.4231,-1.4254,-1.4242,-1.3908,-1.4107,-1.5473,-1.529,-1.5049,-1.5143,-1.5377,-1.5812,-1.6451,-1.6302,-1.6271,-1.6573,-1.6518,-1.6495,-1.6598,-1.614,-1.59,-1.59,-1.5383,-1.5108,-1.5108,-1.5017,-1.4971,-1.4971,-1.531,-1.5511,-1.5635,-1.6528,-1.6991,-1.7104,-1.7558,-1.7826,-1.7909,-1.7799,-1.7881,-1.8084,-1.8084,-1.8084,-1.8084,-1.8084,-1.8084,-1.8084,0.0187,0.0247,0.0224,0.0292,0.0253,0.0114,-0.0198,-0.0249,-0.0379,-0.0711,-0.1167,-0.1458,-0.1452,-0.1978,-0.2338,-0.2371,-0.2334,-0.2283,-0.2284,-0.2063,-0.1951,-0.1993,-0.1766,-0.1717,-0.1883,-0.2018,-0.2089,-0.2085,-0.3275,-0.3775,-0.3623,-0.4476,-0.4896,-0.495,-0.5159,-0.5556,-0.6029,-0.6227,-0.6856,-0.7742,-0.7808,-0.7966,-0.8227,-0.831,-0.8484,-0.8711,-0.8711,-0.8588,-0.8539,-0.9252,-0.9911,-1.0503,-1.0947,-1.1555,-1.2082,-1.1991,-1.2,-1.2027,-1.1972,-1.222,-1.2505,-1.2638,-1.2909,-1.3109,-1.2759,0.0,-1.3199,-1.2949,0.0,-1.3253,-1.3407,0.0,0.0,-1.3695,-1.437,-1.4947,-1.5159,-1.5132,-1.521,-1.5581,-1.5917,-1.6154,-1.6235,-1.606,-1.6117,-1.6564,-1.6209,-1.6151,-1.6575,-1.614,-1.5889,-1.5889,-1.5372,-1.5108,-1.5108,-1.4697,-1.4489,-1.4466,-1.4052,-1.4118,-1.4588,-1.5058,-1.5495,-1.5915,-1.6339,-1.681,-1.7257,-1.6736,-1.714,-1.8084,-1.8084,-1.8084,-1.8084,-1.8084,-1.8084,-1.8084,-0.0221,-0.0258,-0.0297,-0.0236,-0.0275,-0.0392,-0.0573,-0.1053,-0.1447,-0.1525,-0.2214,-0.2632,-0.2499,-0.2661,-0.2787,-0.2787,-0.2639,-0.2505,-0.2395,-0.2361,-0.2385,-0.2498,-0.2407,-0.2425,-0.2598,-0.2766,-0.2812,-0.2746,-0.3544,-0.3899,-0.3831,-0.4467,-0.4977,-0.535,-0.5636,-0.6088,-0.668,-0.6751,-0.7024,-0.7413,-0.7766,-0.7979,-0.8156,-0.8497,-0.8704,-0.8804,-0.8804,-0.9062,-0.9475,-0.9619,-1.0399,-1.1284,-1.1317,-1.1688,-1.2101,-1.2101,-1.2101,-1.2101,-1.2101,-1.2386,-1.2648,-1.2457,-1.2689,-1.2886,-1.2497,-1.2392,-1.2546,-1.313,0.0,0.0,0.0,0.0,0.0,0.0,-1.3596,-1.3575,-1.4563,-1.4083,-1.406,-1.5222,-1.5355,-1.5618,-1.6366,-1.6354,-1.652,-1.7025,-1.6349,-1.6246,-1.7014,-1.6589,-1.6166,-1.5908,-1.5391,-1.4824,-1.4246,-1.4035,-1.3952,-1.3928,-1.3716,-1.3714,-1.3959,-1.4441,-1.4888,-1.5319,-1.5749,-1.6231,-1.6669,-1.6386,-1.6753,-1.7399,-1.7399,-1.77,-1.8084,-1.8084,-1.8084,-1.8084,-0.0954,-0.0817,-0.0688,-0.0645,-0.0799,-0.1013,-0.1281,-0.1934,-0.2349,-0.2269,-0.299,-0.3451,-0.3318,-0.335,-0.3411,-0.3442,-0.329,-0.3079,-0.2832,-0.2837,-0.302,-0.3406,-0.3264,-0.3355,-0.3748,-0.3717,-0.3611,-0.3449,-0.3908,-0.4145,-0.4162,-0.4637,-0.5147,-0.5723,-0.6085,-0.6603,-0.7228,-0.7326,-0.7459,-0.7639,-0.7999,-0.8192,-0.8305,-0.8651,-0.8804,-0.8804,-0.8804,-0.9273,-0.9908,-0.9703,-1.0508,-1.159,-1.1406,-1.1675,-1.2101,-1.2101,-1.2101,-1.2082,-1.1972,-1.2303,-1.2569,-1.2064,-1.2312,-1.2588,-1.2193,-1.1963,-1.2122,-1.3132,-1.3002,0.0,0.0,0.0,-1.3596,-1.3912,0.0,-1.2915,-1.3882,-1.3398,-1.3425,-1.4759,-1.4842,-1.5163,-1.6093,-1.6071,-1.6173,-1.6539,-1.5903,-1.5857,-1.6721,-1.6373,-1.6017,-1.5694,-1.5134,-1.4446,-1.3621,-1.3443,-1.3386,-1.3386,-1.3252,-1.319,-1.32,-1.3705,-1.4149,-1.4566,-1.5008,-1.5535,-1.6054,-1.5853,-1.6222,-1.6875,-1.6706,-1.7183,-1.794,-1.794,-1.8064,-1.8233,-0.204,-0.1319,-0.0694,-0.0694,-0.1128,-0.1728,-0.2522,-0.2785,-0.288,-0.2878,-0.3409,-0.3791,-0.3788,-0.431,-0.4683,-0.483,-0.4699,-0.4485,-0.4167,-0.3906,-0.4135,-0.4983,-0.4478,-0.4546,-0.5396,-0.4792,-0.4331,-0.4066,-0.455,-0.4772,-0.4784,-0.5247,-0.5655,-0.6019,-0.6604,-0.7095,-0.7524,-0.8114,-0.8657,-0.9118,-0.8858,-0.8918,-0.9144,-0.8878,-0.8804,-0.8804,-0.8804,-0.8991,-0.9239,-0.9218,-0.9993,-1.0939,-1.0915,-1.1447,-1.2101,-1.2101,-1.2101,-1.2018,-1.1632,-1.2101,-1.2505,-1.1724,-1.2119,-1.2588,-1.2193,-1.2386,-1.2661,-1.2715,-1.337,-1.3946,-1.4002,-1.4396,-1.4322,-1.3065,-1.3689,0.0,0.0,-1.3465,-1.3926,-1.4365,-1.481,-1.5097,-1.5154,-1.4741,-1.4484,-1.4476,-1.4463,-1.465,-1.5156,-1.5101,-1.5082,-1.5118,-1.4531,-1.4041,-1.3597,-1.3088,-1.2837,-1.2812,-1.2363,-1.215,-1.216,-1.2556,-1.2971,-1.3368,-1.3792,-1.4506,-1.5381,-1.4793,-1.5486,-1.6855,-1.6267,-1.6647,-1.7513,-1.7513,-1.7963,-1.858,-0.2224,-0.2017,-0.1773,-0.1652,-0.1893,-0.2205,-0.2585,-0.3376,-0.3919,-0.3779,-0.4552,-0.5121,-0.5121,-0.5153,-0.5187,-0.5238,-0.4986,-0.4857,-0.4922,-0.4502,-0.4782,-0.5922,-0.5125,-0.5074,-0.5933,-0.5517,-0.5182,-0.4955,-0.5214,-0.5424,-0.5584,-0.5383,-0.5664,-0.6341,-0.6676,-0.7022,-0.7432,-0.8298,-0.8632,-0.8621,-0.8934,-0.9368,-0.9734,-0.9262,-0.8944,-0.8804,-0.8804,-0.9247,-0.9815,-0.9562,-1.0135,-1.0915,-1.0643,-1.0749,-1.104,-1.1435,-1.1569,-1.1617,-1.1838,-1.268,-1.324,-1.2165,-1.2707,-1.3249,-1.2312,-1.2625,-1.2955,-1.2413,-1.318,-1.3783,-1.3248,-1.3302,-1.334,-1.3165,-1.3219,-1.3056,0.0,-1.2362,-1.2584,-1.3268,-1.4384,-1.5246,-1.5602,-1.4868,-1.4635,-1.5219,-1.4315,-1.4125,-1.4993,-1.5268,-1.4991,-1.4128,-1.4164,-1.3683,-1.2618,-1.2437,-1.2329,-1.2329,-1.2175,-1.2101,-1.2101,-1.2239,-1.268,-1.3305,-1.3433,-1.3987,-1.4812,-1.4881,-1.5368,-1.6119,-1.6168,-1.6557,-1.7149,-1.7403,-1.7647,-1.7863,-0.2884,-0.2897,-0.2755,-0.228,-0.2537,-0.2915,-0.3293,-0.4133,-0.4637,-0.4473,-0.5084,-0.5583,-0.564,-0.5426,-0.5334,-0.5388,-0.5135,-0.5028,-0.5136,-0.5002,-0.5428,-0.6536,-0.6045,-0.6079,-0.6801,-0.6531,-0.6174,-0.5753,-0.5942,-0.6064,-0.6131,-0.5712,-0.5963,-0.6802,-0.7134,-0.7528,-0.7992,-0.923,-0.9372,-0.8799,-0.9195,-0.9655,-1.0062,-0.9757,-0.9342,-0.8938,-0.8998,-0.937,-0.9857,-0.9967,-1.0428,-1.095,-1.0946,-1.0962,-1.1091,-1.1469,-1.1578,-1.1653,-1.2002,-1.2772,-1.3286,-1.2505,-1.29,-1.3277,-1.2487,-1.2716,-1.2946,-1.2422,-1.3167,-1.3791,-1.3424,-1.335,-1.3386,-1.3506,-1.3074,-1.2464,0.0,-1.1742,-1.199,-1.2528,-1.3794,-1.4811,-1.5246,-1.4749,-1.4515,-1.486,-1.3951,-1.3758,-1.4617,-1.4859,-1.4607,-1.3782,-1.3826,-1.337,-1.2312,-1.2174,-1.2101,-1.2101,-1.2101,-1.2101,-1.2101,-1.2248,-1.268,-1.3305,-1.3442,-1.3965,-1.4744,-1.4992,-1.5423,-1.5936,-1.6211,-1.656,-1.6938,-1.7189,-1.7461,-1.7718,-0.3981,-0.3924,-0.3575,-0.2675,-0.3079,-0.3806,-0.4596,-0.4945,-0.5052,-0.4928,-0.5064,-0.5245,-0.5475,-0.5344,-0.5306,-0.5491,-0.5327,-0.5166,-0.5063,-0.5513,-0.6132,-0.6965,-0.7184,-0.7494,-0.7937,-0.7727,-0.7236,-0.6474,-0.6686,-0.6696,-0.6443,-0.6264,-0.6564,-0.7314,-0.7939,-0.8481,-0.9047,-1.0719,-1.0782,-0.9735,-0.9725,-0.9928,-1.0226,-1.0408,-0.9959,-0.9301,-0.9409,-0.9354,-0.9369,-1.0307,-1.0715,-1.0925,-1.1559,-1.1903,-1.2031,-1.2056,-1.2081,-1.214,-1.2165,-1.2468,-1.2772,-1.2735,-1.2753,-1.2772,-1.2735,-1.2735,-1.2735,-1.2698,-1.3378,-1.4047,-1.4387,-1.4506,-1.4405,-1.4012,-1.3259,-1.2333,-1.117,-1.1637,-1.2135,-1.2246,-1.315,-1.3875,-1.4152,-1.43,-1.4111,-1.3469,-1.3421,-1.3561,-1.3968,-1.3961,-1.3933,-1.3961,-1.354,-1.3139,-1.2698,-1.2303,-1.2101,-1.2101,-1.2101,-1.211,-1.2147,-1.2523,-1.2937,-1.3341,-1.3717,-1.437,-1.5102,-1.512,-1.5597,-1.6288,-1.6306,-1.6578,-1.6908,-1.6908,-1.7339,-1.8037,-0.4176,-0.4308,-0.4414,-0.4295,-0.4253,-0.4392,-0.4783,-0.4982,-0.5127,-0.5269,-0.5833,-0.6348,-0.6642,-0.6889,-0.7049,-0.7097,-0.6931,-0.6931,-0.7265,-0.6889,-0.7234,-0.8481,-0.7744,-0.768,-0.8471,-0.7909,-0.757,-0.7525,-0.7043,-0.6975,-0.7279,-0.7139,-0.711,-0.7204,-0.809,-0.8316,-0.8142,-0.9757,-1.0923,-1.1684,-1.1639,-1.1669,-1.1699,-1.1401,-1.0947,-1.0439,-1.0212,-0.9858,-0.9542,-0.9788,-0.9784,-0.9673,-0.9831,-1.0419,-1.1154,-1.1546,-1.2008,-1.2467,-1.2868,-1.3497,-1.3892,-1.3314,-1.3589,-1.3882,-1.3268,-1.3387,-1.3424,-1.2817,-1.3828,-1.4543,-1.3754,-1.4341,-1.4818,-1.4414,-1.3662,-1.3037,-1.2726,-1.2342,-1.2326,-1.2933,-1.3306,-1.3562,-1.3738,-1.4052,-1.4146,-1.3877,-1.3526,-1.3491,-1.3886,-1.4179,-1.4077,-1.3495,-1.3654,-1.3415,-1.2698,-1.2303,-1.2101,-1.2101,-1.2101,-1.2257,-1.2542,-1.2643,-1.3084,-1.3736,-1.3865,-1.437,-1.512,-1.5414,-1.5845,-1.6349,-1.6642,-1.6817,-1.6908,-1.6908,-1.7003,-1.721,-0.449,-0.4779,-0.5154,-0.5659,-0.5654,-0.562,-0.5723,-0.5639,-0.5718,-0.6125,-0.6643,-0.7035,-0.7215,-0.7646,-0.7883,-0.7763,-0.765,-0.7683,-0.7894,-0.7742,-0.7975,-0.8705,-0.8311,-0.8229,-0.8507,-0.8124,-0.7913,-0.7901,-0.7406,-0.7303,-0.7602,-0.7312,-0.7316,-0.7623,-0.8671,-0.9139,-0.9261,-1.0509,-1.1395,-1.2014,-1.1987,-1.1927,0.0,-1.1566,-1.1296,-1.1107,-1.1196,-1.0883,-1.0509,-1.1111,-1.09,-1.0407,-1.0596,-1.0791,-1.1005,-1.1174,-1.159,-1.2136,-1.2904,-1.3453,-1.3817,-1.3806,-1.4029,-1.4121,-1.3653,-1.3589,-1.3525,-1.3056,-1.3671,-1.4212,-1.3882,-1.4093,-1.424,-1.4011,-1.3598,-1.3231,-1.3066,-1.2652,-1.2404,-1.2489,-1.3188,-1.3387,-1.2751,-1.3374,-1.3819,-1.3736,-1.3711,-1.3853,-1.4195,-1.4487,-1.4382,-1.3837,-1.3543,-1.3249,-1.2964,-1.2386,-1.2101,-1.2101,-1.2101,-1.2312,-1.2698,-1.2882,-1.3314,-1.3929,-1.4258,-1.4772,-1.5386,-1.5799,-1.6202,-1.6597,-1.6817,-1.6908,-1.6908,-1.6908,-1.6908,-1.6908,-0.5173,-0.5517,-0.5963,-0.6788,-0.7078,-0.7216,-0.7164,-0.6764,-0.6683,-0.7249,-0.7516,-0.7645,-0.7669,-0.8142,-0.8374,-0.8152,-0.8137,-0.8098,-0.8047,-0.8455,-0.864,-0.8525,-0.889,-0.8884,-0.8427,-0.8357,-0.8231,-0.8003,-0.7739,-0.7595,-0.7583,-0.7276,-0.7477,-0.8194,-0.9361,-1.0344,-1.1219,-1.1807,-1.1906,-1.1678,-1.1627,-1.1519,-1.1388,-1.1426,-1.1431,-1.1523,-1.2153,-1.1997,-1.1696,-1.2966,-1.2725,-1.2006,-1.2346,-1.2063,-1.1538,-1.13,-1.14,-1.178,-1.2734,-1.2915,-1.3079,-1.4019,-1.3988,-1.3717,-1.3717,-1.3476,-1.3259,-1.3259,-1.336,-1.3653,-1.4313,-1.3855,-1.3351,-1.3305,-1.3332,-1.3231,-1.2836,-1.2863,0.0,-1.1697,-1.2994,0.0,-1.1592,-1.2676,-1.3406,-1.325,-1.3661,-1.4041,-1.4339,-1.446,-1.4477,-1.4414,-1.336,-1.2946,-1.3286,-1.2505,-1.2128,-1.2174,-1.2174,-1.2413,-1.2863,-1.3231,-1.3644,-1.4113,-1.479,-1.5359,-1.5799,-1.6166,-1.6551,-1.6908,-1.6908,-1.6908,-1.6908,-1.6908,-1.6908,-1.6908,-0.7164,-0.7338,-0.7446,-0.7584,-0.8045,-0.8551,-0.8949,-0.8448,-0.8017,-0.8009,-0.8567,-0.9018,-0.9127,-0.9617,-0.9921,-0.9875,-0.9875,-0.9851,-0.9852,-0.9734,-0.9637,-0.963,-0.9287,-0.9053,-0.8963,-0.8752,-0.8614,-0.8572,-0.7921,-0.7595,-0.7608,-0.8036,-0.8084,-0.7942,-0.951,-1.0738,-1.1581,-1.1313,-1.1788,-1.2695,-1.2319,-1.2024,-1.1818,-1.2043,-1.2122,-1.2192,-1.2626,-1.2228,-1.1616,-1.2414,-1.2409,-1.2076,-1.2157,-1.2609,-1.3118,-1.3059,-1.3084,-1.3143,-1.3331,-1.2978,-1.2623,-1.281,-1.2799,-1.2758,-1.2758,-1.2852,-1.2975,-1.2975,-1.368,-1.424,-1.4029,-1.3873,-1.37,-1.3351,-1.3571,-1.3644,-1.3241,-1.3763,-1.3635,0.0,-1.3119,-1.3135,-1.1185,-1.2748,-1.3451,-1.2405,-1.2425,-1.2632,-1.3004,-1.3049,-1.3348,-1.3994,-1.347,-1.3222,-1.3296,-1.2505,-1.2266,-1.2588,-1.2588,-1.2974,-1.37,-1.3773,-1.4214,-1.4891,-1.5038,-1.5524,-1.6211,-1.6251,-1.6551,-1.6908,-1.6908,-1.6908,-1.6908,-1.6908,-1.6908,-1.6908,-0.7855,-0.8096,-0.8425,-0.8893,-0.9297,-0.975,-1.0434,-1.0241,-0.9845,-0.9349,-0.959,-0.9851,-0.9895,-1.039,-1.0647,-1.0509,-1.0496,-1.0387,-1.0212,-1.0248,-1.0081,-0.9721,-0.9582,-0.9384,-0.9101,-0.871,-0.8638,-0.8909,-0.7891,-0.7628,-0.812,-0.7769,-0.7736,-0.8031,-0.9743,-1.086,-1.1484,-1.2123,-1.2244,-1.2022,-1.2655,-1.2722,-1.2422,-1.2422,-1.2196,-1.2014,-1.2873,-1.2468,-1.1613,-1.2276,-1.2182,-1.176,-1.1622,-1.1979,-1.2427,-1.2283,-1.2354,-1.2528,-1.2887,-1.2489,-1.2058,-1.242,-1.2512,-1.2512,-1.2512,-1.2597,-1.2693,-1.2693,-1.284,-1.2851,-1.26,-1.2894,-1.3192,-1.3296,-1.3626,-1.392,-1.3919,-1.4075,-1.3736,-1.2551,0.0,0.0,-1.1366,-1.2501,-1.29,-1.1927,-1.2282,-1.2635,-1.2751,-1.2811,-1.3176,-1.3874,-1.3085,-1.2891,-1.3286,-1.2716,-1.2615,-1.302,-1.3222,-1.3755,-1.4515,-1.4515,-1.4845,-1.5414,-1.5634,-1.5955,-1.6331,-1.6541,-1.6734,-1.6908,-1.6908,-1.6908,-1.6908,-1.6908,-1.6908,-1.6881,-0.8555,-0.8801,-0.9272,-1.0147,-1.0406,-1.066,-1.1179,-1.1459,-1.1351,-1.0563,-1.046,-1.046,-1.046,-1.0864,-1.1027,-1.0785,-1.0743,-1.0586,-1.0315,-1.055,-1.0459,-0.9871,-0.9937,-0.9763,-0.9275,-0.8866,-0.877,-0.9011,-0.8003,-0.7846,-0.8428,-0.7736,-0.7911,-0.8868,-1.0189,-1.1079,-1.168,-1.2852,-1.2637,-1.1638,-1.289,-1.3144,-1.2777,-1.2591,-1.2174,-1.1849,-1.2926,-1.2612,-1.1756,-1.2151,-1.2027,-1.168,-1.1458,-1.1555,-1.168,-1.145,-1.144,-1.1608,-1.2151,-1.1818,-1.1452,-1.1965,-1.2112,-1.2112,-1.2112,-1.2212,-1.2297,-1.2297,-1.1939,-1.1551,-1.1292,-1.1752,-1.2344,-1.2806,-1.3204,-1.3596,-1.3927,-1.3782,-1.3314,-1.2413,0.0,0.0,-1.1467,-1.1945,-1.2115,-1.1621,-1.218,-1.2501,-1.2406,-1.2501,-1.288,-1.3617,-1.2643,-1.245,-1.3185,-1.2863,-1.2946,-1.3424,-1.3827,-1.4442,-1.5221,-1.5221,-1.5441,-1.5845,-1.6175,-1.6367,-1.6434,-1.678,-1.6908,-1.6908,-1.6908,-1.6908,-1.6908,-1.6908,-1.6908,-1.6835,-1.0325,-1.0159,-1.0195,-1.0886,-1.1023,-1.088,-1.0478,-1.1401,-1.1866,-1.1135,-1.1039,-1.1039,-1.1039,-1.1081,-1.1099,-1.1075,-1.1069,-1.1051,-1.1015,-1.1045,-1.1033,-1.0966,-1.0497,-1.0124,-0.9835,-0.9781,-0.942,-0.874,-0.862,-0.8343,-0.7975,-0.8906,-0.9984,-1.1189,-1.1034,-1.1712,-1.2885,-1.2371,-1.2575,-1.3241,-1.3041,-1.2792,-1.2525,-1.2496,-1.2451,-1.242,-1.2543,-1.2512,-1.2328,-1.1787,-1.1965,-1.2412,-1.238,-1.2396,-1.2412,-1.238,-1.1973,-1.1514,-1.1577,-1.1146,-1.0688,-1.0776,-1.0776,-1.0776,-1.0776,-1.1209,-1.1608,-1.1608,-1.1828,-1.1856,-1.115,-1.1097,-1.1227,-1.1456,-1.1818,-1.214,-1.23,-1.2606,-1.2367,-1.1214,-1.1104,0.0,-1.0975,-1.103,-1.1186,-1.15,-1.1255,-1.1079,-1.1079,-1.1079,-1.162,-1.2788,-1.2349,-1.2312,-1.2744,-1.2707,-1.3084,-1.3865,-1.4258,-1.4864,-1.5634,-1.5634,-1.5863,-1.6257,-1.627,-1.6523,-1.6853,-1.689,-1.6908,-1.6908,-1.6908,-1.6908,-1.6908,-1.6908,-1.6908,-1.6798,-1.1244,-1.1167,-1.1088,-1.1099,-1.1383,-1.1636,-1.1739,-1.1908,-1.1926,-1.1636,-1.1423,-1.1383,-1.1437,-1.1244,-1.1111,-1.1111,-1.1111,-1.1111,-1.1111,-1.1111,-1.1015,-1.081,-1.0611,-1.0406,-1.0148,-0.9985,-0.9745,-0.9426,-0.9101,-0.8985,-0.9032,-0.9295,-1.0217,-1.1612,-1.1524,-1.189,-1.2594,-1.2384,-1.2382,-1.2479,-1.2522,-1.2514,-1.2512,-1.2512,-1.2235,-1.1934,-1.2358,-1.202,-1.1418,-1.1709,-1.1833,-1.1849,-1.1476,-1.16,-1.1911,-1.1911,-1.1701,-1.1483,-1.1483,-1.1059,-1.0593,-1.0593,-1.0593,-1.0593,-1.0593,-1.0776,-1.0965,-1.0965,-1.0923,-1.0865,-1.0716,-1.069,-1.1047,-1.2104,-1.2406,-1.2644,-1.3131,-1.3121,-1.2891,-1.2404,-1.2119,-1.2064,-1.2321,-1.211,-1.2061,-1.2211,-1.1623,-1.1366,-1.1605,-1.1614,-1.2055,-1.3038,-1.267,-1.2652,-1.3066,-1.3304,-1.3828,-1.4625,-1.5276,-1.5881,-1.6422,-1.6422,-1.6514,-1.667,-1.667,-1.6762,-1.6908,-1.6908,-1.6908,-1.6908,-1.6908,-1.6908,-1.6908,-1.6908,-1.6762,-1.6468,-1.151,-1.1256,-1.116,-1.1516,-1.1896,-1.2276,-1.265,-1.2391,-1.2155,-1.2155,-1.1952,-1.1781,-1.1566,-1.1268,-1.1111,-1.1111,-1.1111,-1.1111,-1.1111,-1.1111,-1.1003,-1.0755,-1.0803,-1.0677,-1.0412,-1.0232,-1.0057,-0.9907,-0.9522,-0.9456,-0.9711,-0.9574,-1.0244,-1.154,-1.1465,-1.1683,-1.2051,-1.2128,-1.2127,-1.2071,-1.2251,-1.25,-1.2743,-1.2391,-1.2023,-1.1709,-1.2065,-1.1632,-1.0968,-1.1625,-1.1704,-1.1426,-1.098,-1.1132,-1.1479,-1.1479,-1.1415,-1.1344,-1.1344,-1.0971,-1.0593,-1.0593,-1.0593,-1.0593,-1.0593,-1.0593,-1.0566,-1.0479,-1.0194,-1.0039,-1.0221,-1.0187,-1.0572,-1.1978,-1.2352,-1.2663,-1.3181,-1.3077,-1.2964,-1.2964,-1.2386,-1.2285,-1.3066,-1.2652,-1.2487,-1.2845,-1.2468,-1.2229,-1.2275,-1.2275,-1.2542,-1.3121,-1.2845,-1.2891,-1.3286,-1.3709,-1.435,-1.5285,-1.5982,-1.6523,-1.6908,-1.6908,-1.6908,-1.6908,-1.6908,-1.6908,-1.6908,-1.6908,-1.6908,-1.6908,-1.6908,-1.6835,-1.6734,-1.6734,-1.6526,-1.6257,-1.1051,-1.025,-1.0196,-1.2318,-1.2693,-1.2699,-1.2705,-1.2699,-1.2693,-1.2693,-1.2693,-1.2288,-1.1232,-1.1111,-1.1111,-1.1111,-1.1111,-1.1111,-1.1111,-1.1111,-1.1105,-1.1105,-1.1105,-1.0985,-1.0683,-1.0677,-1.0418,-0.9907,-0.9901,-0.9763,-0.9504,-0.9841,-1.0419,-1.1182,-1.0798,-1.0922,-1.1405,-1.1412,-1.1913,-1.2661,-1.2468,-1.2797,-1.3273,-1.2131,-1.1826,-1.1952,-1.1631,-1.1483,-1.149,-1.149,-1.149,-1.1498,-1.1397,-1.1416,-1.1416,-1.1416,-1.1209,-1.1022,-1.1022,-1.0807,-1.0593,-1.0593,-1.0593,-1.0593,-1.0593,-1.0593,-1.0506,-1.018,-0.9886,-0.9715,-0.9715,-0.9446,-0.95,-1.0386,-1.1092,-1.1571,-1.1698,-1.1952,-1.2119,-1.2119,-1.1053,-1.0975,-1.2542,-1.1991,-1.2003,-1.3195,-1.3635,-1.3534,-1.2726,-1.2689,-1.2689,-1.2698,-1.2698,-1.2891,-1.3286,-1.3709,-1.4488,-1.5689,-1.6111,-1.6523,-1.6908,-1.6908,-1.6908,-1.6908,-1.6908,-1.6908,-1.6908,-1.6908,-1.6908,-1.6908,-1.6908,-1.667,-1.6321,-1.6321,-1.6288,-1.6257,-1.2174,-1.1932,-1.1914,-1.2584,-1.2705,-1.2705,-1.2705,-1.2705,-1.2705,-1.2705,-1.2705,-1.2572,-1.2234,-1.1878,-1.1811,-1.2161,-1.1528,-1.1268,-1.1603,-1.1317,-1.1111,-1.1111,-1.1111,-1.1069,-1.0985,-1.0985,-1.0816,-1.0436,-1.0436,-1.0541,-1.0741,-1.1013,-1.145,-1.1931,-1.1829,-1.1837,-1.1963,-1.1514,-1.156,-1.1901,-1.1371,-1.1763,-1.2609,-1.2246,-1.2217,-1.241,-1.2299,-1.19,-1.1477,-1.1682,-1.1758,-1.1792,-1.1968,-1.1476,-1.0875,-1.1069,-1.1062,-1.1035,-1.1236,-1.1076,-1.0855,-1.0855,-1.074,-1.0593,-1.0593,-1.0593,-1.0506,-1.018,-1.0047,-0.992,-0.9719,-0.9766,-1.0037,-1.0784,-1.1249,-1.1642,-1.2038,-1.1955,-1.2016,-1.2454,-1.1926,-1.1945,-1.302,-1.2634,-1.2478,-1.2863,-1.325,-1.3488,-1.3525,-1.3772,-1.3671,-1.3139,-1.3635,-1.3855,-1.3727,-1.4634,-1.545,-1.612,-1.6532,-1.6789,-1.6908,-1.6908,-1.6908,-1.6908,-1.6908,-1.6908,-1.689,-1.6615,-1.6505,-1.6443,-1.6193,-1.6001,-1.5927,-1.6211,-1.6138,-1.5909,-1.2705,-1.2705,-1.2705,-1.2705,-1.2705,-1.2705,-1.2705,-1.2705,-1.2705,-1.2705,-1.2705,-1.2705,-1.2705,-1.2409,-1.2349,-1.2674,-1.2095,-1.1769,-1.1874,-1.1787,-1.1594,-1.1329,-1.1383,-1.1333,-1.123,-1.123,-1.1135,-1.0864,-1.0731,-1.0935,-1.1382,-1.1562,-1.1757,-1.2016,-1.2328,-1.2294,-1.1989,-1.1887,-1.1998,-1.224,-1.1722,-1.2131,-1.3021,-1.2861,-1.2782,-1.2733,-1.2649,-1.2064,-1.1422,-1.1637,-1.1703,-1.1737,-1.1917,-1.147,-1.0962,-1.1369,-1.141,-1.1336,-1.1375,-1.1289,-1.1129,-1.1022,-1.0855,-1.0727,-1.062,-1.0593,-1.0539,-1.0321,-1.0107,-0.9933,-0.986,-0.9907,-1.0106,-1.0636,-1.1094,-1.1421,-1.1607,-1.1505,-1.1632,-1.2128,-1.2106,-1.2292,-1.3011,-1.3121,-1.3148,-1.3148,-1.3516,-1.3855,-1.4112,-1.4222,-1.4112,-1.3763,-1.4093,-1.4368,-1.4561,-1.5313,-1.5973,-1.6541,-1.6642,-1.6606,-1.645,-1.645,-1.645,-1.645,-1.645,-1.645,-1.6431,-1.6184,-1.6083,-1.6074,-1.5964,-1.5826,-1.5744,-1.6156,-1.6147,-1.5964,-1.2705,-1.2705,-1.2705,-1.2705,-1.2705,-1.2705,-1.2705,-1.2705,-1.2705,-1.2705,-1.2705,-1.2705,-1.2705,-1.2705,-1.2705,-1.2705,-1.2705,-1.2493,-1.2005,-1.2397,-1.2379,-1.1803,-1.1872,-1.1784,-1.1525,-1.1519,-1.1419,-1.1216,-1.0967,-1.1091,-1.1641,-1.1641,-1.1641,-1.1676,-1.2434,-1.2332,-1.1703,-1.2434,-1.2993,-1.3417,-1.3234,-1.3625,-1.4307,-1.3874,-1.3472,-1.307,-1.2809,-1.2196,-1.1455,-1.1455,-1.1455,-1.1455,-1.1455,-1.1455,-1.1555,-1.2118,-1.2084,-1.1852,-1.1557,-1.1435,-1.1355,-1.1122,-1.1022,-1.0922,-1.068,-1.0606,-1.0586,-1.0566,-1.0124,-0.9786,-0.9983,-0.9866,-0.9793,-1.0047,-1.0613,-1.0901,-1.0537,-1.0816,-1.1107,-1.1328,-1.1688,-1.2149,-1.2673,-1.3396,-1.3819,-1.3791,-1.4176,-1.4385,-1.4387,-1.4066,-1.4075,-1.4497,-1.4212,-1.4579,-1.568,-1.5716,-1.6101,-1.6817,-1.645,-1.6065,-1.5689,-1.5689,-1.5689,-1.5689,-1.5689,-1.5707,-1.5735,-1.5698,-1.5707,-1.5771,-1.6138,-1.6037,-1.5744,-1.6156,-1.6288,-1.6288,-1.2705,-1.2705,-1.2705,-1.2705,-1.2705,-1.2705,-1.2705,-1.2705,-1.2705,-1.2705,-1.2705,-1.2705,-1.2705,-1.2705,-1.2705,-1.2705,-1.2705,-1.265,-1.253,-1.2264,-1.221,-1.2445,-1.2246,-1.2029,-1.1796,-1.179,-1.1965,-1.2329,-1.2257,-1.2483,-1.3014,-1.3014,-1.3014,-1.3014,-1.3236,-1.32,-1.3049,-1.3236,-1.3423,-1.3633,-1.3597,-1.4109,-1.4974,-1.5018,-1.4596,-1.3991,-1.4077,-1.3264,-1.2091,-1.2091,-1.2091,-1.2091,-1.2091,-1.2091,-1.2078,-1.1997,-1.196,-1.194,-1.2051,-1.1931,-1.1785,-1.1712,-1.1323,-1.0975,-1.0909,-1.0754,-1.0526,-1.0267,-1.0107,-0.99,-0.9491,-0.973,-0.9967,-0.9813,-1.0093,-1.0366,-1.0473,-1.1023,-1.148,-1.1738,-1.2209,-1.2686,-1.3112,-1.3056,-1.2854,-1.2551,-1.3176,-1.3442,-1.3148,-1.3626,-1.4075,-1.4497,-1.5313,-1.5725,-1.5689,-1.601,-1.6101,-1.5973,-1.5881,-1.578,-1.5689,-1.5689,-1.5689,-1.5689,-1.5689,-1.5872,-1.6147,-1.5817,-1.5881,-1.6147,-1.5927,-1.578,-1.5744,-1.6156,-1.6288,-1.6325,-1.2705,-1.2705,-1.2705,-1.2705,-1.2705,-1.2705,-1.2705,-1.2705,-1.2705,-1.2705,-1.2705,-1.2705,-1.2705,-1.2705,-1.2705,-1.2705,-1.2705,-1.2705,-1.2705,-1.2439,-1.2409,-1.2693,-1.2524,-1.2318,-1.2107,-1.206,-1.2169,-1.2323,-1.244,-1.2782,-1.3292,-1.3189,-1.3126,-1.3156,-1.3492,-1.339,-1.2989,-1.3542,-1.376,-1.3753,-1.3861,-1.4266,-1.4804,-1.4903,-1.4545,-1.3934,-1.407,-1.3564,-1.2806,-1.2409,-1.2556,-1.2776,-1.2409,-1.2305,-1.2271,-1.2118,-1.2064,-1.2107,-1.2098,-1.2084,-1.2037,-1.194,-1.1665,-1.1356,-1.1223,-1.1069,-1.0875,-1.0575,-1.0408,-1.018,-0.9697,-0.987,-1.0037,-0.9907,-1.0013,-1.0151,-1.03,-1.0783,-1.1213,-1.1424,-1.2121,-1.2707,-1.3002,-1.3001,-1.2891,-1.2645,-1.2891,-1.3185,-1.3488,-1.3928,-1.4442,-1.5029,-1.5689,-1.601,-1.5973,-1.601,-1.5826,-1.5423,-1.5423,-1.5322,-1.5148,-1.5148,-1.5249,-1.5423,-1.5423,-1.5652,-1.601,-1.578,-1.5826,-1.6028,-1.5991,-1.5973,-1.6028,-1.6441,-1.6587,-1.6615,-1.2705,-1.2705,-1.2705,-1.2705,-1.2705,-1.2705,-1.2705,-1.2705,-1.2705,-1.2705,-1.2705,-1.2705,-1.2705,-1.2705,-1.2705,-1.2705,-1.2705,-1.2705,-1.2705,-1.2705,-1.2705,-1.2705,-1.2705,-1.2602,-1.2379,-1.2373,-1.2281,-1.2141,-1.2382,-1.2756,-1.3278,-1.3067,-1.2952,-1.2977,-1.3659,-1.3462,-1.2729,-1.3763,-1.4129,-1.4019,-1.421,-1.4312,-1.4421,-1.4457,-1.4122,-1.3601,-1.3587,-1.3499,-1.3272,-1.2532,-1.2732,-1.3208,-1.2519,-1.2305,-1.2305,-1.2305,-1.2305,-1.2245,-1.2004,-1.2118,-1.2245,-1.2033,-1.194,-1.1826,-1.149,-1.1362,-1.1242,-1.0982,-1.0767,-1.0512,-1.0234,-1.018,-1.0211,-1.0302,-1.0241,-1.0198,-1.0242,-1.0616,-1.0933,-1.1056,-1.199,-1.2706,-1.2939,-1.324,-1.3415,-1.3479,-1.3167,-1.3461,-1.4543,-1.4607,-1.4937,-1.567,-1.5753,-1.59,-1.6138,-1.578,-1.5404,-1.501,-1.501,-1.4864,-1.4607,-1.4607,-1.4818,-1.5194,-1.5194,-1.5414,-1.578,-1.578,-1.5817,-1.5909,-1.6266,-1.6379,-1.645,-1.678,-1.6908,-1.6908,-1.2705,-1.2705,-1.2705,-1.2705,-1.2705,-1.2705,-1.2705,-1.2705,-1.2705,-1.2705,-1.2705,-1.2705,-1.2705,-1.2705,-1.2705,-1.2705,-1.2705,-1.2705,-1.2705,-1.2705,-1.2705,-1.2705,-1.2705,-1.2687,-1.2644,-1.2644,-1.2841,-1.3249,-1.329,-1.3574,-1.4123,-1.4253,-1.4193,-1.409,-1.4528,-1.4544,-1.4267,-1.4621,-1.4858,-1.4973,-1.5011,-1.505,-1.5088,-1.5263,-1.4774,-1.3983,-1.3892,-1.3459,-1.2866,-1.2422,-1.2378,-1.2445,-1.2335,-1.2305,-1.2305,-1.2305,-1.2305,-1.2291,-1.2245,-1.2265,-1.2291,-1.2245,-1.2087,-1.1826,-1.149,-1.1236,-1.0982,-1.072,-1.0626,-1.0579,-1.0533,-1.0519,-1.0676,-1.1193,-1.0864,-1.0619,-1.0903,-1.1404,-1.1754,-1.1903,-1.2655,-1.3451,-1.4138,-1.3956,-1.3937,-1.4295,-1.4268,-1.446,-1.4983,-1.501,-1.5221,-1.567,-1.6037,-1.5918,-1.5294,-1.5221,-1.4992,-1.4607,-1.4607,-1.4744,-1.501,-1.501,-1.5221,-1.5597,-1.5597,-1.5835,-1.6221,-1.6221,-1.6413,-1.6725,-1.6789,-1.6817,-1.6817,-1.689,-1.6908,-1.6908,-1.2705,-1.2705,-1.2705,-1.2705,-1.2705,-1.2705,-1.2705,-1.2705,-1.2705,-1.2705,-1.2705,-1.2705,-1.2705,-1.2705,-1.2705,-1.2705,-1.2705,-1.2705,-1.2705,-1.2705,-1.2705,-1.2705,-1.2705,-1.2705,-1.2705,-1.2833,-1.2983,-1.3056,-1.3682,-1.4028,-1.413,-1.4125,-1.4327,-1.467,-1.4352,-1.4155,-1.4063,-1.4382,-1.4318,-1.3974,-1.4091,-1.413,-1.413,-1.424,-1.3974,-1.3613,-1.3539,-1.3554,-1.3526,-1.2986,-1.3047,-1.33,-1.2901,-1.2672,-1.2583,-1.2583,-1.2425,-1.2305,-1.2305,-1.2305,-1.2305,-1.2305,-1.2204,-1.2064,-1.1931,-1.1797,-1.157,-1.1122,-1.1022,-1.0929,-1.0646,-1.1033,-1.1432,-1.1481,-1.1569,-1.1665,-1.1821,-1.2182,-1.2451,-1.251,-1.3171,-1.3754,-1.413,-1.4002,-1.4057,-1.4478,-1.4515,-1.468,-1.5084,-1.5102,-1.5285,-1.568,-1.567,-1.5487,-1.5102,-1.4891,-1.4799,-1.4827,-1.4827,-1.5038,-1.5414,-1.5414,-1.5634,-1.6028,-1.6028,-1.6257,-1.6633,-1.6633,-1.6743,-1.6908,-1.6908,-1.6908,-1.6908,-1.6908,-1.6908,-1.6908,-1.2705,-1.2705,-1.2705,-1.2705,-1.2705,-1.2705,-1.2705,-1.2705,-1.2705,-1.2705,-1.2705,-1.2705,-1.2705,-1.2705,-1.2705,-1.2705,-1.2705,-1.2705,-1.2705,-1.2705,-1.2705,-1.2705,-1.2705,-1.2705,-1.2705,-1.2881,-1.2924,-1.2705,-1.3591,-1.3886,-1.3704,-1.362,-1.3878,-1.4423,-1.381,-1.3547,-1.3494,-1.3853,-1.3667,-1.3085,-1.3246,-1.3333,-1.3414,-1.3414,-1.3414,-1.3407,-1.334,-1.3651,-1.4052,-1.3418,-1.3581,-1.3952,-1.3397,-1.3046,-1.2891,-1.2891,-1.2677,-1.2429,-1.2539,-1.2592,-1.2519,-1.2342,-1.2305,-1.2285,-1.2218,-1.2344,-1.2296,-1.1806,-1.1826,-1.1815,-1.1385,-1.1872,-1.2317,-1.2231,-1.2508,-1.2821,-1.2977,-1.308,-1.3122,-1.3181,-1.3618,-1.3948,-1.402,-1.4029,-1.4203,-1.4616,-1.4653,-1.4827,-1.5221,-1.5148,-1.5194,-1.5414,-1.5212,-1.5102,-1.5102,-1.4799,-1.4845,-1.5239,-1.5239,-1.545,-1.5835,-1.5835,-1.6065,-1.6425,-1.6425,-1.6624,-1.6908,-1.6908,-1.6908,-1.6908,-1.6908,-1.6908,-1.6908,-1.6908,-1.6908,-1.6908,-1.2705,-1.2705,-1.2705,-1.2705,-1.2705,-1.2705,-1.2705,-1.2705,-1.2705,-1.2705,-1.2705,-1.2705,-1.2705,-1.2705,-1.2705,-1.2705,-1.2705,-1.2705,-1.2705,-1.2705,-1.2705,-1.2705,-1.2705,-1.2705,-1.2705,-1.2705,-1.2705,-1.2705,-1.279,-1.2833,-1.279,-1.3027,-1.3063,-1.2881,-1.325,-1.3292,-1.3159,-1.337,-1.3545,-1.363,-1.3672,-1.3805,-1.4021,-1.4021,-1.4021,-1.3988,-1.3666,-1.3607,-1.3608,-1.33,-1.3246,-1.3286,-1.3206,-1.32,-1.3173,-1.3173,-1.2998,-1.2879,-1.3287,-1.3426,-1.3244,-1.2482,-1.2305,-1.2231,-1.2,-1.2459,-1.2879,-1.257,-1.306,-1.3486,-1.3413,-1.3194,-1.3308,-1.4227,-1.3893,-1.3769,-1.4425,-1.4126,-1.3888,-1.4013,-1.3939,-1.4038,-1.4433,-1.4469,-1.4634,-1.5029,-1.5056,-1.523,-1.5625,-1.5294,-1.4946,-1.4607,-1.4928,-1.5102,-1.5102,-1.5074,-1.5258,-1.5643,-1.5643,-1.5863,-1.6276,-1.6276,-1.6486,-1.6862,-1.6862,-1.6881,-1.6908,-1.6908,-1.6908,-1.6908,-1.6908,-1.6908,-1.6908,-1.6908,-1.6908,-1.6908,-1.2705,-1.2705,-1.2705,-1.2705,-1.2705,-1.2705,-1.2705,-1.2705,-1.2705,-1.2705,-1.2705,-1.2705,-1.2705,-1.2705,-1.2705,-1.2705,-1.2705,-1.2705,-1.2705,-1.2705,-1.2705,-1.2705,-1.2705,-1.2705,-1.2705,-1.2705,-1.2705,-1.2705,-1.3245,-1.3499,-1.3499,-1.3626,-1.3922,-1.4342,-1.3964,-1.3802,-1.3893,-1.3977,-1.3808,-1.3519,-1.3519,-1.3568,-1.3652,-1.3652,-1.3737,-1.3851,-1.3703,-1.3789,-1.3985,-1.4433,-1.4193,-1.383,-1.4391,-1.4062,-1.3521,-1.3787,-1.379,-1.3743,-1.3731,-1.3241,-1.2666,-1.2378,-1.2305,-1.2382,-1.2804,-1.2711,-1.262,-1.2828,-1.3065,-1.321,-1.3013,-1.3773,-1.4428,-1.4324,-1.4449,-1.4539,-1.456,-1.4198,-1.4007,-1.4317,-1.4302,-1.4433,-1.4836,-1.4873,-1.5038,-1.5432,-1.546,-1.5423,-1.5331,-1.5184,-1.5029,-1.4882,-1.5258,-1.5349,-1.5102,-1.534,-1.567,-1.6074,-1.6074,-1.6285,-1.6679,-1.6679,-1.6771,-1.6908,-1.6908,-1.6908,-1.6908,-1.6908,-1.6908,-1.6908,-1.6908,-1.6908,-1.6908,-1.6908,-1.6908,-1.6908,-1.2705,-1.2705,-1.2705,-1.2705,-1.2705,-1.2705,-1.2705,-1.2705,-1.2705,-1.2705,-1.2705,-1.2705,-1.2705,-1.2856,-1.2886,-1.2717,-1.2813,-1.2825,-1.2711,-1.2705,-1.2705,-1.2705,-1.2705,-1.2705,-1.2705,-1.2705,-1.2705,-1.2705,-1.3288,-1.3584,-1.3584,-1.3584,-1.3922,-1.451,-1.388,-1.3669,-1.3886,-1.3886,-1.3639,-1.3307,-1.3307,-1.3355,-1.3398,-1.3398,-1.3483,-1.361,-1.361,-1.3737,-1.3997,-1.465,-1.465,-1.4489,-1.5186,-1.5042,-1.4662,-1.4979,-1.4995,-1.4907,-1.4682,-1.4042,-1.3229,-1.2493,-1.2305,-1.2445,-1.2989,-1.3062,-1.31,-1.3454,-1.3894,-1.414,-1.3833,-1.4782,-1.5437,-1.4868,-1.5182,-1.5432,-1.5285,-1.4909,-1.4753,-1.5047,-1.4955,-1.4937,-1.5084,-1.5212,-1.5349,-1.5487,-1.5615,-1.557,-1.5294,-1.5285,-1.5285,-1.5285,-1.568,-1.5753,-1.5487,-1.5753,-1.6092,-1.6505,-1.6505,-1.6642,-1.6908,-1.6908,-1.6908,-1.6908,-1.6908,-1.6908,-1.6908,-1.6908,-1.6908,-1.6908,-1.6908,-1.6908,-1.6908,-1.6908,-1.6908,-1.6908,-1.2705,-1.2705,-1.2705,-1.2705,-1.2705,-1.2705,-1.2705,-1.2711,-1.2717,-1.2717,-1.2711,-1.2711,-1.2711,-1.3194,-1.3296,-1.2759,-1.2999,-1.3053,-1.2735,-1.2711,-1.2711,-1.2705,-1.2705,-1.2705,-1.2705,-1.2705,-1.2705,-1.2705,-1.2705,-1.2705,-1.2705,-1.2705,-1.2705,-1.2705,-1.2705,-1.2705,-1.2705,-1.2705,-1.2833,-1.3094,-1.3094,-1.3222,-1.3392,-1.3392,-1.3398,-1.3398,-1.3398,-1.3398,-1.344,-1.3652,-1.4265,-1.5039,-1.5311,-1.5966,-1.6698,-1.6698,-1.65,-1.6309,-1.6301,-1.6045,-1.5225,-1.2891,-1.2305,-1.2305,-1.2342,-1.3528,-1.4601,-1.4601,-1.5824,-1.6789,-1.6361,-1.6288,-1.6288,-1.6288,-1.6288,-1.645,-1.6844,-1.656,-1.6312,-1.6312,-1.5945,-1.5533,-1.5139,-1.546,-1.5524,-1.5129,-1.5469,-1.5689,-1.5689,-1.5689,-1.5689,-1.5689,-1.6101,-1.6288,-1.6288,-1.6288,-1.6523,-1.6908,-1.6908,-1.6908,-1.6908,-1.6908,-1.6908,-1.6908,-1.6908,-1.6908,-1.6908,-1.6908,-1.6908,-1.6908,-1.6908,-1.6908,-1.6908,-1.6908,-1.6908,-1.6908,-1.2753,-1.2705,-1.2705,-1.2705,-1.2705,-1.2705,-1.2705,-1.3338,-1.3821,-1.3821,-1.3501,-1.332,-1.3441,-1.3604,-1.3586,-1.3296,-1.333,-1.3393,-1.3284,-1.3272,-1.3194,-1.3006,-1.2813,-1.2705,-1.2705,-1.2705,-1.2705,-1.2705,-1.2705,-1.2705,-1.2705,-1.2705,-1.2705,-1.2705,-1.2705,-1.2705,-1.2705,-1.2705,-1.2747,-1.2833,-1.2833,-1.2875,-1.2918,-1.2918,-1.3052,-1.3179,-1.3179,-1.3264,-1.3519,-1.4174,-1.4174,-1.3935,-1.4146,-1.4803,-1.5538,-1.5711,-1.6178,-1.6532,-1.6365,-1.6221,-1.5856,-1.4636,-1.4319,-1.4405,-1.4701,-1.4673,-1.4744,-1.533,-1.5798,-1.6088,-1.5974,-1.6372,-1.6642,-1.6358,-1.6288,-1.6257,-1.6074,-1.5955,-1.5881,-1.5881,-1.5762,-1.5643,-1.5524,-1.5615,-1.5643,-1.5524,-1.5625,-1.5689,-1.5689,-1.5973,-1.6129,-1.6129,-1.6523,-1.6734,-1.6734,-1.6734,-1.6789,-1.6908,-1.6908,-1.6908,-1.6908,-1.6908,-1.6908,-1.6908,-1.6908,-1.6908,-1.6908,-1.6908,-1.6908,-1.6908,-1.6908,-1.6908,-1.6908,-1.6908,-1.6908,-1.6908,-1.3055,-1.3194,-1.3332,-1.3332,-1.3332,-1.3332,-1.3332,-1.3882,-1.425,-1.4111,-1.3815,-1.3634,-1.367,-1.3767,-1.3743,-1.3538,-1.3513,-1.3513,-1.3513,-1.3513,-1.3441,-1.329,-1.3115,-1.2922,-1.2705,-1.2705,-1.2705,-1.2705,-1.2705,-1.2705,-1.2705,-1.2705,-1.2705,-1.2705,-1.2705,-1.2705,-1.2705,-1.2705,-1.2705,-1.2705,-1.2705,-1.2705,-1.2705,-1.2705,-1.279,-1.2924,-1.2924,-1.3009,-1.3215,-1.3837,-1.4006,-1.4013,-1.4461,-1.5247,-1.5992,-1.6131,-1.6862,-1.7552,-1.7414,-1.7434,-1.7322,-1.6729,-1.6017,-1.5517,-1.574,-1.5538,-1.5466,-1.5941,-1.6148,-1.6228,-1.6228,-1.6586,-1.6826,-1.6587,-1.6551,-1.6459,-1.6211,-1.6166,-1.6166,-1.6166,-1.6166,-1.6111,-1.5955,-1.6083,-1.6166,-1.6166,-1.6166,-1.6166,-1.6166,-1.6413,-1.6551,-1.6551,-1.678,-1.6908,-1.6908,-1.6908,-1.6908,-1.6908,-1.6908,-1.6908,-1.6908,-1.6908,-1.6908,-1.6908,-1.6908,-1.6908,-1.6908,-1.6908,-1.6908,-1.6908,-1.6908,-1.6908,-1.6908,-1.6908,-1.6908,-1.6908,-1.3507,-1.3948,-1.4298,-1.4298,-1.4298,-1.4298,-1.4298,-1.4298,-1.4183,-1.3863,-1.3821,-1.3767,-1.3604,-1.3797,-1.3845,-1.3604,-1.3586,-1.3586,-1.3586,-1.3586,-1.3574,-1.355,-1.355,-1.3308,-1.2789,-1.2753,-1.2729,-1.2705,-1.2705,-1.2705,-1.2705,-1.2705,-1.2705,-1.2705,-1.2705,-1.2705,-1.2705,-1.2705,-1.2705,-1.2705,-1.2705,-1.2705,-1.2705,-1.2705,-1.2747,-1.2833,-1.2833,-1.2833,-1.2833,-1.3088,-1.3837,-1.4782,-1.5681,-1.6593,-1.7359,-1.7391,-1.8144,-1.8962,-1.9002,-1.9112,-1.917,-1.8852,-1.7428,-1.6075,-1.6018,-1.6275,-1.6545,-1.6545,-1.6759,-1.6963,-1.6963,-1.6927,-1.6908,-1.6908,-1.6908,-1.6908,-1.6908,-1.6908,-1.6908,-1.6908,-1.6908,-1.6771,-1.6404,-1.6697,-1.6908,-1.6908,-1.6908,-1.6908,-1.6908,-1.6908,-1.6908,-1.6908,-1.6908,-1.6908,-1.6908,-1.6908,-1.6908,-1.6908,-1.6908,-1.6908,-1.6908,-1.6908,-1.6908,-1.6908,-1.6908,-1.6908,-1.6908,-1.6908,-1.6908,-1.6908,-1.6908,-1.6908,-1.6908,-1.6908,-1.6908,-1.6908,-1.3688,-1.4032,-1.4298,-1.4298,-1.4298,-1.4298,-1.4298,-1.4298,-1.4268,-1.4195,-1.4183,-1.4171,-1.4129,-1.4177,-1.4189,-1.4129,-1.4129,-1.4129,-1.4129,-1.4129,-1.4039,-1.3833,-1.3821,-1.367,-1.3344,-1.3139,-1.2922,-1.2705,-1.2705,-1.2705,-1.2705,-1.2705,-1.2705,-1.2705,-1.2705,-1.2705,-1.2705,-1.2705,-1.2705,-1.2705,-1.2705,-1.2705,-1.2705,-1.2705,-1.3124,-1.3711,-1.3711,-1.3711,-1.3711,-1.3795,-1.3964,-1.4336,-1.5406,-1.6363,-1.7115,-1.7359,-1.8063,-1.8812,-1.8962,-1.9042,-1.9094,-1.9161,-1.8864,-1.8365,-1.7759,-1.7674,-1.7722,-1.7722,-1.7542,-1.7367,-1.7367,-1.711,-1.6908,-1.6908,-1.6908,-1.6908,-1.6908,-1.6908,-1.6908,-1.6908,-1.6908,-1.6872,-1.6789,-1.6862,-1.6908,-1.6908,-1.6908,-1.6908,-1.6908,-1.6908,-1.6908,-1.6908,-1.6908,-1.6908,-1.6908,-1.6908,-1.6908,-1.6908,-1.6908,-1.6908,-1.6908,-1.6908,-1.6908,-1.6908,-1.6908,-1.6908,-1.6908,-1.6908,-1.6908,-1.6908,-1.6908,-1.6908,-1.6908,-1.6908,-1.6908,-1.6908,-1.3767,-1.4057,-1.4298,-1.4298,-1.4298,-1.4298,-1.4298,-1.4298,-1.4298,-1.4298,-1.4298,-1.4298,-1.4298,-1.4298,-1.4298,-1.4298,-1.4298,-1.4298,-1.4298,-1.4298,-1.4177,-1.3918,-1.3906,-1.3725,-1.3338,-1.3149,-1.3109,-1.3091,-1.3091,-1.3091,-1.3091,-1.3091,-1.3091,-1.3085,-1.2958,-1.2904,-1.2892,-1.2759,-1.2705,-1.2705,-1.2705,-1.2705,-1.2705,-1.2705,-1.3245,-1.3999,-1.3999,-1.43,-1.4678,-1.4678,-1.4678,-1.4761,-1.5379,-1.6165,-1.6862,-1.7025,-1.7772,-1.8563,-1.8683,-1.8763,-1.8922,-1.9112,-1.9152,-1.9082,-1.874,-1.8502,-1.8403,-1.8403,-1.8082,-1.7798,-1.7798,-1.7623,-1.745,-1.745,-1.7321,-1.7183,-1.7183,-1.7027,-1.6908,-1.6908,-1.6908,-1.6908,-1.6908,-1.6908,-1.6908,-1.6908,-1.6908,-1.6908,-1.6908,-1.6908,-1.6908,-1.6908,-1.6908,-1.6908,-1.6908,-1.6908,-1.6908,-1.6908,-1.6908,-1.6908,-1.6908,-1.6908,-1.6908,-1.6908,-1.6908,-1.6908,-1.6908,-1.6908,-1.6908,-1.6908,-1.6908,-1.6908,-1.6908,-1.6908,-1.6908,-1.6908,-1.3815,-1.4032,-1.4244,-1.4292,-1.4298,-1.4298,-1.4298,-1.4298,-1.4298,-1.4298,-1.4298,-1.4298,-1.4298,-1.4298,-1.4298,-1.4298,-1.4298,-1.4298,-1.4298,-1.4298,-1.4201,-1.3978,-1.393,-1.3707,-1.3266,-1.3173,-1.3254,-1.3375,-1.3423,-1.3447,-1.3447,-1.3495,-1.3513,-1.3507,-1.329,-1.3149,-1.3131,-1.294,-1.2843,-1.2843,-1.2843,-1.2843,-1.2843,-1.2843,-1.3365,-1.4079,-1.4079,-1.4552,-1.5186,-1.5352,-1.5394,-1.5436,-1.5767,-1.6337,-1.6903,-1.6903,-1.757,-1.8362,-1.8402,-1.8523,-1.8692,-1.8882,-1.8962,-1.9002,-1.9183,-1.9006,-1.8815,-1.8815,-1.8495,-1.8191,-1.8191,-1.8164,-1.8091,-1.8091,-1.7834,-1.7605,-1.7605,-1.7321,-1.7092,-1.7009,-1.6945,-1.6908,-1.6908,-1.6908,-1.6908,-1.6908,-1.6908,-1.6908,-1.6908,-1.6908,-1.6908,-1.6908,-1.6908,-1.6908,-1.6908,-1.6908,-1.6908,-1.6908,-1.6908,-1.6908,-1.6908,-1.6908,-1.6908,-1.6908,-1.6908,-1.6908,-1.6908,-1.6908,-1.6908,-1.6908,-1.6908,-1.6908,-1.6908,-1.6908,-1.6945,-1.7009,-1.3888,-1.3924,-1.4032,-1.4256,-1.4298,-1.4298,-1.4298,-1.4298,-1.4298,-1.4298,-1.4298,-1.4298,-1.4298,-1.4298,-1.4298,-1.4298,-1.4298,-1.4298,-1.4298,-1.4298,-1.428,-1.4244,-1.4026,-1.3876,-1.3803,-1.3574,-1.3248,-1.2813,-1.3055,-1.3131,-1.3137,-1.3405,-1.3513,-1.3513,-1.3477,-1.3465,-1.3459,-1.3423,-1.3405,-1.3405,-1.3405,-1.3405,-1.3405,-1.3405,-1.378,-1.4329,-1.4329,-1.4298,-1.4294,-1.5144,-1.5394,-1.5643,-1.7172,-1.7749,-1.7829,-1.7829,-1.791,-1.8121,-1.8362,-1.8442,-1.8482,-1.8692,-1.8732,-1.8772,-1.9002,-1.9146,-1.9219,-1.9219,-1.8907,-1.8632,-1.8632,-1.8319,-1.8091,-1.8091,-1.8036,-1.7999,-1.7999,-1.7953,-1.7825,-1.7458,-1.711,-1.6908,-1.6908,-1.6908,-1.6908,-1.6908,-1.6908,-1.6908,-1.6908,-1.6908,-1.6908,-1.6908,-1.6908,-1.6908,-1.6908,-1.6908,-1.6908,-1.6908,-1.6908,-1.6908,-1.6908,-1.6908,-1.6908,-1.6908,-1.6908,-1.6908,-1.6908,-1.6908,-1.6908,-1.6908,-1.6908,-1.6908,-1.6908,-1.6908,-1.7119,-1.7413,-1.4093,-1.4123,-1.4159,-1.428,-1.4298,-1.4298,-1.4298,-1.4298,-1.4298,-1.4298,-1.4298,-1.4298,-1.4298,-1.4298,-1.4298,-1.4298,-1.4298,-1.4298,-1.4298,-1.4298,-1.4232,-1.4087,-1.3966,-1.3839,-1.3688,-1.3574,-1.3399,-1.3157,-1.3284,-1.3417,-1.3562,-1.3525,-1.3865,-1.4447,-1.4123,-1.3977,-1.397,-1.3855,-1.3931,-1.4078,-1.3513,-1.3689,-1.427,-1.3689,-1.4314,-1.5588,-1.669,-1.6642,-1.6214,-1.7167,-1.7514,-1.7641,-1.8414,-1.8519,-1.834,-1.834,-1.8194,-1.804,-1.8161,-1.8201,-1.8241,-1.8482,-1.8531,-1.8612,-1.8812,-1.8891,-1.9042,-1.9262,-1.9164,-1.9045,-1.9045,-1.8898,-1.8779,-1.8779,-1.8595,-1.8449,-1.8449,-1.8228,-1.8017,-1.7871,-1.7688,-1.7587,-1.7587,-1.7587,-1.7587,-1.7587,-1.7587,-1.7587,-1.7587,-1.7587,-1.7587,-1.7587,-1.7587,-1.7587,-1.7587,-1.7587,-1.7587,-1.7587,-1.7587,-1.7458,-1.7238,-1.7238,-1.7367,-1.7587,-1.7587,-1.7449,-1.7238,-1.7238,-1.7101,-1.6908,-1.6908,-1.7037,-1.7238,-1.7238,-1.7495,-1.7844]},{"header":{"parameterUnit":"m.s-1","parameterCategory":1,"la1":30.6,"la2":28.766,"lo1":-90.7593,"lo2":-88.6598,"dy":0.0162,"dx":0.0183,"nx":116,"ny":114,"refTime":"2024-06-18T06:00:00:Z","depth":0,"parameterNumber":3,"parameterNumberName":"V-component_of_WINDS"},"data":[0.0,0.0,0.0,0.0,0.0,0.0,0.0,0.0,0.0,0.0,0.0,0.0,0.0,0.0,0.0,0.0,0.0,0.0,0.0,0.0,0.0,0.0,0.0,0.0,0.0,0.0,0.0,0.0,0.0,0.0,0.0,0.0,0.0,0.0,0.0,0.0,0.0,0.0,0.0,0.0,0.0,0.0,0.0,0.0,0.0,0.0,0.0,0.0,0.0,0.0,0.0,0.0,0.0,0.0,0.0,0.0,0.0,0.0,0.0,0.0,0.0,0.0,0.0,0.0,0.0,0.0,0.0,0.0,0.0,0.0,0.0,0.0,0.0,0.0,0.0,0.0,0.0,0.0,0.0,0.0,0.0,0.0,0.0,0.0,0.0,0.0,0.0,0.0,0.0,0.0,0.0,0.0,0.0,0.0,0.0,0.0,0.0,0.0,0.0,0.0,0.0,0.0,0.0,0.0,0.0,0.0,0.0,0.0,0.0,0.0,0.0,0.0,0.0,0.0,0.0,0.0,0.0,0.0,0.0,0.0,0.0,0.0,0.0,0.0,0.0,0.0,0.0,0.0,0.0,0.0,0.0,0.0,0.0,0.0,0.0,0.0,0.0,0.0,0.0,0.0,0.0,0.0,0.0,0.0,0.0,0.0,0.0,0.0,0.0,0.0,0.0,0.0,0.0,0.0,0.0,0.0,0.0,0.0,0.0,0.0,0.0,0.0,0.0,0.0,0.0,0.0,0.0,0.0,0.0,0.0,0.0,0.0,0.0,0.0,0.0,0.0,0.0,0.0,0.0,0.0,0.0,0.0,0.0,0.0,0.0,0.0,0.0,0.0,0.0,0.0,0.0,0.0,0.0,0.0,0.0,0.0,0.0,0.0,0.0,0.0,0.0,0.0,0.0,0.0,0.0,0.0,0.0,0.0,0.0,0.0,0.0,0.0,0.0,0.0,0.0,0.0,0.0,0.0,0.0,0.0,0.0,0.0,0.0,0.0,0.0,0.0,0.0,0.0,0.0,0.0,0.0,0.0,0.0,0.0,0.0,0.0,0.0,0.0,0.0,0.0,0.0,0.0,0.0,0.0,0.0,0.0,0.0,0.0,0.0,0.0,0.0,0.0,0.0,0.0,0.0,0.0,0.0,0.0,0.0,0.0,0.0,0.0,0.0,0.0,0.0,0.0,0.0,0.0,0.0,0.0,0.0,0.0,0.0,0.0,0.0,0.0,0.0,0.0,0.0,0.0,0.0,0.0,0.0,0.0,0.0,0.0,0.0,0.0,0.0,0.0,0.0,0.0,0.0,0.0,0.0,0.0,0.0,0.0,0.0,0.0,0.0,0.0,0.0,0.0,0.0,0.0,0.0,0.0,0.0,0.0,0.0,0.0,0.0,0.0,0.0,0.0,0.0,0.0,0.0,0.0,0.0,0.0,0.0,0.0,0.0,0.0,0.0,0.0,0.0,0.0,0.0,0.0,0.0,0.0,0.0,0.0,0.0,0.0,0.0,0.0,0.0,0.0,0.0,0.0,0.0,0.0,0.0,0.0,0.0,0.0,0.0,0.0,0.0,0.0,0.0,0.0,0.0,0.0,0.0,0.0,0.0,0.0,0.0,0.0,0.0,0.0,0.0,0.0,0.0,0.0,0.0,0.0,0.0,0.0,0.0,0.0,0.0,0.0,0.0,0.0,0.0,0.0,0.0,0.0,0.0,0.0,0.0,0.0,0.0,0.0,0.0,0.0,0.0,0.0,0.0,0.0,0.0,0.0,0.0,0.0,0.0,0.0,0.0,0.0,0.0,0.0,0.0,0.0,0.0,0.0,0.0,0.0,0.0,0.0,0.0,0.0,0.0,0.0,0.0,0.0,0.0,0.0,0.0,0.0,0.0,0.0,0.0,0.0,0.0,0.0,0.0,0.0,0.0,0.0,0.0,0.0,0.0,0.0,0.0,0.0,0.0,0.0,0.0,0.0,0.0,0.0,0.0,0.0,0.0,0.0,0.0,0.0,0.0,0.0,0.0,0.0,0.0,0.0,0.0,0.0,0.0,0.0,0.0,0.0,0.0,0.0,0.0,0.0,0.0,0.0,0.0,0.0,0.0,0.0,0.0,0.0,0.0,0.0,0.0,0.0,0.0,0.0,0.0,0.0,0.0,0.0,0.0,0.0,0.0,0.0,0.0,0.0,0.0,0.0,0.0,0.0,0.0,0.0,0.0,0.0,0.0,0.0,0.0,0.0,0.0,0.0,0.0,0.0,0.0,0.0,0.0,0.0,0.0,0.0,0.0,0.0,0.0,0.0,0.0,0.0,0.0,0.0,0.0,0.0,0.0,0.0,0.0,0.0,0.0,0.0,0.0,0.0,0.0,0.0,0.0,0.0,0.0,0.0,0.0,0.0,0.0,0.0,0.0,0.0,0.0,0.0,0.0,0.0,0.0,0.0,0.0,0.0,0.0,0.0,0.0,0.0,0.0,0.0,0.0,0.0,0.0,0.0,0.0,0.0,0.0,0.0,0.0,0.0,0.0,0.0,0.0,0.0,0.0,0.0,0.0,0.0,0.0,0.0,0.0,0.0,0.0,0.0,0.0,0.0,0.0,0.0,0.0,0.0,0.0,0.0,0.0,0.0,0.0,0.0,0.0,0.0,0.0,0.0,0.0,0.0,0.0,0.0,0.0,0.0,0.0,0.0,0.0,0.0,0.0,0.0,0.0,0.0,0.0,0.0,0.0,0.0,0.0,0.0,0.0,0.0,0.0,0.0,0.0,0.0,0.0,0.0,0.0,0.0,0.0,0.0,0.0,0.0,0.0,0.0,0.0,0.0,0.0,0.0,0.0,0.0,0.0,0.0,0.0,0.0,0.0,0.0,0.0,0.0,0.0,0.0,0.0,0.0,0.0,0.0,0.0,0.0,0.0,0.0,0.0,0.0,0.0,0.0,0.0,0.0,0.0,0.0,0.0,0.0,0.0,0.0,0.0,0.0,0.0,0.0,0.0,0.0,0.0,0.0,0.0,0.0,0.0,0.0,0.0,0.0,0.0,0.0,0.0,0.0,0.0,0.0,0.0,0.0,0.0,0.0,0.0,0.0,0.0,0.0,0.0,0.0,0.0,0.0,0.0,0.0,0.0,0.0,0.0,0.0,0.0,0.0,0.0,0.0,0.0,0.0,0.0,0.0,0.0,0.0,0.0,0.0,0.0,0.0,0.0,0.0,0.0,0.0,0.0,0.0,0.0,0.0,0.0,0.0,0.0,0.0,0.0,0.0,0.0,0.0,0.0,0.0,0.0,0.0,0.0,0.0,0.0,0.0,0.0,0.0,0.0,0.0,0.0,0.0,0.0,0.0,0.0,0.0,0.0,0.0,0.0,0.0,0.0,0.0,0.0,0.0,0.0,0.0,0.0,0.0,0.0,0.0,0.0,0.0,0.0,0.0,0.0,0.0,0.0,0.0,0.0,0.0,0.0,0.0,0.0,0.0,0.0,0.0,0.0,0.0,0.0,0.0,0.0,0.0,0.0,0.0,0.0,0.0,0.0,0.0,0.0,0.0,0.0,0.0,0.0,0.0,0.0,0.0,0.0,0.0,0.0,0.0,0.0,0.0,0.0,0.0,0.0,0.0,0.0,0.0,0.0,0.0,0.0,0.0,0.0,0.0,0.0,0.0,0.0,0.0,0.0,0.0,0.0,0.0,0.0,0.0,0.0,0.0,0.0,0.0,0.0,0.0,0.0,0.0,0.0,0.0,0.0,0.0,0.0,0.0,0.0,0.0,0.0,0.0,0.0,0.0,0.0,0.0,0.0,0.0,0.0,0.0,0.0,0.0,0.0,0.0,0.0,0.0,0.0,0.0,0.0,0.0,0.0,0.0,0.0,0.0,0.0,0.0,0.0,0.0,0.0,0.0,0.0,0.0,0.0,0.0,0.0,0.0,0.0,0.0,0.0,0.0,0.0,0.0,0.0,0.0,0.0,0.0,0.0,0.0,0.0,0.0,0.0,0.0,0.0,0.0,0.0,0.0,0.0,0.0,0.0,0.0,0.0,0.0,0.0,0.0,0.0,0.0,0.0,0.0,0.0,0.0,0.0,0.0,0.0,0.0,0.0,0.0,0.0,0.0,0.0,0.0,0.0,0.0,0.0,0.0,0.0,0.0,0.0,0.0,0.0,0.0,0.0,0.0,0.0,0.0,0.0,0.0,0.0,0.0,0.0,0.0,0.0,0.0,0.0,0.0,0.0,0.0,0.0,0.0,0.0,0.0,0.0,0.0,0.0,0.0,0.0,0.0,0.0,0.0,0.0,0.0,0.0,0.0,0.0,0.0,0.0,0.0,0.0,0.0,0.0,0.0,0.0,0.0,0.0,0.0,0.0,0.0,0.0,0.0,0.0,0.0,0.0,0.0,0.0,0.0,0.0,0.0,0.0,0.0,0.0,0.0,0.0,0.0,0.0,0.0,0.0,0.0,0.0,0.0,0.0,0.0,0.0,0.0,0.0,0.0,0.0,0.0,0.0,0.0,0.0,0.0,0.0,0.0,0.0,0.0,0.0,0.0,0.0,0.0,0.0,0.0,0.0,0.0,0.0,0.0,0.0,0.0,0.0,0.0,0.0,0.0,0.0,0.0,0.0,0.0,0.0,0.0,0.0,0.0,0.0,0.0,0.0,0.0,0.0,0.0,0.0,0.0,0.0,0.0,0.0,0.0,0.0,0.0,0.0,0.0,0.0,0.0,0.0,0.0,0.0,0.0,0.0,0.0,0.0,0.0,0.0,0.0,0.0,0.0,0.0,0.0,0.0,0.0,0.0,0.0,0.0,0.0,0.0,0.0,0.0,0.0,0.0,0.0,0.0,0.0,0.0,0.0,0.0,0.0,0.0,0.0,0.0,0.0,0.0,0.0,0.0,0.0,0.0,0.0,0.0,0.0,0.0,0.0,0.0,0.0,0.0,0.0,0.0,0.0,0.0,0.0,0.0,0.0,0.0,0.0,0.0,0.0,0.0,0.0,0.0,0.0,0.0,0.0,0.0,0.0,0.0,0.0,0.0,0.0,0.0,0.0,0.0,0.0,0.0,0.0,0.0,0.0,0.0,0.0,0.0,0.0,0.0,0.0,0.0,0.0,0.0,0.0,0.0,0.0,0.0,0.0,0.0,0.0,0.0,0.0,0.0,0.0,0.0,0.0,0.0,0.0,0.0,0.0,0.0,0.0,0.0,0.0,0.0,0.0,0.0,0.0,0.0,0.0,0.0,0.0,0.0,0.0,0.0,0.0,0.0,0.0,0.0,0.0,0.0,0.0,0.0,0.0,0.0,0.0,0.0,0.0,0.0,0.0,0.0,0.0,0.0,0.0,0.0,0.0,0.0,0.0,0.0,0.0,0.0,0.0,0.0,0.0,0.0,0.0,0.0,0.0,0.0,0.0,0.0,0.0,0.0,0.0,0.0,0.0,0.0,0.0,0.0,0.0,0.0,0.0,0.0,0.0,0.0,0.0,0.0,0.0,0.0,0.0,0.0,0.0,0.0,0.0,0.0,0.0,0.0,0.0,0.0,0.0,0.0,0.0,0.0,0.0,0.0,0.0,0.0,0.0,0.0,0.0,0.0,0.0,0.0,0.0,0.0,0.0,0.0,0.0,0.0,0.0,0.0,0.0,0.0,0.0,0.0,0.0,0.0,0.0,0.0,0.0,0.0,0.0,0.0,0.0,0.0,0.0,0.0,0.0,0.0,0.0,0.0,0.0,0.0,0.0,0.0,0.0,0.0,0.0,0.0,0.0,0.0,0.0,0.0,0.0,0.0,0.0,0.0,0.0,0.0,0.0,0.0,0.0,0.0,0.0,0.0,0.0,0.0,0.0,0.0,0.0,0.0,0.0,0.0,0.0,0.0,0.0,0.0,0.0,0.0,0.0,0.0,0.0,0.0,0.0,0.0,0.0,0.0,0.0,0.0,0.0,0.0,0.0,0.0,0.0,0.0,0.0,0.0,0.0,0.0,0.0,0.0,0.0,0.0,0.0,0.0,0.0,0.0,0.0,0.0,0.0,0.0,0.0,0.0,0.0,0.0,0.0,0.0,0.0,0.0,0.0,0.0,0.0,0.0,0.0,0.0,0.0,0.0,0.0,1.2227,1.1609,0.0,0.0,0.0,0.0,0.0,0.0,0.0,0.0,0.0,0.0,0.0,0.0,0.0,0.0,0.0,0.0,0.0,0.0,0.0,0.0,0.0,0.0,0.0,0.7619,0.7566,0.7605,0.7574,0.7566,0.7605,0.7604,0.7604,0.7605,0.7605,0.7605,0.7605,0.7605,0.7757,0.8077,0.7757,0.7605,0.7605,0.7605,0.762,0.7664,0.0,0.0,0.0,0.0,0.0,0.0,0.0,0.0,0.0,0.0,0.0,0.0,0.0,0.0,0.0,0.0,0.0,0.0,0.0,0.0,0.0,0.0,0.0,0.0,0.0,0.0,0.0,0.0,0.0,0.0,0.0,0.0,0.0,0.0,0.0,0.0,0.0,0.0,0.0,0.0,0.0,0.0,0.0,0.0,0.0,0.0,0.0,0.0,0.0,0.0,0.0,0.0,0.0,0.0,0.0,0.0,0.0,0.0,0.0,0.0,0.0,0.0,0.0,0.0,0.0,0.0,0.0,0.0,0.0,0.0,1.3984,1.377,0.0,0.0,0.0,0.0,0.0,0.0,0.0,0.0,0.0,0.0,0.0,0.0,0.0,0.0,0.0,0.0,0.0,0.0,0.0,0.0,0.0,0.7041,0.7621,0.7665,0.7628,0.7568,0.7611,0.7684,0.7771,0.767,0.7656,0.7771,0.7771,0.7771,0.7771,0.7926,0.8204,0.8603,0.8048,0.7771,0.7771,0.7887,0.7976,0.8038,0.8366,0.0,0.0,0.0,0.0,0.0,0.0,0.0,0.0,0.0,0.0,0.0,0.0,0.0,0.0,0.0,0.0,0.0,0.0,0.0,0.0,0.0,0.0,0.0,0.0,0.0,0.0,0.0,0.0,0.0,0.0,0.0,0.0,0.0,0.0,0.0,0.0,0.0,0.0,0.0,0.0,0.0,0.0,0.0,0.0,0.0,0.0,0.0,0.0,0.0,0.0,0.0,0.0,0.0,0.0,0.0,0.0,0.0,0.0,0.0,0.0,0.0,0.0,0.0,1.4711,1.5087,1.5023,1.4958,1.5702,1.6946,1.5753,1.6026,1.7113,1.468,0.0,0.0,0.0,0.0,0.0,0.0,0.0,0.0,0.0,0.0,0.0,0.0,0.0,0.0,0.0,0.0,0.0,0.0,0.0,0.7178,0.7948,0.7925,0.7862,0.7856,0.7856,0.8034,0.8443,0.7924,0.7866,0.8449,0.8464,0.8464,0.8464,0.9214,0.9267,0.8603,0.8508,0.8464,0.8479,0.906,0.9337,0.9302,0.823,0.8346,0.9273,0.0,0.0,0.0,0.0,0.0,0.0,0.0,0.0,0.0,0.0,0.0,0.0,0.0,0.0,0.0,0.0,0.0,0.0,0.0,0.0,0.0,0.0,0.0,0.0,0.0,0.0,0.0,0.0,0.0,0.0,0.0,0.0,0.0,0.0,0.0,0.0,0.0,0.0,0.0,0.0,0.0,0.9939,1.0411,0.0,0.0,0.0,0.0,0.0,0.0,0.0,0.0,0.0,0.0,0.0,0.0,0.0,1.3928,1.3885,1.5134,1.575,1.5766,1.6671,1.7113,1.7103,1.7096,1.7238,1.749,1.7367,0.0,1.6877,1.5694,0.0,0.0,0.0,0.0,0.0,0.0,0.0,0.0,0.0,0.0,0.0,0.0,0.0,0.0,0.0,0.0,0.0,0.0,0.0,0.0,0.0,0.7628,0.7514,0.7826,0.7576,0.7751,0.8603,0.8414,0.8545,0.9142,0.9162,0.9162,0.9162,0.9503,0.9484,0.9117,0.9153,0.9162,0.9162,0.9453,0.9598,0.9569,0.8993,0.8848,0.9025,0.8924,0.0,0.0,0.0,0.0,0.0,0.0,0.0,0.0,0.0,0.0,0.0,0.0,0.0,0.0,0.0,0.0,0.0,0.0,0.0,0.0,0.0,0.0,0.0,0.0,0.0,0.0,0.0,0.0,0.0,0.0,0.0,0.0,0.0,0.0,0.0,0.0,0.0,0.0,0.0,0.9917,1.0339,1.1672,1.1148,1.0879,0.0,0.0,0.0,0.0,0.0,0.0,0.0,0.0,0.0,1.4039,1.4529,1.4857,1.5063,1.6244,1.7008,1.735,1.829,1.8793,1.8928,1.9258,1.949,1.9632,1.9679,1.958,1.9192,1.6942,1.6229,1.6398,0.0,0.0,0.0,0.0,1.5372,1.5715,0.0,0.0,0.0,0.0,0.0,0.0,0.0,0.0,0.0,0.0,0.0,0.0,0.7702,0.7311,0.7203,0.7558,0.724,0.7594,0.8942,0.871,0.8935,0.9858,0.986,0.9836,0.9836,0.9773,0.971,0.9603,0.9758,0.9836,0.9836,1.0006,1.0088,1.0088,1.0088,0.984,0.9413,0.9511,0.914,0.8477,0.0,0.0,0.0,0.0,0.0,0.0,0.0,0.0,0.0,0.0,0.0,0.0,0.0,0.0,0.0,0.0,0.0,0.0,0.0,0.0,0.0,0.0,0.0,0.0,0.0,0.0,0.0,0.0,0.0,0.0,0.0,0.0,0.0,0.0,0.0,0.0,0.0,1.0409,1.1051,1.2649,1.2606,1.2537,0.0,0.0,0.0,0.0,0.0,0.0,1.4543,1.4413,1.4515,1.4992,1.5758,1.6293,1.6543,1.7482,1.8187,1.8634,1.9329,1.9755,1.9921,2.0454,2.0773,2.0926,2.1071,2.1123,2.0939,1.8566,1.7923,1.8297,1.657,1.6066,1.6331,1.6785,1.707,1.7353,0.0,0.0,0.0,0.0,0.0,0.0,0.0,0.0,0.0,0.0,0.0,0.7224,0.715,0.7177,0.7147,0.7046,0.7074,0.7906,0.9809,0.8564,0.8639,1.0648,1.0563,1.0459,1.0459,1.0459,1.0264,0.9881,1.0274,1.0459,1.0473,1.11,1.1402,1.1402,1.1402,1.1494,1.1525,0.9636,0.9658,1.0822,0.9621,0.0,0.0,0.0,0.0,0.0,0.0,0.0,0.0,0.0,0.0,0.0,0.0,0.0,0.0,0.0,0.0,0.0,0.0,0.0,0.0,0.0,0.0,0.0,0.0,0.0,0.0,0.0,0.0,0.0,0.0,0.0,0.0,0.0,0.0,0.0,0.0,0.0,0.0,1.2855,1.3711,0.0,0.0,0.0,0.0,1.4777,1.4239,1.4437,1.5651,1.5468,1.5577,1.6112,1.77,1.8539,1.8554,1.9174,1.9497,1.9547,1.9571,1.9598,1.9624,1.998,2.0161,2.0169,2.05,2.0639,2.0633,2.0738,2.0668,2.0438,1.9326,1.9246,1.9772,1.9991,2.0568,2.1255,0.0,0.0,0.0,0.8573,0.8532,0.8453,0.8303,0.8344,0.8376,0.8307,0.7649,0.7375,0.7819,0.7054,0.6814,0.7638,0.7379,0.777,0.9198,0.8778,0.9129,1.0619,1.0515,1.0659,1.1129,1.0385,1.0313,1.0983,1.1092,1.1336,1.1734,1.2408,1.2723,1.2723,1.2723,1.2626,1.2336,1.0718,1.0135,1.0258,0.9409,0.9116,0.0,0.0,0.0,0.0,0.0,0.0,0.0,0.0,0.0,0.0,0.0,0.0,0.0,0.0,0.0,0.0,0.0,0.0,0.0,0.0,0.0,0.0,0.0,0.0,0.0,0.0,0.0,0.0,0.0,0.0,0.0,0.0,0.0,0.0,0.0,0.0,0.0,1.4962,1.4623,0.0,1.4654,1.4597,1.4771,1.5318,1.495,1.535,1.6817,1.6637,1.6779,1.7398,1.7837,1.8376,1.9029,1.9671,2.0305,2.0955,2.139,2.1687,2.1854,2.1972,2.212,2.2289,2.2405,2.2531,2.26,2.2704,2.1925,2.066,2.028,2.0258,2.0448,2.0535,2.0744,2.0976,0.8765,0.8765,0.0,0.8675,0.8622,0.8569,0.8488,0.8504,0.8405,0.8067,0.7616,0.7413,0.764,0.7011,0.6935,0.7825,0.7527,0.7884,0.924,0.9054,0.9516,1.0887,1.0849,1.0838,1.0919,1.0584,1.0851,1.177,1.193,1.2363,1.3052,1.3382,1.3602,1.3689,1.3537,1.3378,1.3175,1.2238,1.1238,1.0282,1.0025,1.0069,1.0309,0.0,0.0,0.0,0.0,0.0,0.0,0.0,0.0,0.0,0.0,0.0,0.0,0.0,0.0,0.0,0.0,0.0,0.0,0.0,0.0,0.0,0.0,0.0,0.0,0.0,0.0,0.0,0.0,0.0,0.0,0.0,0.0,0.0,0.0,1.3094,1.4027,1.533,1.5085,1.4938,1.5231,1.5329,1.5618,1.619,1.6165,1.6529,1.7492,1.76,1.7782,1.8129,1.8393,1.887,1.9531,2.0573,2.145,2.2126,2.3047,2.3593,2.3857,2.3945,2.4117,2.4359,2.444,2.4522,2.4614,2.4614,2.3837,2.2576,2.2049,2.1864,2.1886,2.1886,2.1886,2.1836,0.8902,0.8897,0.8846,0.8649,0.871,0.8716,0.8454,0.864,0.8447,0.7483,0.7503,0.7306,0.6554,0.7095,0.7503,0.7535,0.7535,0.8283,1.0062,0.9386,0.9704,1.1498,1.1582,1.1041,0.9928,1.1151,1.1921,1.2162,1.2756,1.3482,1.4314,1.3997,1.4037,1.4333,1.3865,1.384,1.4124,1.4124,1.2988,1.1222,1.158,1.1537,1.133,0.0,0.0,0.0,0.0,0.0,0.0,0.0,0.0,0.0,0.0,0.0,0.0,0.0,0.0,0.0,0.0,0.0,0.0,0.0,0.0,0.0,0.0,0.0,0.0,0.0,0.0,0.0,0.0,0.0,0.0,0.0,0.0,0.0,1.2706,1.3615,1.4112,1.3875,1.5132,1.5665,1.4798,1.6397,1.7497,1.7511,1.7873,1.7946,1.7631,1.8317,1.8562,1.8217,1.9526,2.0256,2.0273,2.2069,2.2965,2.298,2.4381,2.5126,2.5332,2.5598,2.5822,2.6044,2.6297,2.6414,2.6425,2.6425,2.6435,2.6292,2.4762,2.4224,2.4273,2.4282,2.4264,2.4217,0.9039,0.8974,0.888,0.8829,0.88,0.8769,0.871,0.8759,0.8722,0.8493,0.7961,0.7712,0.8028,0.7731,0.7688,0.818,0.8223,0.8605,0.949,0.9274,0.9679,1.0965,1.1107,1.1439,1.2035,1.1843,1.2302,1.348,1.4026,1.4438,1.4658,1.506,1.5299,1.5382,1.5244,1.4975,1.4619,1.4758,1.4225,1.321,1.2549,1.2218,1.2109,0.0,0.0,0.0,0.0,0.0,0.0,0.0,0.0,0.0,0.0,0.0,0.0,0.0,0.0,0.0,0.0,0.0,0.0,0.0,0.0,0.0,0.0,0.0,0.0,0.0,0.0,0.0,0.0,0.0,0.0,0.0,1.3086,1.3867,1.4236,1.449,1.5219,1.678,1.6556,1.6548,1.7219,1.7369,1.7499,1.7703,1.7819,1.7926,1.8029,1.855,1.88,1.8708,2.0433,2.1512,2.1793,2.3479,2.448,2.4729,2.5454,2.5832,2.5888,2.6115,2.6323,2.6518,2.6587,2.6757,2.6968,2.6968,2.7072,2.7113,2.6301,2.5992,2.6031,2.6126,2.5789,2.5185,0.9149,0.908,0.9006,0.8913,0.8897,0.8874,0.8845,0.8846,0.874,0.8475,0.8274,0.8192,0.831,0.8182,0.8249,0.8634,0.8667,0.8958,0.9671,1.0094,1.0562,1.1074,1.1636,1.2174,1.2717,1.2731,1.3354,1.4593,1.4903,1.5226,1.5568,1.5844,1.6025,1.6137,1.5955,1.5783,1.5646,1.576,1.5484,1.4928,1.4368,1.4026,1.3743,1.2792,1.274,1.2993,1.1778,1.1666,1.2071,1.1869,0.0,0.0,0.0,0.0,0.0,0.0,0.0,0.0,0.0,0.0,0.0,0.0,0.0,0.0,0.0,0.0,0.0,0.0,0.0,0.0,0.0,0.0,0.0,0.0,1.4183,1.4877,1.536,1.5413,1.5922,1.7395,1.6938,1.6937,1.7949,1.7601,1.7502,1.7932,1.8111,1.8402,1.8807,1.9542,2.0047,2.032,2.1867,2.2834,2.3076,2.4787,2.5741,2.5972,2.6909,2.7395,2.7487,2.7694,2.7895,2.8087,2.8087,2.8196,2.8363,2.8363,2.8376,2.8291,0.0,0.0,0.0,0.0,2.6824,2.6398,0.9231,0.9203,0.9134,0.8952,0.8958,0.8964,0.8891,0.8891,0.8671,0.8017,0.8502,0.8654,0.8001,0.8502,0.8897,0.8897,0.8982,0.9437,1.0422,1.1457,1.191,1.1661,1.2702,1.313,1.2782,1.3824,1.4773,1.5581,1.5581,1.5946,1.6649,1.6412,1.6425,1.662,1.6258,1.638,1.6815,1.6815,1.6629,1.6321,1.6435,1.6154,1.5535,1.446,1.425,1.4285,1.2468,1.1942,1.2056,1.1637,0.0,0.0,0.0,0.0,0.0,0.0,0.0,0.0,0.0,0.0,0.0,0.0,0.0,0.0,0.0,0.0,0.0,0.0,0.0,0.0,0.0,0.0,0.0,0.0,1.4979,1.556,1.6307,1.6484,1.6623,1.6842,1.6869,1.7128,1.7793,1.7646,1.7805,1.8487,1.8927,1.9443,2.0109,2.1097,0.0,0.0,0.0,2.4288,2.4324,2.6087,2.698,2.7019,2.8409,2.9186,2.9398,2.9535,2.9706,2.9922,2.9908,2.9894,2.9902,2.9801,2.956,2.9178,2.8119,2.7733,2.7739,2.7601,2.7618,2.7638,0.9371,0.9269,0.9177,0.9076,0.8985,0.8903,0.8823,0.8869,0.8846,0.8706,0.8812,0.8852,0.8711,0.8812,0.8897,0.8897,0.9438,1.032,1.1589,1.2422,1.2767,1.2563,1.3323,1.3986,1.4433,1.508,1.5822,1.6683,1.6683,1.6776,1.6917,1.6866,1.6866,1.6917,1.6837,1.685,1.6968,1.6968,1.6974,1.7007,1.7031,1.6377,1.5342,1.512,1.4611,1.3905,1.2934,1.2412,1.2164,1.2081,1.1795,1.1629,1.2362,1.17,0.0,0.0,0.0,0.0,0.0,0.0,0.0,0.0,0.0,0.0,0.0,0.0,0.0,0.0,0.0,0.0,0.0,0.0,0.0,1.5677,1.6154,1.6696,1.762,1.8198,1.8367,1.7949,1.7908,1.8155,1.8761,1.9205,1.9785,2.0555,2.1095,2.1818,2.2801,2.3162,2.3503,2.3809,2.5253,2.6122,2.6348,2.7812,2.8673,2.888,2.8916,0.0,2.9302,2.9016,2.9116,2.9503,2.9292,2.9285,2.9377,2.8504,2.7796,2.7376,2.8578,2.9131,2.9218,2.8769,2.8612,2.8535,0.9408,0.9339,0.9277,0.9174,0.9128,0.9038,0.8886,0.923,0.9483,0.9406,0.9725,0.9809,0.945,0.9756,0.9849,0.9488,1.04,1.1319,1.2104,1.2747,1.3102,1.3103,1.4028,1.4708,1.5043,1.5905,1.6556,1.7005,1.7005,1.7005,1.7005,1.7005,1.7005,1.7005,1.7005,1.708,1.7203,1.7203,1.7313,1.7507,1.7507,1.712,1.649,1.5874,1.527,1.4644,1.3919,1.3304,1.2858,1.2858,1.2252,1.1627,1.2372,1.1915,1.1303,0.0,0.0,0.0,0.0,0.0,0.0,0.0,0.0,0.0,0.0,0.0,0.0,0.0,0.0,1.377,1.4989,0.0,1.5651,1.6727,1.7459,1.8063,1.8526,1.9401,1.9713,1.894,1.9284,1.9659,1.9963,2.077,2.142,2.182,2.2606,2.3457,2.4396,2.4927,2.5438,2.5973,2.7201,2.7911,2.8043,2.8681,2.9068,2.9201,2.8993,2.8963,2.9095,2.8995,2.9066,2.9242,2.9108,2.8873,2.8506,2.7192,2.6447,2.6232,2.6998,2.7886,2.8666,2.8024,2.8278,2.8773,0.9417,0.9412,0.9367,0.9231,0.9236,0.9209,0.8974,0.9593,1.0049,0.993,1.0543,1.0779,1.0185,1.0699,1.0919,1.0498,1.1489,1.2251,1.253,1.2941,1.3319,1.3633,1.4706,1.5336,1.5485,1.6579,1.7154,1.7154,1.7154,1.7154,1.7154,1.7154,1.7154,1.7154,1.7154,1.7276,1.7467,1.7467,1.7601,1.78,1.78,1.7777,1.7619,1.6628,1.6068,1.5639,1.4813,1.405,1.3435,1.3255,1.2411,1.1549,1.2151,1.1994,1.1811,1.294,1.3274,0.0,0.0,0.0,0.0,0.0,0.0,0.0,0.0,1.2747,1.2498,1.4521,1.461,1.474,1.6186,1.65,1.6865,1.7907,1.8743,1.9322,1.9495,2.0464,2.0889,2.0171,2.0605,2.1069,2.1261,2.2222,2.2962,2.3279,2.424,2.5184,2.6001,2.6698,2.7399,2.8042,2.8805,2.9205,2.9191,2.9099,2.9041,2.9035,2.8729,2.8622,2.8674,2.8595,2.8566,2.8547,2.8474,2.7972,2.7072,2.5817,2.5196,2.5058,2.4834,2.5699,2.702,2.6626,2.7242,2.8165,0.9417,0.9439,0.9421,0.9228,0.9216,0.9187,0.9083,0.9618,1.0011,0.9998,1.0575,1.098,1.0896,1.1011,1.1355,1.1985,1.2399,1.2863,1.3426,1.3442,1.3785,1.453,1.5195,1.587,1.6522,1.7305,1.7704,1.7704,1.7704,1.7704,1.7704,1.7704,1.7704,1.7704,1.7704,1.7732,1.7766,1.7766,1.7777,1.78,1.78,1.7658,1.7432,1.729,1.686,1.6154,1.4998,1.4034,1.3201,1.2355,1.1859,1.1599,1.1673,1.1302,1.1177,1.3015,1.3019,1.2827,1.4559,1.4929,1.5071,1.6204,1.4949,1.4135,0.0,1.5477,1.4399,1.6465,1.6477,1.6435,1.7497,1.7697,1.8145,1.9511,1.9824,2.0171,2.0932,2.1632,2.2088,2.2163,2.1623,2.163,2.2584,2.3497,2.461,2.6026,2.6963,2.7826,2.8637,2.8768,2.89,2.9048,2.9142,2.9196,2.9195,2.9194,2.9179,2.916,2.8022,2.7623,2.7888,2.677,2.6401,2.659,2.6235,2.5525,2.4591,2.4309,2.3802,2.3193,2.3172,2.3682,2.4531,2.5391,2.5831,2.5959,0.9417,0.9492,0.9504,0.9348,0.932,0.9433,0.9797,1.043,1.1004,1.1407,1.1962,1.2223,1.1909,1.1939,1.2464,1.371,1.3922,1.4083,1.4333,1.4326,1.4466,1.4794,1.5469,1.6207,1.6967,1.7714,1.8082,1.8082,1.8082,1.8082,1.8082,1.8082,1.8082,1.81,1.7966,1.7917,1.7928,1.7927,1.7921,1.7932,1.8131,1.8142,1.8029,1.7809,1.7335,1.664,1.5859,1.4689,0.0,1.3023,1.2574,1.212,1.1722,1.1611,1.1902,1.3212,1.3783,1.4413,1.6413,1.6608,1.6263,1.6364,1.5666,1.5095,1.5625,1.5108,1.5003,1.6787,1.7146,1.7542,1.8781,1.9014,1.9388,2.0563,2.105,2.1501,2.2134,2.2744,2.3272,2.367,2.3331,2.3336,2.4111,2.5067,2.6136,2.7331,2.8186,2.8848,2.9308,2.9218,2.9219,2.9362,2.8774,2.8438,2.8441,2.7753,2.7397,2.739,2.6716,2.6433,2.6562,2.6046,2.5657,2.5379,2.475,2.3902,2.2922,2.2361,2.1969,2.167,2.1575,2.1936,2.261,2.3667,2.4582,2.5242,0.9444,0.9527,0.9568,0.9453,0.9435,0.9581,1.0044,1.0907,1.167,1.2168,1.29,1.3239,1.2875,1.291,1.3399,1.4468,1.4837,1.4904,1.4662,1.4846,1.4961,1.4961,1.5627,1.6367,1.7168,1.7917,1.83,1.83,1.83,1.83,1.83,1.83,1.83,1.83,1.8184,1.8127,1.8085,1.8118,1.8111,1.8107,1.8368,1.8465,1.841,1.7981,1.7309,1.659,1.6378,1.5343,1.4059,1.3998,1.3573,1.2984,1.2644,1.2588,1.2843,1.3988,1.4964,1.6012,1.7425,1.741,1.6832,1.6232,1.602,1.573,1.4874,1.5111,1.589,1.7193,1.7854,1.864,2.0102,2.0382,2.0732,2.1813,2.2353,2.2785,2.3221,2.3671,2.4081,2.4469,2.4449,2.4638,2.5214,2.623,2.7168,2.7936,2.8826,2.9249,2.907,2.8911,2.8791,2.8676,2.7933,2.7482,2.7402,2.6541,2.6065,2.5977,2.547,2.53,2.5439,2.5112,2.4722,2.4266,2.3498,2.2722,2.1955,2.1293,2.1006,2.0968,2.087,2.1066,2.1489,2.2226,2.3069,2.3781,0.95,0.9546,0.9585,0.9508,0.95,0.9492,0.9443,1.0612,1.1514,1.1531,1.2731,1.3613,1.3659,1.3786,1.383,1.3738,1.47,1.4927,1.408,1.4707,1.5082,1.5082,1.5688,1.6348,1.7095,1.789,1.83,1.83,1.83,1.83,1.83,1.83,1.83,1.831,1.8442,1.8413,1.83,1.8424,1.8413,1.83,1.8375,1.8396,1.8318,1.7595,1.6617,1.5697,1.6145,1.5861,1.5211,1.5027,1.4592,1.4249,1.4728,1.4241,1.381,1.5608,1.6501,1.693,1.6862,1.6496,1.6161,1.6276,1.6105,1.5893,1.5864,1.6604,1.7513,1.8217,1.8936,1.9939,2.1545,2.1832,2.2255,2.3519,2.3739,2.3862,2.4219,2.4267,2.4286,2.4305,2.4535,2.4955,2.5618,2.6595,2.7415,2.7967,2.9049,2.9182,2.8015,2.7953,2.7533,2.6616,2.6557,2.6416,2.6151,2.6117,2.5976,2.5701,2.4516,2.4263,2.4791,2.3623,2.3072,2.3019,2.2338,2.1959,2.1793,2.1626,2.1492,2.1369,2.1369,2.1393,2.1393,2.1441,2.1151,2.0733,0.9508,0.9585,0.9823,1.028,1.0397,1.0571,1.0997,1.1384,1.1825,1.2368,1.3309,0.0,0.0,0.0,0.0,0.0,1.5131,1.5426,1.5589,1.5494,1.5591,1.595,1.5734,1.6181,1.74,1.7781,1.8226,1.8761,1.8843,1.8905,1.8905,1.8905,1.8905,1.8887,1.8753,1.8672,1.8636,1.8726,1.912,1.9667,1.9285,1.9178,1.9295,1.953,1.8308,1.6673,0.0,1.7116,1.482,1.5148,1.4909,1.4429,1.4212,1.4169,1.4579,1.6349,1.6487,1.6292,1.7311,1.72,1.6887,1.7433,1.7495,1.7511,1.7827,1.8349,1.8924,1.9432,2.0601,2.1886,2.2965,2.3894,2.4644,2.5127,2.5527,2.555,2.4853,2.5425,2.5568,2.4673,2.517,2.5457,2.5193,2.5803,2.6598,2.753,2.7799,2.789,2.7843,2.7377,2.6966,2.6648,2.5767,2.5266,2.5166,2.4682,2.4413,2.4297,2.3991,2.4151,2.4708,2.3957,2.3214,2.2528,2.2311,2.1765,2.1033,2.0772,2.0648,2.0585,2.0421,2.0346,2.0295,1.994,1.9927,2.0182,0.9935,1.0066,1.0379,1.1162,1.134,0.0,0.0,0.0,0.0,0.0,0.0,0.0,0.0,0.0,0.0,0.0,0.0,1.5507,1.5608,1.587,1.6057,1.6113,1.6258,1.6772,1.7724,1.7832,1.8127,1.8636,1.8427,1.8466,1.8765,1.8765,1.8943,1.9261,1.9143,1.9073,1.9034,1.884,1.9107,1.9612,1.9225,1.912,1.9257,1.9782,1.8914,0.0,1.8981,1.7861,1.5825,1.6343,1.5915,1.5199,1.5356,1.5694,1.6263,1.7521,1.7399,1.7122,1.832,1.8266,1.8045,1.8701,1.8885,1.8921,1.9137,1.9521,2.0003,2.0645,2.1646,2.283,2.4246,2.505,2.5622,2.589,2.6121,2.5988,2.5224,2.5765,2.5949,2.5148,2.5561,2.559,2.4807,2.5034,2.5706,2.685,2.6908,2.6909,2.6908,2.632,2.5853,2.5604,2.5005,2.4652,2.4652,2.4229,2.381,2.3418,2.3743,2.3966,2.4152,2.3815,2.3269,2.2616,2.2338,2.1705,2.0822,2.0553,2.0296,2.0042,1.9862,1.9798,1.9759,1.9422,1.95,1.985,1.0703,1.0904,1.1206,0.0,0.0,0.0,0.0,0.0,0.0,0.0,0.0,0.0,0.0,0.0,0.0,0.0,0.0,0.0,1.434,1.5794,1.6383,1.5689,1.7098,1.7921,1.8013,1.8019,1.8041,1.8096,1.7279,1.7279,1.8103,1.8103,1.8559,1.9438,1.955,1.958,1.9482,1.8848,1.8536,1.8459,1.8421,1.8396,1.8426,1.8589,1.8546,1.8364,1.8272,1.8146,1.806,1.8404,1.7528,1.6552,1.8016,1.851,1.861,1.8996,1.9104,1.9201,1.9711,1.9614,1.9508,2.0072,2.0209,2.0144,1.9908,2.0235,2.085,2.1762,2.2025,2.2785,2.5101,2.5218,2.5161,2.5741,2.5553,2.531,2.5245,2.5357,2.5482,2.5572,2.5641,2.5345,2.4465,2.4408,2.49,2.6003,2.6387,2.6201,2.537,2.4958,2.4426,2.3749,2.4283,2.4627,2.4649,2.4701,2.4248,2.3294,2.3824,2.3822,2.3334,2.3319,2.325,2.3156,2.2456,2.1724,2.1078,2.0957,2.0469,1.9784,1.9811,1.9773,1.9759,1.9721,1.9721,1.9566,0.0,0.0,0.0,0.0,0.0,0.0,0.0,0.0,0.0,0.0,0.0,0.0,0.0,0.0,0.0,0.0,0.0,0.0,1.523,1.5233,1.5612,1.6456,1.646,1.6966,1.8128,1.8304,1.8677,1.9275,1.9151,1.9206,1.9431,1.9431,1.9537,1.978,1.9855,1.9884,1.9862,1.9744,2.0082,2.0638,1.9985,1.9778,1.9935,2.0504,1.958,1.8162,1.9766,1.9419,1.8286,1.8665,1.8269,1.7671,1.7967,1.7826,1.7805,1.9103,1.9224,1.918,2.0252,2.0483,2.0582,2.1266,2.1633,2.1819,2.1845,2.2492,2.2733,2.1501,2.2336,2.2991,2.21,2.3374,2.4358,2.3784,2.4849,2.544,2.4598,2.53,2.5493,2.435,2.4929,2.5089,2.4251,2.4525,2.5099,2.5888,2.5208,2.5047,2.5719,2.5384,2.5278,2.5528,2.4978,2.4893,2.5337,2.5369,2.5466,2.5691,2.5408,2.5228,2.5122,2.4733,2.3998,2.3041,2.2842,2.2079,2.0955,2.0894,2.0482,1.9868,1.9831,1.9552,1.9133,1.8685,1.8525,1.8352,0.0,0.0,0.0,0.0,0.0,0.0,0.0,0.0,0.0,0.0,0.0,0.0,0.0,0.0,0.0,0.0,0.0,0.0,0.0,1.5186,1.5594,1.6417,1.6483,1.6937,1.7836,1.7958,1.8242,1.8688,1.8792,1.905,1.9425,1.9416,1.9629,2.0028,2.006,2.0123,2.016,1.98,1.9978,0.0,0.0,1.9813,1.9912,2.031,1.9587,1.8487,1.9339,1.9207,1.8696,1.9314,1.9219,1.882,1.8657,1.873,1.9147,2.0318,2.0696,2.0881,2.1546,2.2018,2.2452,2.2841,2.2918,2.2873,2.2828,2.2432,2.1863,2.1183,2.1214,2.1223,2.0734,2.1689,2.254,2.2508,2.3256,2.3947,2.4285,2.4727,2.4893,2.4455,2.5195,2.5451,2.4717,2.5133,2.5544,2.5753,2.5071,2.5037,2.5987,2.5645,2.5599,2.5925,2.5673,2.5717,2.6086,2.6086,2.6013,2.5885,2.5544,2.5271,2.5034,2.475,2.4147,2.3386,2.3299,2.2649,2.1636,2.1546,2.0965,2.0153,1.9907,1.9458,1.8854,1.8294,1.8093,1.7984,0.0,0.0,0.0,0.0,0.0,0.0,0.0,0.0,0.0,1.4409,1.4287,1.4213,1.4163,1.4288,0.0,0.0,0.0,0.0,0.0,0.0,1.5815,1.5986,1.6739,1.7237,1.7421,1.7444,1.7505,1.7619,1.7677,1.816,1.9007,1.9006,1.9458,2.023,2.0238,2.031,2.0353,1.9624,1.9324,1.9391,1.9395,1.932,1.9205,0.0,1.8984,1.8699,1.8041,1.8256,1.8995,1.9967,2.0102,1.9822,1.9636,2.0286,2.1249,2.1862,2.2565,2.3164,2.3147,2.3745,2.4381,2.4381,2.4023,2.3558,2.3099,2.1575,2.0363,2.0735,1.9721,1.8989,1.9806,1.9875,2.012,2.1122,2.1094,2.1713,2.3911,2.3851,2.395,2.4955,2.5676,2.5852,2.5259,2.5754,2.6016,2.5758,2.5561,2.5693,2.6222,2.5915,2.5732,2.575,2.6398,2.6677,2.659,2.6642,2.6163,2.5118,2.5118,2.4778,2.4171,2.4171,2.4054,2.3832,2.3641,2.317,2.251,2.2376,2.158,2.0469,2.0069,1.9472,1.8797,1.8374,1.8093,1.7929,0.0,0.0,0.0,0.0,0.0,0.0,0.0,1.4827,1.4713,1.4707,1.4509,1.4387,1.4426,1.4356,0.0,0.0,0.0,0.0,0.0,0.0,0.0,1.5967,1.6243,1.6765,1.7553,1.762,1.801,1.8724,1.8786,1.9239,2.0041,2.0095,2.0206,2.0369,2.0428,2.0466,2.0474,2.0388,2.0358,2.0359,2.0364,1.9936,1.9271,1.9203,0.0,0.0,1.7699,1.7973,1.8314,1.9794,2.0263,2.0189,2.0042,2.0577,2.1394,2.2048,2.2851,2.3656,2.4297,2.4589,2.4708,2.4708,2.4642,2.4201,2.2776,2.3101,2.2908,1.9979,2.0051,1.968,1.6562,1.6949,1.7685,1.7558,1.8667,2.0332,2.2538,2.2851,2.3126,2.3809,2.4485,2.4843,2.4739,2.5326,2.5895,2.6378,2.6375,2.6408,2.6528,2.6456,2.6441,2.6517,2.7109,2.6942,2.5987,2.6457,2.6351,2.566,2.566,2.53,2.4609,2.4609,2.4189,2.3492,2.3463,2.2955,2.2189,2.228,2.158,2.0497,2.0523,1.9895,1.8947,1.8878,1.8131,1.7168,0.0,0.0,0.0,0.0,0.0,0.0,1.4963,1.4925,1.5014,1.5461,1.5396,1.5082,1.4558,1.4431,1.4473,0.0,0.0,0.0,0.0,0.0,0.0,1.5459,1.5533,1.5819,1.6344,1.7236,1.7891,1.8318,0.0,1.9975,2.0358,2.0455,2.0501,2.0501,2.0539,2.0545,2.0547,2.0545,2.0547,2.0508,2.0055,1.9622,1.9153,1.8242,0.0,0.0,1.6967,1.7861,1.8681,1.8994,2.0297,2.1732,2.1557,2.1838,2.2468,2.3582,2.3856,2.3987,2.4744,2.4927,2.4785,2.4297,2.3885,2.3355,2.2416,2.1511,2.0483,1.9165,1.8356,1.7179,1.4845,1.5124,1.5913,1.6636,1.7395,1.91,2.2575,2.2556,2.2787,2.4448,2.4918,2.5247,2.5615,2.6243,2.6752,2.7106,2.7121,2.7121,2.7121,2.7121,2.7145,2.7163,2.7433,2.7316,2.6733,2.7034,2.668,2.5701,2.5701,2.5147,2.4118,2.4118,2.3852,2.3403,2.3403,2.3108,2.2634,2.2688,2.2159,2.1296,2.0819,2.0093,1.9261,1.8709,1.8131,1.7501,0.0,0.0,0.0,0.0,0.0,0.0,1.4948,1.4998,1.5283,1.6098,1.6144,1.5773,1.4942,1.4831,1.4791,0.0,0.0,0.0,0.0,0.0,0.0,0.0,1.4996,1.5054,1.5201,0.0,0.0,1.744,1.9255,0.0,0.0,0.0,0.0,0.0,2.0599,2.06,2.0601,2.0527,2.0503,0.0,0.0,1.92,1.904,0.0,0.0,0.0,0.0,1.789,1.875,1.8809,2.0508,2.2655,2.3239,2.3504,2.3769,2.465,2.473,2.4595,2.4841,2.4967,2.4823,2.3904,2.3098,2.2431,2.2133,1.979,1.7888,1.8572,1.6824,1.4933,1.4227,1.4266,1.4934,1.6594,1.6947,1.8476,2.2599,2.2443,2.2772,2.5121,2.5501,2.5869,2.6527,2.721,2.76,2.76,2.76,2.76,2.76,2.76,2.7549,2.7408,2.7408,2.728,2.7034,2.7034,2.6443,2.5273,2.5245,2.4652,2.3599,2.3569,2.348,2.333,2.333,2.3241,2.3108,2.3108,2.2706,2.2043,2.1265,2.0505,1.9731,1.894,1.8402,1.7984,0.0,0.0,0.0,0.0,0.0,0.0,1.4873,1.4998,1.5283,1.6098,1.6144,1.6092,1.6058,1.588,1.5564,0.0,0.0,0.0,0.0,0.0,0.0,0.0,0.0,0.0,0.0,0.0,0.0,1.6606,0.0,0.0,0.0,0.0,0.0,0.0,0.0,2.0601,2.0602,2.0526,0.0,0.0,0.0,0.0,0.0,0.0,0.0,0.0,0.0,1.8082,1.7402,2.0508,2.1211,2.1367,2.4468,2.5324,2.4946,2.3671,2.4724,2.5978,2.4633,2.473,2.4988,2.4161,2.3275,2.2466,2.2012,2.0228,1.8636,1.8471,1.7133,1.5722,1.4872,1.4731,1.5192,1.6496,1.7474,1.895,2.152,2.2298,2.3116,2.453,2.5217,2.5869,2.6527,2.721,2.76,2.76,2.76,2.76,2.76,2.76,2.7357,2.6814,2.6788,2.6297,2.5244,2.5244,2.4907,2.4245,2.4112,2.3907,2.3599,2.345,2.33,2.3138,2.3138,2.3108,2.3108,2.3108,2.2777,2.2285,2.2185,2.1506,2.058,2.0493,1.9372,1.7918,0.0,0.0,0.0,0.0,0.0,0.0,1.4929,1.4998,1.5472,1.681,1.6961,1.7141,1.7658,1.7197,1.6366,1.5108,1.493,0.0,0.0,0.0,0.0,0.0,0.0,0.0,0.0,0.0,1.6496,1.6496,1.8317,0.0,0.0,0.0,0.0,0.0,0.0,0.0,2.0604,2.0524,0.0,0.0,0.0,0.0,0.0,0.0,0.0,0.0,0.0,0.0,1.9023,1.8827,1.992,2.1383,2.1697,2.3059,2.4671,2.5212,2.5228,2.505,2.4955,2.5,2.4735,2.3274,2.2506,2.1901,2.1066,1.9399,1.8104,1.8456,1.7206,1.5854,1.5222,1.4945,1.5197,1.6441,1.6806,1.7762,2.0121,2.0836,2.1772,2.3496,2.4476,2.5412,2.6497,2.721,2.76,2.76,2.76,2.76,2.76,2.76,2.7484,2.7255,2.7229,2.7008,2.6575,2.6549,2.6041,2.5006,2.4865,2.4334,2.348,2.33,2.3168,2.3108,2.3108,2.3108,2.3108,2.3108,2.297,2.2706,2.2071,2.1543,2.1106,2.0401,1.9699,1.8992,0.0,0.0,0.0,0.0,0.0,1.4319,1.4914,1.4998,1.551,1.6919,1.7127,1.743,1.8259,1.762,1.6648,1.5482,1.5143,0.0,0.0,0.0,0.0,0.0,0.0,0.0,0.0,0.0,1.6781,1.653,1.858,1.9198,0.0,0.0,0.0,0.0,0.0,0.0,0.0,0.0,0.0,0.0,0.0,0.0,0.0,0.0,0.0,0.0,0.0,0.0,0.0,0.0,0.0,2.0893,1.9897,2.1483,2.3922,2.5059,2.5082,2.4679,2.4348,2.4403,2.417,2.2546,2.1818,2.1323,2.062,1.8903,1.7665,1.8367,1.701,1.566,1.549,1.5164,1.529,1.634,1.6459,1.7212,1.9455,2.0145,2.1269,2.3562,2.4112,2.5001,2.6746,2.733,2.76,2.76,2.76,2.7575,2.7524,2.7524,2.7473,2.7331,2.7163,2.6982,2.6826,2.6654,2.6081,2.5105,2.4936,2.435,2.3403,2.3198,2.3108,2.3108,2.3108,2.3108,2.3108,2.3108,2.3108,2.3007,2.2096,2.1631,2.1368,2.0413,1.9819,1.9462,0.0,0.0,0.0,0.0,0.0,1.308,1.4752,1.4998,1.5283,1.6117,1.6212,1.6549,1.7425,1.6738,1.6238,1.628,1.549,0.0,0.0,0.0,0.0,0.0,0.0,0.0,0.0,0.0,1.7407,1.66,1.9202,1.9155,1.6683,1.9352,2.0137,1.9355,0.0,0.0,0.0,0.0,0.0,0.0,0.0,0.0,1.8077,0.0,0.0,0.0,0.0,0.0,0.0,0.0,0.0,0.0,0.0,2.1653,2.2868,2.2077,2.3956,2.5585,2.24,2.251,2.327,2.2252,2.1397,2.0859,2.1054,1.9185,1.7572,1.8186,1.6553,1.5169,1.5706,1.5522,1.5517,1.6186,1.6797,1.7891,1.9919,2.0757,2.2266,2.5224,2.4418,2.4642,2.733,2.76,2.76,2.76,2.76,2.7524,2.7401,2.7401,2.7181,2.6721,2.6122,2.555,2.5033,2.4419,2.4067,2.392,2.3717,2.3539,2.3403,2.3198,2.3108,2.3108,2.3108,2.3108,2.3108,2.3108,2.3108,2.3045,2.2493,2.197,2.1418,2.0893,1.989,1.8804,0.0,0.0,0.0,0.0,0.0,0.0,1.4923,1.4998,1.5283,1.6098,1.6193,1.653,1.7406,1.6715,1.6238,1.628,1.549,0.0,0.0,0.0,0.0,0.0,0.0,0.0,0.0,1.6849,1.712,1.7429,1.8298,1.8296,1.7516,1.8407,1.8983,1.9316,1.959,0.0,0.0,0.0,0.0,0.0,1.8612,1.8222,1.8026,0.0,0.0,0.0,0.0,0.0,0.0,0.0,0.0,0.0,0.0,0.0,0.0,1.9854,2.26,2.5291,2.4035,2.3924,2.3892,2.2648,2.171,2.0866,2.011,1.8765,1.7572,1.7263,1.6533,1.5922,1.581,1.5536,1.5671,1.681,1.7256,1.7893,1.9076,2.0689,2.2132,2.315,2.4678,2.6153,2.7465,2.76,2.7549,2.7463,2.7463,2.7412,2.7258,2.7258,2.7207,2.7037,2.6867,2.6683,2.6498,2.6297,2.5769,2.495,2.5189,2.4851,2.4015,2.4279,2.4381,2.4394,2.3972,2.3767,2.375,2.3275,2.3108,2.3007,2.2121,2.1587,2.1241,2.0305,1.9635,1.9198,0.0,0.0,0.0,0.0,0.0,0.0,1.4942,1.4998,1.5188,1.5681,1.5757,1.6075,1.6923,1.6245,1.5904,1.6308,1.5544,0.0,0.0,0.0,0.0,0.0,0.0,0.0,1.7023,1.7042,1.7468,1.8297,1.8668,1.8358,1.7432,1.845,1.8723,1.8359,1.9315,1.9882,0.0,0.0,0.0,0.0,1.7733,1.7518,1.7518,0.0,0.0,0.0,0.0,0.0,0.0,0.0,0.0,0.0,0.0,0.0,0.0,0.0,2.087,2.3332,2.331,2.3662,2.3733,2.238,2.1532,2.0731,1.9651,1.8816,1.8009,1.6969,1.6673,1.6427,1.5898,1.5536,1.5672,1.6746,1.6701,1.7285,1.941,2.0645,2.1752,2.2965,2.5401,2.6916,2.6777,2.724,2.7463,2.7335,2.731,2.7273,2.713,2.7104,2.7093,2.7052,2.6933,2.6867,2.6867,2.6616,2.6122,2.5315,2.5618,2.5342,2.4567,2.4879,2.4879,2.4652,2.4509,2.4176,0.0,2.3543,2.3335,2.2995,2.192,2.1409,2.1173,2.0026,1.9486,1.9328,0.0,0.0,0.0,0.0,0.0,0.0,0.0,1.4998,1.4998,1.4998,1.4998,1.5283,1.6022,1.5453,1.5346,1.6226,1.5574,0.0,0.0,0.0,0.0,0.0,0.0,0.0,1.7755,1.7794,1.8258,1.9183,1.9941,1.9107,1.682,1.9206,1.9059,1.6894,1.9328,1.9994,0.0,0.0,0.0,0.0,1.6659,1.6638,0.0,0.0,0.0,0.0,0.0,0.0,0.0,0.0,0.0,0.0,0.0,0.0,0.0,0.0,0.0,0.0,0.0,2.1884,2.2738,2.148,2.084,2.0319,1.9542,1.915,0.0,1.714,1.6847,1.6659,1.5987,1.561,1.5635,1.6375,1.573,1.6598,2.0732,2.0894,2.1618,2.441,2.6393,2.6986,2.5664,2.6634,2.7335,2.7207,2.7181,2.7144,2.7003,2.6977,2.6925,2.6806,2.6498,2.6351,2.6351,2.5797,2.5439,2.5245,2.5287,2.5203,2.5007,2.5035,2.4766,2.4263,2.4738,2.4279,2.3275,2.3809,2.3662,2.2995,2.197,2.1447,2.1173,2.0076,1.9471,1.9208,0.0,0.0,0.0,0.0,0.0,0.0,0.0,0.0,0.0,0.0,1.4998,1.5074,1.5264,1.5112,1.5106,0.0,0.0,0.0,0.0,0.0,0.0,0.0,0.0,0.0,1.7755,1.7794,1.8548,2.0092,1.9627,1.9095,1.8515,1.8518,1.8211,1.7747,1.8958,1.9405,0.0,0.0,0.0,0.0,1.624,1.6103,0.0,0.0,0.0,0.0,1.7593,1.7538,0.0,0.0,0.0,0.0,0.0,0.0,0.0,0.0,1.7486,1.8344,1.88,0.0,2.0289,2.012,1.943,1.8806,0.0,1.8262,1.7465,1.6541,1.6365,1.6385,1.6473,1.6412,1.682,1.8154,1.8481,1.9468,2.2134,2.3563,2.4729,2.5851,2.6386,2.6718,2.6771,2.7056,2.7181,2.7055,2.7055,2.6989,2.6858,2.6846,2.6832,2.6806,2.6712,2.6686,2.6686,2.6539,2.6218,2.5743,2.6218,2.592,2.5021,2.5481,2.5605,2.5439,2.4666,2.4394,2.4496,2.3679,2.3245,2.3032,2.2355,2.1784,2.1222,2.0538,1.9896,1.9354,0.0,0.0,0.0,0.0,0.0,0.0,0.0,0.0,0.0,0.0,1.4998,1.4998,1.4998,1.4998,1.5026,0.0,0.0,0.0,0.0,0.0,0.0,0.0,0.0,1.6077,1.7755,1.7794,1.8645,2.0402,1.9938,1.9508,1.9137,1.9078,1.8461,1.7411,1.7869,1.8045,0.0,0.0,0.0,1.6727,1.5785,0.0,0.0,0.0,0.0,0.0,1.7839,1.7709,0.0,1.6836,1.6112,1.5398,0.0,0.0,0.0,0.0,1.6148,1.6471,1.6584,1.8533,2.042,1.9911,1.9612,1.9373,1.9081,1.8215,1.7344,1.6809,0.0,1.6502,1.6848,1.665,1.7065,1.902,1.938,2.0298,2.2827,2.4502,2.5702,2.6332,2.6347,2.6549,2.7133,2.713,2.7041,2.6925,2.6925,2.6873,2.6806,2.6806,2.6806,2.6806,2.6806,2.6806,2.6806,2.6806,2.6647,2.6313,2.6647,2.6474,2.5838,2.6165,2.6165,2.5866,2.5508,2.5217,2.4951,2.4266,2.3826,2.3467,2.2362,2.1672,2.121,2.0401,1.9811,1.9394,0.0,0.0,0.0,0.0,0.0,0.0,0.0,0.0,0.0,0.0,0.0,0.0,0.0,0.0,0.0,0.0,0.0,0.0,0.0,0.0,0.0,0.0,1.5308,1.6099,1.7783,1.7816,1.859,2.0221,2.0334,1.9981,1.9227,2.0029,1.9225,1.709,1.6941,1.6826,1.669,1.6691,1.6199,1.5391,1.5388,0.0,0.0,0.0,0.0,0.0,0.0,0.0,0.0,1.6992,1.6112,1.5398,1.5329,0.0,0.0,0.0,0.0,0.0,1.5119,1.8245,2.1134,1.973,1.9932,2.0273,1.9391,1.8495,0.0,0.0,0.0,0.0,1.7465,1.7113,1.7405,1.9403,1.9634,2.045,2.2984,2.4369,2.5366,2.5972,2.6037,2.6262,2.6909,2.6982,2.6925,2.6806,2.6806,2.6806,2.6806,2.6806,2.6806,2.6806,2.6806,2.6806,2.6806,2.6806,2.6806,2.6806,2.6806,2.6753,2.6674,2.6674,2.634,2.5797,2.6299,2.5892,2.4879,2.4879,2.4456,2.3664,2.2198,2.1462,2.1088,2.0115,1.9639,1.9473,0.0,0.0,0.0,0.0,0.0,0.0,0.0,0.0,0.0,0.0,0.0,0.0,0.0,0.0,0.0,0.0,0.0,0.0,0.0,0.0,0.0,1.5306,1.5295,1.6111,1.7859,1.7829,1.8318,1.9384,2.0067,1.9994,1.9226,2.0082,1.9895,1.8798,1.8108,1.7353,1.6627,1.6679,1.6196,1.5393,1.5332,0.0,0.0,0.0,0.0,0.0,0.0,0.0,0.0,1.6988,1.6113,1.5398,1.5329,0.0,0.0,0.0,0.0,0.0,1.709,1.8519,1.9103,1.7367,1.7776,1.8548,1.8269,1.8444,1.8509,0.0,0.0,0.0,1.9061,1.9528,1.9823,1.9795,2.0926,2.1987,2.2427,2.3622,2.4446,2.4464,2.4877,2.5389,2.5955,2.6497,2.6806,2.6806,2.6806,2.6806,2.6806,2.6806,2.6806,2.6806,2.6806,2.6806,2.6806,2.6806,2.6806,2.6806,2.6806,2.6527,2.6029,2.6029,2.5715,2.5133,2.5245,2.4879,2.4234,2.4234,2.357,2.2555,2.2275,2.1619,2.0778,2.0602,2.0199,1.9734,0.0,0.0,0.0,0.0,0.0,0.0,0.0,0.0,0.0,0.0,0.0,0.0,0.0,0.0,0.0,0.0,0.0,0.0,0.0,0.0,1.5413,1.5939,1.5976,1.6603,1.7878,1.8324,1.8986,1.9847,2.0262,2.0255,1.9886,1.9393,1.893,1.8482,1.7185,1.6369,1.5945,1.5972,1.5761,1.5409,0.0,0.0,0.0,0.0,0.0,0.0,0.0,0.0,0.0,0.0,1.6113,1.5398,1.5329,0.0,0.0,0.0,0.0,0.0,1.5882,1.7253,1.8099,1.665,1.8175,2.001,1.9882,1.974,1.9553,1.9145,1.9492,1.9846,1.9868,2.033,2.0951,2.168,2.2135,2.2632,2.3297,2.3909,2.441,2.4717,2.5223,2.5818,2.6488,2.6695,2.6806,2.6806,2.6806,2.6806,2.6806,2.6806,2.6806,2.6806,2.6806,2.6806,2.6806,2.6806,2.6806,2.6806,2.6806,2.6647,2.6394,2.6394,2.6218,2.5947,2.5619,2.5314,2.5006,2.4379,2.3576,2.2734,2.2113,2.1408,2.0654,2.0339,1.9985,1.9682,0.0,0.0,0.0,0.0,0.0,0.0,0.0,0.0,0.0,0.0,0.0,0.0,0.0,0.0,0.0,0.0,0.0,0.0,0.0,1.5165,1.5504,1.6186,1.6658,1.7311,1.8185,1.8857,1.95,2.0112,2.0361,2.0495,2.0476,1.8989,1.8177,1.7922,1.6383,1.5586,1.5391,1.5391,1.5391,1.5409,0.0,0.0,0.0,0.0,0.0,0.0,0.0,0.0,0.0,0.0,0.0,0.0,0.0,0.0,0.0,1.4962,1.4885,1.4916,1.5148,1.649,1.7687,1.7152,1.8946,2.0813,2.0656,2.0388,2.0141,2.0082,2.0895,2.1475,2.0961,2.0919,2.1581,2.3533,2.2962,2.2719,2.4109,2.4315,2.4551,2.5224,2.5737,2.63,2.6901,2.6901,2.6846,2.6846,2.6806,2.6806,2.6806,2.6806,2.6806,2.6806,2.6806,2.6806,2.6806,2.6806,2.6806,2.6806,2.6806,2.6806,2.6806,2.6806,2.6727,2.6568,2.626,2.5948,2.5633,2.4836,2.3998,2.3117,2.2244,2.1393,2.0572,1.9974,1.9656,1.9539,0.0,0.0,0.0,0.0,0.0,0.0,0.0,0.0,0.0,0.0,0.0,0.0,0.0,0.0,0.0,0.0,0.0,0.0,0.0,1.5164,1.5253,1.5386,1.693,1.8215,1.9089,1.9165,1.9233,1.9286,2.0106,2.0498,2.0477,1.9544,1.8724,1.7961,1.7026,1.6169,1.5391,1.5391,1.5391,1.5388,1.5323,0.0,0.0,0.0,0.0,0.0,0.0,0.0,0.0,0.0,0.0,0.0,0.0,0.0,1.5098,1.4948,1.4804,1.5142,1.7115,1.7591,1.7835,1.9133,1.9042,1.8575,1.8379,1.8938,1.9679,2.0397,2.2427,2.3811,2.303,2.1895,2.1907,2.4479,2.2966,2.2146,2.4027,2.4315,2.4551,2.5224,2.581,2.6213,2.6282,2.6689,2.6977,2.6977,2.6873,2.6806,2.6806,2.6806,2.6806,2.6806,2.6806,2.6806,2.6806,2.6806,2.6806,2.6806,2.6806,2.6806,2.6806,2.6806,2.6474,2.5975,2.65,2.6096,2.5105,2.5578,2.4735,2.3189,2.3095,2.1994,2.0347,1.9798,1.9539,1.942,0.0,0.0,0.0,0.0,0.0,0.0,0.0,0.0,0.0,0.0,0.0,0.0,0.0,0.0,0.0,0.0,0.0,0.0,0.0,1.5117,1.5636,1.6734,1.7502,1.8549,1.9927,1.9984,2.0013,2.0013,2.0349,2.0219,1.9662,1.8841,1.8001,1.7143,1.6286,1.5703,1.5391,1.5391,1.5391,1.5409,1.536,1.5356,0.0,0.0,0.0,0.0,0.0,0.0,0.0,0.0,1.6014,1.6035,1.5379,1.5149,1.5062,1.484,1.4747,1.4826,1.5379,1.6589,1.7636,1.7403,1.8141,1.9154,1.9916,2.0518,2.1163,2.2099,2.316,2.3944,2.3976,2.3101,2.3026,2.4879,2.3326,2.244,2.3947,2.4717,2.5167,2.5334,2.6214,2.6813,2.6813,2.6842,2.6873,2.6873,2.6832,2.6806,2.6806,2.6806,2.6806,2.6806,2.6806,2.6806,2.6806,2.6806,2.6806,2.6806,2.6806,2.6806,2.6806,2.6806,2.6674,2.6447,2.6313,2.5961,2.5536,2.5398,2.4491,2.3145,2.2385,2.1603,2.0845,2.0384,2.008,1.985,0.0,0.0,0.0,0.0,0.0,0.0,0.0,0.0,0.0,0.0,0.0,0.0,0.0,0.0,0.0,0.0,0.0,0.0,1.5097,1.5124,1.5667,1.6862,1.7522,1.8425,1.9584,2.0179,2.0482,2.0498,2.0492,2.0052,1.9175,1.8372,1.7688,1.7065,1.6208,1.5818,1.5818,1.5818,1.5644,1.5391,1.5391,1.5394,0.0,0.0,0.0,0.0,0.0,0.0,0.0,0.0,1.61,1.6349,1.5374,1.5026,1.4942,1.4742,1.4826,1.4944,1.4907,1.6419,1.7799,1.6907,1.8024,1.9699,2.114,2.1481,2.1759,2.275,2.3539,2.4182,2.4579,2.3989,2.379,2.4823,2.3519,2.2838,2.4137,2.4995,2.5509,2.5645,2.6578,2.7207,2.7207,2.7015,2.6873,2.6873,2.6806,2.6806,2.6806,2.6806,2.6806,2.6806,2.6806,2.6806,2.6806,2.6806,2.6806,2.6806,2.6806,2.6806,2.6806,2.6806,2.6806,2.6779,2.6367,2.6179,2.6138,2.5729,2.4828,2.3594,2.22,2.1575,2.1407,2.0944,2.0646,2.0408,0.0,0.0,0.0,0.0,0.0,0.0,0.0,0.0,1.3412,1.2611,1.3261,0.0,0.0,0.0,0.0,0.0,0.0,0.0,1.5092,1.5156,1.5189,1.5209,1.6874,1.7823,1.7896,1.9528,2.0402,2.05,2.05,2.0032,1.9175,1.8372,1.8,1.7961,1.7104,1.6714,1.6714,1.6714,1.6208,1.541,1.541,1.5401,1.5492,0.0,0.0,0.0,0.0,0.0,0.0,0.0,1.6473,1.6147,1.5276,1.4875,1.4721,1.4712,1.5092,1.5671,1.6398,1.7524,1.8485,1.8416,1.8906,1.9842,2.1429,2.1272,2.1058,2.2012,2.3582,2.4839,2.4971,2.4458,2.4067,2.4271,2.3473,2.3269,2.4602,2.5035,2.5442,2.6105,2.6769,2.7192,2.7192,2.7067,2.7003,2.7003,2.6873,2.6806,2.6806,2.6806,2.6806,2.6806,2.6806,2.6806,2.6806,2.6806,2.6806,2.6806,2.6806,2.6806,2.6806,2.6806,2.6806,2.6806,2.6806,2.6806,2.6806,2.6806,2.605,2.4737,2.2914,2.2137,2.1935,2.1407,2.1115,2.1017,0.0,0.0,0.0,0.0,0.0,0.0,0.0,0.0,1.3467,1.2608,1.3259,0.0,0.0,0.0,0.0,0.0,0.0,0.0,1.5092,1.5113,1.5391,1.6019,1.7122,1.7768,1.782,1.8409,1.9005,1.9584,1.9584,1.9154,1.8352,1.8117,1.8,1.7981,1.7727,1.761,1.761,1.761,1.7104,1.6307,1.6319,1.5956,1.5492,0.0,0.0,0.0,0.0,0.0,0.0,0.0,0.0,0.0,1.5869,1.5663,1.5562,1.5331,1.5886,1.6401,1.5724,1.7088,1.8536,1.7753,1.9345,2.1051,2.0982,2.0836,2.1054,2.218,2.3417,2.4164,2.3674,2.3999,2.4431,2.4685,2.3843,2.3483,2.4384,2.4567,2.4631,2.4838,2.5752,2.6362,2.6362,2.6659,2.6873,2.6873,2.6806,2.6806,2.6806,2.6806,2.6806,2.6806,2.6806,2.6806,2.6806,2.6806,2.6806,2.6806,2.6806,2.6806,2.6806,2.6806,2.6806,2.6806,2.6806,2.6806,2.6747,2.5847,2.5212,2.4694,2.3241,2.2684,2.2578,2.2077,2.1803,2.166,0.0,0.0,0.0,0.0,0.0,0.0,0.0,0.0,1.337,1.2188,1.3068,1.38,0.0,0.0,0.0,1.5096,1.5096,0.0,1.5096,1.5096,1.5494,1.635,1.7213,1.7844,1.8269,1.8413,1.8568,1.8724,1.8724,1.8646,1.847,1.8156,1.8177,1.849,1.849,1.849,1.847,1.8519,1.8016,1.7218,1.7213,1.6692,1.5973,0.0,0.0,0.0,0.0,0.0,0.0,0.0,0.0,0.0,1.5701,1.5467,1.5431,1.5582,1.6014,1.6456,1.6546,1.763,1.8767,1.8975,2.0203,2.133,2.1179,2.1324,2.1611,2.2057,2.2954,2.3357,2.2418,2.3414,2.4331,2.4211,2.3951,2.3931,2.4374,2.4376,2.4346,2.4346,2.5033,2.5641,2.5889,2.6206,2.6515,2.6791,2.6806,2.6806,2.6806,2.6806,2.6806,2.6806,2.6806,2.6806,2.6806,2.6806,2.6806,2.6806,2.6806,2.6806,2.6806,2.6806,2.6806,2.6806,2.6806,2.6806,2.6704,2.54,2.4839,2.4708,2.3395,2.2888,2.2865,2.2578,2.2417,2.2324,0.0,0.0,1.4916,1.4992,0.0,0.0,0.0,1.3287,1.3198,1.1517,1.2765,1.38,0.0,0.0,0.0,1.5096,1.5096,1.5096,1.5096,1.5096,1.5494,1.635,1.711,1.7891,1.874,1.8897,1.8605,1.7883,1.7961,1.8411,1.9175,1.8372,1.8469,1.9311,1.9311,1.9311,1.9313,1.9371,1.891,1.8112,1.8122,1.7598,1.6794,1.6648,0.0,0.0,0.0,0.0,0.0,0.0,0.0,0.0,1.5132,1.478,1.4778,1.5539,1.5747,1.6144,1.8125,1.8591,1.9016,2.1162,2.1266,2.1033,2.1873,2.2394,2.2508,2.1807,2.2294,2.2499,2.1327,2.2688,2.3788,2.3175,2.3829,2.442,2.4482,2.4411,2.4342,2.4304,2.4593,2.5004,2.5585,2.5687,2.6006,2.6675,2.6718,2.6747,2.6806,2.6806,2.6806,2.6806,2.6806,2.6806,2.6806,2.6806,2.6806,2.6806,2.6806,2.6806,2.6806,2.6806,2.6806,2.6806,2.6806,2.6806,2.6704,2.5346,2.4839,2.4762,2.3432,2.2888,2.2888,2.2888,2.2888,2.2888,0.0,0.0,1.4275,1.4964,0.0,0.0,1.2753,1.3271,1.3201,1.152,1.2765,1.38,1.38,1.458,0.0,1.5096,1.5096,1.5096,1.5096,1.5096,1.5494,1.635,1.6565,1.6785,1.7026,1.712,1.7104,1.6987,1.7669,1.8411,1.9175,1.8372,1.8781,2.0227,2.0227,2.0227,2.0229,2.0248,1.9767,1.9029,1.9022,1.8473,1.7573,1.6878,1.6887,0.0,0.0,0.0,0.0,0.0,0.0,0.0,1.556,1.5625,1.5578,1.5503,1.6019,1.6772,1.7436,1.7719,1.8332,2.0473,2.1359,2.1867,2.2426,2.2634,2.2588,2.2167,2.1895,2.1596,2.1183,2.1802,2.2524,2.2889,2.333,2.3827,2.442,2.4252,2.3964,2.3651,2.4133,2.4443,2.433,2.4747,2.5274,2.5952,2.6021,2.6253,2.6777,2.6806,2.6806,2.6806,2.6806,2.6806,2.6806,2.6806,2.6806,2.6806,2.6806,2.6806,2.6806,2.6806,2.6806,2.6806,2.6806,2.6806,2.6704,2.5346,2.481,2.4694,2.3395,2.2888,2.2888,2.2888,2.2888,2.2888,0.0,0.0,0.0,0.0,0.0,0.0,0.0,0.0,1.3949,1.2669,1.3625,1.4427,1.4427,1.4828,0.0,0.0,1.5096,1.5096,1.5096,1.5096,1.5494,1.635,1.6806,1.7048,1.7128,1.6782,1.6843,1.7318,1.7357,1.8001,1.9175,1.8372,1.8898,2.05,2.049,2.0494,2.0497,2.0502,2.0253,1.9863,1.9877,1.9076,1.7855,1.7363,1.6917,1.6495,1.5994,0.0,0.0,0.0,0.0,0.0,0.0,0.0,1.5306,1.5481,1.5882,1.644,1.7239,1.7782,1.8643,2.0822,2.1691,2.2165,2.2758,2.2628,2.2323,2.222,2.1807,2.1355,2.1023,2.1462,2.2011,2.2359,2.3114,2.3783,2.4159,2.422,2.4109,2.3739,2.3821,2.3985,2.4126,2.4417,2.4895,2.5565,2.5878,2.6126,2.6312,2.6631,2.6806,2.6806,2.6806,2.6806,2.6806,2.6806,2.6806,2.6806,2.6806,2.6806,2.6806,2.6806,2.6806,2.6806,2.6806,2.6806,2.6704,2.54,2.4824,2.4655,2.3395,2.2888,2.2888,2.2888,2.2888,2.2888,0.0,0.0,0.0,0.0,0.0,0.0,0.0,0.0,0.0,1.3914,1.4561,1.5096,1.5096,1.5096,1.5096,0.0,0.0,0.0,1.5096,1.5245,1.5647,1.6369,1.7213,1.7651,1.7578,1.7064,1.705,1.7552,1.7129,1.7717,1.9201,1.8378,1.8887,2.049,2.0331,2.0358,2.0479,2.0175,2.0149,2.0265,2.0124,1.9195,1.7853,1.7648,1.6669,1.5383,1.5153,1.5037,1.4976,1.4952,0.0,0.0,0.0,0.0,1.4689,1.5282,1.5397,1.561,1.6813,1.7888,1.9163,2.1268,2.199,2.2312,2.2779,2.2598,2.2276,2.2198,2.1746,2.1276,2.0925,2.1318,2.1742,2.1869,2.2833,2.3588,2.3699,2.4006,2.4101,2.3758,2.3525,2.3596,2.4097,2.4178,2.4512,2.5188,2.5642,2.5825,2.5643,2.6155,2.646,2.6445,2.6562,2.6672,2.6735,2.6788,2.6788,2.6735,2.6556,2.6445,2.646,2.6445,2.6562,2.6806,2.6689,2.6631,2.6544,2.5266,2.4689,2.4534,2.3374,2.2888,2.2888,2.2888,2.2888,2.2888,0.0,0.0,0.0,0.0,0.0,0.0,0.0,0.0,0.0,0.0,1.4561,1.5096,1.5096,1.5096,1.5096,1.5096,1.5096,1.5096,1.5096,0.0,0.0,1.6388,1.7187,1.7315,1.6698,1.7316,1.7014,1.5742,1.7145,1.8323,1.9262,1.8401,1.8892,2.0479,1.9704,1.9785,2.0409,1.8881,1.868,1.9301,1.86,1.8123,1.7732,1.6961,1.6482,1.6135,1.5316,1.4969,1.4906,1.478,1.4723,0.0,0.0,0.0,1.4434,1.4483,1.4404,1.4449,1.5157,1.6897,1.8929,2.0543,2.1961,2.2797,2.22,2.2829,2.3285,2.2299,2.1461,2.0942,2.1039,2.0988,2.1158,2.1807,2.2043,2.2359,2.2961,2.3083,2.2998,2.264,2.3075,2.3325,2.3111,2.3364,2.38,2.4482,2.4338,2.4447,2.4979,2.512,2.5125,2.5071,2.5633,2.6086,2.6436,2.667,2.6696,2.6436,2.5506,2.5085,2.5139,2.5085,2.5694,2.6777,2.6195,2.5948,2.5847,2.4544,2.4022,2.3949,2.32,2.2888,2.2888,2.2888,2.2888,2.2888,0.0,0.0,0.0,0.0,0.0,0.0,0.0,0.0,0.0,0.0,0.0,1.5096,1.5096,1.5096,1.5096,1.5096,1.5096,1.5096,1.5096,1.5914,1.6196,1.576,1.6492,1.6808,1.6555,1.6441,1.6549,1.6851,1.6643,1.7727,1.9956,1.9082,1.9843,2.1914,2.1052,2.087,2.1158,1.989,1.9293,1.9172,1.8769,1.8555,1.8319,1.6962,1.6702,1.6907,1.5544,1.4954,1.4839,1.4785,1.4713,1.4635,1.4614,0.0,0.0,0.0,1.4893,1.5856,1.7267,1.773,1.8405,2.0866,2.1569,2.1667,2.1724,2.1936,2.2223,2.2632,2.1848,2.1071,2.1103,2.1087,2.1167,2.1404,2.1769,2.2119,2.2406,2.2699,2.2771,2.2434,2.2662,2.2775,2.2639,2.3082,2.3517,2.3821,2.4405,2.48,2.4885,2.5256,2.5435,2.542,2.5702,2.5947,2.6114,2.6051,2.583,2.5487,2.5038,2.4824,2.4863,2.5053,2.5336,2.5651,2.5361,2.5255,2.5158,2.4268,2.3891,2.3833,2.3171,2.2888,2.2888,2.2888,2.2888,2.2888,0.0,0.0,0.0,0.0,0.0,0.0,0.0,0.0,0.0,0.0,0.0,1.5096,1.5096,0.0,0.0,0.0,1.5096,1.5096,1.5096,1.5704,1.5908,1.5516,1.6295,1.6681,1.6606,1.6179,1.6412,1.7338,1.6257,1.738,2.0526,2.0068,2.1251,2.3683,2.2378,2.1684,2.1408,2.0537,1.9776,1.9163,1.9119,1.8923,1.8563,1.7708,1.7719,1.7954,1.6287,1.5567,1.5319,1.4897,1.4673,1.4615,1.4794,1.5139,0.0,0.0,0.0,1.6404,1.8298,1.7762,1.7471,2.0855,2.1214,2.0892,2.1487,2.153,2.1664,2.2471,2.1999,2.1387,2.1262,2.1278,2.1278,2.1183,2.1568,2.1889,2.1889,2.2251,2.2394,2.2108,2.2228,2.23,2.2279,2.2793,2.3161,2.3161,2.3989,2.4392,2.4146,2.4615,2.4963,2.5137,2.5296,2.5508,2.5788,2.5561,2.5214,2.4813,2.4666,2.4602,2.4617,2.4906,2.4836,2.4436,2.4635,2.4636,2.452,2.3905,2.3659,2.3601,2.3113,2.2888,2.2888,2.2888,2.2888,2.2888,0.0,0.0,0.0,0.0,0.0,0.0,0.0,0.0,0.0,0.0,0.0,1.5096,1.5096,1.5096,1.5096,1.5096,1.5096,1.5096,1.5096,1.5131,0.0,0.0,1.717,0.0,1.6629,1.7372,1.7025,1.5547,1.6261,1.7987,2.0605,2.1333,2.3025,2.5352,2.2898,2.1346,2.0502,1.9649,1.9199,1.909,1.9101,1.8561,1.7937,1.9434,1.9902,1.9568,1.7881,1.7152,1.6749,1.5145,1.4554,1.4627,1.533,1.4973,1.4558,0.0,0.0,0.0,1.5966,1.5671,1.5879,1.9868,2.1108,2.1408,2.1643,2.246,2.2782,2.1406,2.1461,2.1738,2.1604,2.1419,2.1293,2.1293,2.131,2.1342,2.1342,2.1374,2.1327,2.1183,2.1725,2.2055,2.1948,2.224,2.2442,2.2442,2.2217,2.2072,2.2052,2.2097,2.2405,2.3031,2.3661,2.449,2.5505,2.5499,2.5284,2.4903,2.4312,2.4046,2.4046,2.4067,2.3844,2.3511,2.4148,2.4223,2.3891,2.3229,2.2946,2.2946,2.2902,2.2888,2.2888,2.2888,2.2888,2.2888,0.0,0.0,0.0,0.0,0.0,0.0,0.0,0.0,0.0,0.0,0.0,0.0,0.0,1.5096,1.5096,1.5096,1.5096,1.5113,1.5156,1.5159,0.0,0.0,1.6525,1.6629,1.5856,1.6675,1.6845,1.6225,1.6559,1.7734,1.9723,2.0571,2.1151,2.1521,2.2286,2.2444,2.2015,2.0584,1.9632,1.9132,1.9619,1.9904,2.0029,1.955,1.9998,2.0563,1.8226,1.7334,1.7109,1.6432,1.5826,1.538,1.5656,1.5434,1.5177,1.5532,1.4816,1.4247,1.5782,1.5854,1.6121,1.8683,2.0251,2.1074,2.0788,2.1194,2.1609,2.153,2.091,2.0659,2.1558,2.1678,2.1587,2.1496,2.1481,2.1481,2.1481,2.1388,2.1277,2.123,2.136,2.1439,2.1389,2.182,2.207,2.207,2.2371,2.2549,2.2549,2.2549,2.2643,2.2876,2.3122,2.3534,2.4157,2.4157,2.4204,2.431,2.4088,2.4003,2.4003,2.4213,2.4114,2.3797,2.4268,2.4006,2.3244,2.2989,2.2888,2.291,2.3127,2.3224,2.3224,2.3224,2.337,2.356,0.0,0.0,0.0,1.61,0.0,1.5482,1.5213,1.5405,1.5462,1.5194,0.0,0.0,0.0,0.0,1.5891,1.5597,1.5578,1.5459,1.5224,1.5207,0.0,0.0,1.6417,1.6666,1.5857,1.6976,1.7296,1.6699,1.6698,1.742,1.8819,1.9665,2.0071,2.0151,2.1863,2.2447,2.2094,2.1493,2.055,1.9568,2.0623,2.118,2.1378,2.1111,2.1471,2.18,1.9471,1.8535,1.8304,1.7595,1.6993,1.6523,1.6451,1.6162,1.5692,1.4922,1.4478,1.4401,1.5162,1.541,1.6075,1.8618,1.9556,2.0123,2.1148,2.0834,2.0472,2.0969,2.0276,1.9912,2.0886,2.1251,2.1553,2.1959,2.1829,2.1746,2.1993,2.1705,2.1449,2.1403,2.1246,2.1151,2.1087,2.1354,2.1521,2.1521,2.1949,2.2202,2.2202,2.2202,2.2313,2.2517,2.2772,2.3119,2.3565,2.3565,2.3825,2.4338,2.4338,2.4338,2.4343,2.458,2.4482,2.4172,2.4395,2.4024,2.3268,2.3268,2.3268,2.3275,2.3523,2.353,2.3428,2.3551,2.3696,2.3782,1.6529,1.718,1.7722,1.7752,1.706,1.6244,1.5453,1.6012,1.6264,1.5474,0.0,0.0,0.0,0.0,0.0,1.6612,1.6515,1.6145,1.5306,1.5231,1.5231,1.5349,1.6986,1.7527,1.6716,1.8414,1.8421,1.6661,1.6719,1.7143,1.7941,1.8778,2.0062,2.1681,2.1643,2.1172,2.0496,2.212,2.1828,2.0377,2.1999,2.2168,2.1708,2.4154,2.4411,2.3248,2.1626,2.0858,2.0328,1.8541,1.7974,1.7995,1.7755,1.7042,1.5961,1.4234,1.4298,1.4749,0.0,0.0,0.0,1.9534,1.9047,1.8632,2.2614,2.1447,1.9535,1.9551,1.9535,1.9518,1.9551,2.0158,2.1133,2.2642,2.2294,2.2094,2.2824,2.2294,2.1786,2.1636,2.145,2.1262,2.1119,2.0909,2.0794,2.0794,2.0794,2.0794,2.0794,2.0794,2.111,2.1739,2.2453,2.3149,2.3825,2.3856,2.4239,2.4954,2.5005,2.5005,2.5005,2.5005,2.4806,2.4518,2.4518,2.4333,2.4024,2.4003,2.4003,2.4003,2.4003,2.3782,2.3486,2.3861,2.376,2.3493,1.7559,1.762,1.7589,1.6977,1.6651,1.6418,1.6205,1.6886,1.7353,0.0,0.0,0.0,1.7801,1.7801,1.7704,1.7469,1.6866,1.6411,1.6225,1.5622,1.5573,1.6284,1.7385,1.7567,1.6712,1.8413,1.8141,1.5761,1.7029,1.712,1.6155,1.7599,1.8483,1.8934,1.9549,1.998,2.0292,2.075,2.1012,2.1182,2.1589,2.1911,2.2148,2.2268,2.2401,2.2335,2.0573,2.0264,2.0492,1.9305,1.8838,1.8559,1.7684,1.6879,1.6008,1.4836,1.5072,1.5401,1.4053,0.0,0.0,0.0,0.0,0.0,1.9127,1.865,1.8099,1.8691,1.7988,1.759,1.8621,1.8969,1.9942,2.2477,2.2725,2.2841,2.3586,2.3056,2.2577,2.2531,2.1806,2.1294,2.1262,2.0974,2.0794,2.0794,2.0794,2.0794,2.0794,2.0794,2.0889,2.1079,2.1268,2.1726,2.2453,2.2927,2.3512,2.4207,2.4748,2.5005,2.5005,2.5005,2.4946,2.4866,2.4866,2.4806,2.4686,2.4213,2.4003,2.4024,2.4271,2.4297,2.4213,2.4317,2.4426,2.4533,1.7457,1.7593,1.7796,1.7655,1.7346,1.7247,1.7581,1.7773,1.8006,0.0,0.0,0.0,1.8885,1.9257,1.9046,1.7986,1.7754,1.7373,1.6683,1.6167,1.6295,1.7201,1.7379,1.74,1.7244,1.8242,1.8008,1.6483,1.7112,1.6896,1.5926,1.687,1.7302,1.729,1.8132,1.8759,1.9154,1.9131,1.9801,2.0976,2.1571,2.1844,2.1919,2.2092,2.1926,2.1489,2.0455,2.0333,2.0554,1.9835,1.9443,1.9071,1.8043,1.7444,1.686,1.5618,1.5807,1.6154,1.4942,1.521,1.6062,1.7041,0.0,0.0,1.9802,1.8781,1.7789,1.9251,1.8643,1.7985,1.8419,1.9002,1.9975,2.1713,2.2508,2.3255,2.4315,2.3818,2.3354,2.3354,2.2735,2.2281,2.2183,2.1696,2.1354,2.1269,2.0968,2.0794,2.0794,2.0794,2.0794,2.0794,2.0794,2.1142,2.1884,2.2297,2.2835,2.3496,2.4191,2.4523,2.4559,2.4859,2.5005,2.5005,2.5005,2.5005,2.4966,2.4584,2.4421,2.4441,2.4625,2.462,2.4518,2.4661,2.4726,2.4766,0.0,1.7309,1.8038,1.8916,1.849,1.8295,1.9217,1.8747,1.8572,0.0,1.9495,1.9813,2.0685,2.1388,2.0885,1.861,1.8865,1.8494,1.6952,1.6757,1.7089,1.7968,1.7264,1.7205,1.7987,1.7986,1.7903,1.7708,1.7054,1.6674,1.6586,1.6628,1.6637,1.6654,1.7273,1.761,1.7676,1.7707,1.8567,2.0036,2.1432,2.1713,2.1436,2.2691,2.2301,2.1023,2.09,2.086,2.0803,2.0282,1.9905,1.951,1.8763,1.852,1.8223,1.6705,1.6743,0.0,1.6364,1.6226,0.0,1.9606,1.8427,0.0,2.2215,2.0204,1.8078,2.0368,2.018,1.9365,1.8621,1.9565,2.0536,2.0785,2.1928,2.3321,2.4878,2.4547,2.4116,2.4116,2.3852,2.3601,2.3414,2.2711,2.2204,2.2013,2.1331,2.0921,2.0921,2.0842,2.0794,2.0794,2.0794,2.111,2.1774,2.1853,2.2202,2.2803,2.348,2.3825,2.392,2.459,2.4906,2.5005,2.5005,2.5005,2.5005,2.5005,2.5005,2.5005,2.5005,2.4806,2.46,2.4886,2.4806,2.46,1.7758,1.731,1.7214,1.8078,1.8097,1.8515,2.0017,2.0115,2.0314,2.1185,2.1283,2.1616,2.2496,2.2125,2.1598,2.1092,1.9334,1.8103,1.7771,1.709,1.7089,1.7968,1.7849,1.7827,1.8003,1.795,1.7255,1.5909,1.7025,1.7217,1.653,1.7176,1.7462,1.7432,1.6899,1.6987,1.7571,1.816,1.8569,1.8858,1.926,2.0389,2.1794,2.1403,2.18,2.2407,2.1062,2.1424,2.2356,2.126,2.0408,1.9868,1.9957,1.9584,1.9061,1.8734,1.8752,1.8689,1.7959,1.8183,1.8577,1.8325,1.7747,0.0,1.9248,1.8235,1.75,1.9468,1.8732,1.7843,1.8264,1.8663,1.9498,2.1298,2.1829,2.2742,2.4812,2.4978,2.4895,2.4895,2.4046,2.3448,2.3398,2.3005,2.2762,2.2708,2.2058,2.1696,2.1696,2.111,2.0794,2.0794,2.0794,2.0857,2.1015,2.16,2.1963,2.209,2.2769,2.337,2.3904,2.4065,2.4428,2.5005,2.5005,2.5005,2.5005,2.5005,2.5005,2.5005,2.5005,2.4946,2.4906,2.4966,2.4946,2.4906,1.6875,1.7054,1.7485,1.7913,1.8361,1.9204,2.0891,2.0774,2.0971,2.2283,2.283,2.3104,2.3105,2.2715,2.2109,2.1269,2.0038,1.8925,1.8066,1.7595,1.7532,1.7936,1.715,1.6888,1.7286,1.6835,1.6392,1.6,1.6776,1.6927,1.6502,1.6806,1.716,1.749,1.6189,1.6498,1.7974,1.7495,1.795,1.9082,1.9982,2.0751,2.1346,2.1261,2.1725,2.2281,2.1455,2.1614,2.2117,2.1363,2.1015,2.0844,2.0512,2.067,2.0837,2.0067,2.013,2.0286,1.951,1.9568,1.982,1.9691,1.9181,0.0,0.0,1.9236,1.8555,2.0916,2.0143,1.9201,1.9707,1.985,2.0266,2.1376,2.1337,2.1878,2.3965,2.4413,2.4547,2.4547,2.3965,2.3646,2.3914,2.341,2.3022,2.2898,2.2598,2.2408,2.2408,2.1726,2.1347,2.1347,2.0984,2.0794,2.0794,2.1158,2.1347,2.1363,2.2058,2.258,2.2927,2.3588,2.4093,2.446,2.4843,2.5005,2.5005,2.5005,2.5005,2.5005,2.5005,2.5005,2.5005,2.5005,2.5005,2.5005,1.5701,1.6678,1.7792,1.7966,1.8845,2.0096,2.1796,2.1445,2.1562,2.3144,2.3945,2.4101,2.3412,2.3314,2.2762,2.1401,2.1009,2.0209,1.8803,1.8395,1.8193,1.8132,1.6534,1.6015,1.6825,1.5827,1.5638,1.634,1.6578,1.6606,1.6468,1.6604,1.6928,1.733,1.6073,1.6613,1.8372,1.7182,1.7938,2.0067,2.1422,2.1634,2.1203,2.18,2.2125,2.2253,2.2253,2.2054,2.176,2.1672,2.1878,2.2037,2.1195,2.1749,2.2457,2.1216,2.1302,2.1664,2.1027,2.0946,2.1157,2.1601,2.1208,2.1075,0.0,0.0,0.0,2.2534,2.1828,2.0865,2.1092,2.1098,2.1083,2.1115,2.0962,2.1415,2.2993,2.3489,2.3737,2.3885,2.3735,2.3777,2.4218,2.3444,2.2917,2.2916,2.2787,2.2756,2.2898,2.2266,2.1884,2.1884,2.1173,2.0794,2.0794,2.086,2.0893,2.0893,2.1563,2.1947,2.2123,2.3333,2.3986,2.4146,2.4901,2.5166,2.5107,2.5185,2.5127,2.5005,2.5005,2.5005,2.5005,2.5005,2.5005,2.5005,1.5585,1.6189,1.7088,1.7869,1.9315,2.0957,2.2694,2.287,2.3141,2.413,2.4288,2.4273,2.4175,2.4118,2.4007,2.3808,2.2438,2.15,2.1284,1.9834,1.8962,1.8958,1.7352,1.6866,1.7732,1.6144,1.5347,1.5446,1.6753,1.7028,1.6341,1.7705,1.7958,1.7334,1.7843,1.8173,1.8351,1.8883,2.0052,2.1562,2.1746,2.2187,2.2758,2.2832,2.3309,2.3933,2.3933,2.3437,2.2914,2.3414,2.3419,2.3181,2.2888,2.274,2.2664,2.2492,2.2509,2.2561,2.2457,2.2923,2.3213,2.2337,2.2587,2.2878,2.238,0.0,2.1645,2.2203,0.0,2.0457,2.0497,0.0,0.0,2.04,2.1405,2.2264,2.2475,2.254,2.2817,2.3485,2.3377,2.3285,2.3348,2.2515,2.2234,2.2851,2.236,2.2281,2.2866,2.2266,2.1869,2.182,2.1158,2.0794,2.0794,2.1087,2.123,2.1246,2.1638,2.2107,2.2734,2.3523,2.4264,2.4922,2.5648,2.5762,2.5465,2.5834,2.5591,2.5005,2.5005,2.5005,2.5005,2.5005,2.5005,2.5005,1.5565,1.6912,1.8162,1.8026,1.9412,2.1129,2.2844,2.4743,2.5975,2.5853,2.6646,2.7021,2.6562,2.5585,2.4942,2.4942,2.3387,2.1987,2.1016,2.0725,2.0152,1.9134,1.8437,1.7962,1.778,1.6528,1.5648,1.5183,1.6239,1.6318,1.551,1.6597,1.7428,1.7991,1.774,1.8394,1.9678,1.9468,1.9766,2.0435,2.1408,2.1996,2.2409,2.3345,2.3914,2.419,2.419,2.4157,2.3977,2.3223,2.3356,2.3658,2.2576,2.2452,2.2699,2.2699,2.2699,2.2699,2.2699,2.3233,2.3602,2.2706,2.3069,2.3428,2.2661,2.2071,2.1895,2.2685,0.0,0.0,0.0,0.0,0.0,0.0,2.0396,2.0221,2.0799,2.0253,2.0553,2.2621,2.2341,2.2254,2.2945,2.2665,2.2738,2.3433,2.2451,2.2309,2.3417,2.2833,2.256,2.2719,2.2031,2.1569,2.1371,2.1509,2.1587,2.1602,2.1738,2.1947,2.2231,2.2943,2.3654,2.4398,2.5143,2.5601,2.5854,2.6034,2.6171,2.6287,2.6287,2.5754,2.5005,2.5005,2.5005,2.5005,1.6183,1.7813,1.9109,1.8465,1.9789,2.1578,2.3461,2.6022,2.7537,2.6955,2.7867,2.8365,2.7771,2.6567,2.5909,2.6142,2.4782,2.3195,2.1514,2.1552,2.1153,2.0084,1.9375,1.8904,1.8631,1.7301,1.6204,1.54,1.5894,1.5813,1.5202,1.5717,1.6705,1.8081,1.7797,1.8775,2.0626,2.0404,2.0564,2.106,2.2051,2.2584,2.2896,2.385,2.419,2.419,2.419,2.4557,2.4835,2.3569,2.3671,2.4096,2.2815,2.2547,2.2699,2.2699,2.2699,2.2664,2.2457,2.3078,2.3578,2.263,2.3095,2.3612,2.2871,2.244,2.2443,2.3269,2.2691,0.0,0.0,0.0,2.1444,2.117,0.0,1.9652,1.9964,1.9135,1.9307,2.1424,2.1295,2.1356,2.2251,2.2171,2.2362,2.3133,2.2244,2.218,2.3388,2.3275,2.3142,2.3103,2.2703,2.2244,2.1797,2.1884,2.1897,2.1897,2.2001,2.2061,2.2077,2.2754,2.349,2.4242,2.4978,2.5664,2.6263,2.6385,2.6733,2.7203,2.7329,2.6778,2.5921,2.5921,2.5858,2.5739,1.7735,1.8566,1.9284,1.9265,2.0653,2.259,2.5049,2.622,2.6838,2.6819,2.6796,2.6764,2.6745,2.6646,2.69,2.7747,2.6996,2.5765,2.4095,2.2436,2.1779,2.2362,2.0093,1.9497,2.0957,1.8612,1.6976,1.6156,1.6067,1.5982,1.5958,1.5853,1.6251,1.7117,1.865,1.9761,2.0603,2.2217,2.3786,2.5136,2.442,2.4585,2.5209,2.4475,2.419,2.419,2.419,2.4704,2.5383,2.5328,2.4969,2.4569,2.4516,2.3666,2.2699,2.2699,2.2699,2.2543,2.182,2.2699,2.3457,2.1992,2.2733,2.3612,2.2871,2.3233,2.375,2.3788,2.412,2.4401,2.4437,2.4138,2.3201,2.1062,2.1801,0.0,0.0,2.0248,1.9981,1.9909,2.0431,2.0826,2.0857,2.0289,2.0305,2.131,2.1342,2.1617,2.2312,2.3309,2.3391,2.2361,2.27,2.2525,2.1812,2.2053,2.2178,2.2192,2.2535,2.2672,2.2689,2.343,2.4204,2.5011,2.5736,2.6304,2.6708,2.7105,2.7233,2.7238,2.7616,2.7981,2.8301,2.8301,2.7994,2.7612,1.9522,2.0251,2.0529,1.9363,2.0597,2.2392,2.4336,2.7253,2.9033,2.8461,2.9791,3.0808,3.0808,2.9792,2.9231,2.9519,2.8275,2.6691,2.4889,2.4293,2.4041,2.4087,2.2309,2.176,2.2735,2.0238,1.8527,1.7718,1.7053,1.7008,1.751,1.6384,1.6867,1.868,1.9184,1.9829,2.0698,2.2877,2.3087,2.2025,2.2826,2.3935,2.5113,2.5021,2.4658,2.419,2.419,2.4567,2.4997,2.4509,2.4468,2.4516,2.3974,2.3519,2.3146,2.2998,2.2952,2.2862,2.244,2.3784,2.4836,2.2819,2.3836,2.4853,2.3095,2.3681,2.4301,2.3285,2.4402,2.5253,2.421,2.3935,2.3578,2.2688,2.2498,2.1891,0.0,1.9405,1.9331,2.0285,2.0638,2.0984,2.1474,2.1086,2.1343,2.267,2.2096,2.2172,2.3309,2.4199,2.4165,2.2999,2.3572,2.3403,2.2415,2.2494,2.2531,2.2531,2.2659,2.2699,2.2699,2.2957,2.3784,2.5023,2.5264,2.6031,2.7139,2.7768,2.8304,2.8782,2.947,3.0102,3.0466,2.8963,2.831,2.8174,2.1191,2.1465,2.1287,2.0204,2.1432,2.3118,2.4802,2.7859,2.9699,2.8854,3.0378,3.166,3.1987,3.0775,3.0058,3.0365,2.9121,2.7295,2.4826,2.5291,2.5263,2.4393,2.3694,2.3504,2.3915,2.196,2.0272,1.889,1.8564,1.8525,1.8729,1.7386,1.7694,1.9409,1.9601,1.9935,2.0551,2.3507,2.3492,2.1575,2.2616,2.3821,2.4983,2.4769,2.4657,2.464,2.4722,2.4897,2.5023,2.4748,2.4642,2.4522,2.388,2.3442,2.3122,2.3003,2.297,2.2932,2.2751,2.3957,2.4922,2.3457,2.4198,2.4905,2.3422,2.3853,2.4284,2.3302,2.4698,2.587,2.518,2.5042,2.4913,2.4491,2.3525,2.2031,0.0,1.9399,1.9614,2.0246,2.0451,2.1006,2.2132,2.136,2.1519,2.3325,2.2489,2.2562,2.4028,2.4976,2.4922,2.3752,2.4313,2.412,2.3095,2.2836,2.2699,2.2699,2.2699,2.2699,2.2699,2.2974,2.3784,2.5023,2.5281,2.6264,2.773,2.8196,2.9006,2.9972,3.0489,3.1145,3.1607,3.0151,2.9496,2.9343,2.272,2.2254,2.1799,2.1986,2.3195,2.4728,2.64,2.8044,2.8838,2.8126,2.8717,2.9558,3.0469,2.9738,2.9527,3.0367,2.9642,2.7706,2.4342,2.5525,2.5544,2.3705,2.4251,2.4607,2.4611,2.3694,2.2107,1.985,2.05,2.0455,1.9757,1.8788,1.8665,1.9305,1.9964,2.0164,2.0259,2.4218,2.5171,2.402,2.3919,2.4342,2.4917,2.3864,2.4266,2.5381,2.5591,2.5527,2.5397,2.5916,2.5475,2.4682,2.437,2.3615,2.2868,2.2855,2.2842,2.2832,2.2819,2.3388,2.3957,2.3888,2.3922,2.3957,2.3888,2.3888,2.3888,2.3819,2.5094,2.6419,2.7057,2.7282,2.7092,2.6283,2.487,2.2773,1.9644,2.0412,2.0914,1.9984,2.0105,2.0913,2.2594,2.1052,2.092,2.3211,2.2559,2.2794,2.4501,2.5579,2.5661,2.455,2.4874,2.4646,2.3819,2.3078,2.2699,2.2699,2.2699,2.2716,2.2785,2.3491,2.4267,2.5092,2.5799,2.6956,2.8403,2.8437,2.9334,3.0714,3.0748,3.1179,3.18,3.18,3.1523,3.1083,2.3836,2.4586,2.552,2.6193,2.5586,2.5563,2.7299,2.8434,2.9261,2.9692,3.0363,3.1376,3.2831,3.1562,3.0685,3.0894,3.0171,2.9008,2.7352,2.7127,2.6997,2.6898,2.5429,2.5122,2.6265,2.4251,2.3211,2.3246,2.1595,2.1309,2.2237,1.9953,1.9402,2.0344,2.087,2.118,2.1561,2.5585,2.7206,2.6951,2.5539,2.5095,2.5232,2.466,2.4587,2.4743,2.4204,2.4097,2.4224,2.4378,2.4758,2.5199,2.5117,2.5154,2.52,2.5045,2.4826,2.4599,2.4458,2.5385,2.6126,2.4974,2.5557,2.6109,2.4954,2.5111,2.518,2.4043,2.5939,2.7351,2.5868,2.6971,2.7868,2.7109,2.5695,2.4391,2.356,2.2791,2.2644,2.3514,2.2989,2.2132,2.1004,2.1638,2.2367,2.3038,2.3786,2.4655,2.5642,2.6526,2.6337,2.492,2.5478,2.5163,2.3819,2.3078,2.2699,2.2699,2.2699,2.2992,2.3526,2.3715,2.4543,2.5833,2.6008,2.6956,2.8437,2.8989,2.9799,3.0748,3.13,3.1627,3.18,3.18,3.1727,3.1615,2.5625,2.7101,2.8503,2.9282,2.8587,2.8255,2.927,2.9525,2.9589,2.9607,3.0276,3.1089,3.2049,3.1849,3.1469,3.1137,3.0682,2.9706,2.799,2.8154,2.7927,2.7093,2.646,2.6199,2.6377,2.5002,2.4352,2.45,2.271,2.2312,2.3139,2.0865,2.0034,2.0525,2.1395,2.1794,2.2018,2.5371,2.6926,2.7063,2.6003,2.5578,0.0,2.5379,2.5223,2.5093,2.4496,2.4444,2.4756,2.5326,2.5757,2.6003,2.5503,2.5655,2.5925,2.5469,2.5433,2.5588,2.567,2.6333,2.6827,2.6172,2.6385,2.6557,2.5678,2.5557,2.537,2.4491,2.5712,2.673,2.6109,2.6506,2.6782,2.635,2.5574,2.4885,2.4508,2.3733,2.3267,2.3488,2.373,2.2897,2.0406,2.156,2.2662,2.3145,2.3748,2.4611,2.5807,2.627,2.635,2.6023,2.5404,2.4853,2.4319,2.3233,2.2699,2.2699,2.2699,2.3095,2.3819,2.4163,2.4974,2.6128,2.6816,2.7782,2.8937,2.9713,3.0472,3.1214,3.1627,3.18,3.18,3.18,3.18,3.18,2.7744,2.9409,3.0676,3.1264,3.16,3.1729,3.166,3.0989,3.0147,2.9211,2.9729,3.024,3.0335,3.1484,3.1948,3.1239,3.1182,3.0223,2.7947,2.9008,2.8708,2.6433,2.7464,2.7445,2.6033,2.5912,2.5522,2.4816,2.3731,2.3203,2.3165,2.1435,2.0474,2.0282,2.1657,2.2373,2.2625,2.4685,2.5825,2.6229,2.5887,2.5872,2.6036,2.5892,2.5825,2.5806,2.5623,2.5654,2.5964,2.7032,2.7211,2.6809,2.5812,2.5795,2.5991,2.5306,2.5604,2.6226,2.6623,2.6775,2.689,2.7293,2.687,2.635,2.635,2.5749,2.5201,2.5201,2.5259,2.5678,2.6919,2.6057,2.5109,2.5023,2.5074,2.4885,2.4077,2.4129,0.0,2.194,2.3502,0.0,2.0437,2.1412,2.2478,2.3067,2.2962,2.36,2.5279,2.53,2.5851,2.7109,2.506,2.4284,2.4988,2.3457,2.275,2.2836,2.2836,2.3285,2.4129,2.4818,2.5594,2.6473,2.7816,2.8885,2.9713,3.0403,3.1127,3.18,3.18,3.18,3.18,3.18,3.18,3.18,2.9554,3.0276,3.1013,3.114,3.2878,3.398,3.3109,3.2373,3.1858,3.1679,3.1695,3.1975,3.2634,3.2208,3.1829,3.168,3.168,3.1483,3.1012,3.0639,3.0219,2.975,2.869,2.7966,2.7687,2.7037,2.6609,2.6479,2.4288,2.3203,2.3157,2.1141,2.0263,2.0424,2.1613,2.3632,2.6165,2.5941,2.6949,2.8513,2.6344,2.6007,2.6701,2.5826,2.5487,2.5561,2.6176,2.6149,2.5786,2.5737,2.6237,2.6885,2.6677,2.6963,2.7349,2.7225,2.7278,2.7401,2.7484,2.7674,2.786,2.7946,2.7844,2.7755,2.7755,2.7021,2.6311,2.6311,2.6633,2.6782,2.6385,2.6092,2.5697,2.5109,2.5523,2.5661,2.4902,2.5885,2.5643,0.0,2.448,2.4382,2.0708,2.2589,2.3357,2.1705,2.23,2.3144,2.4076,2.4096,2.4778,2.6249,2.5333,2.4867,2.5005,2.3457,2.3009,2.3612,2.3612,2.4336,2.5697,2.5835,2.6663,2.8006,2.8282,2.9196,3.0489,3.0645,3.1127,3.18,3.18,3.18,3.18,3.18,3.18,3.18,3.065,3.1879,3.3024,3.2901,3.4249,3.5157,3.4532,3.4162,3.3505,3.2206,3.1992,3.2096,3.2491,3.2829,3.289,3.2462,3.2302,3.1968,3.1429,3.1541,3.1143,3.0028,2.9601,2.8988,2.8114,2.6907,2.6684,2.752,2.4195,2.2965,2.3665,2.149,2.042,2.0452,2.3023,2.5052,2.657,2.7228,2.7259,2.6845,2.6682,2.6672,2.6792,2.6792,2.6917,2.7063,2.7141,2.7201,2.7194,2.6859,2.7201,2.7705,2.7297,2.7632,2.8076,2.767,2.783,2.8138,2.7954,2.8134,2.8321,2.8143,2.8102,2.8102,2.8102,2.7721,2.7376,2.7376,2.6919,2.6132,2.4795,2.5171,2.5545,2.5072,2.5626,2.6111,2.6178,2.6471,2.5833,2.3543,0.0,0.0,2.132,2.2904,2.3153,2.0763,2.1708,2.2562,2.2945,2.2934,2.3893,2.6025,2.4609,2.4181,2.4988,2.3853,2.3664,2.4422,2.4801,2.5801,2.7299,2.7299,2.792,2.8989,2.9403,3.0006,3.0713,3.111,3.1472,3.18,3.18,3.18,3.18,3.18,3.18,3.1748,3.1516,3.2845,3.4154,3.4394,3.4989,3.528,3.4791,3.5398,3.5064,3.263,3.2314,3.2314,3.2314,3.3436,3.3937,3.3317,3.3064,3.2581,3.1745,3.247,3.2191,3.0493,3.0697,3.0158,2.8653,2.739,2.7092,2.7836,2.4631,2.3449,2.422,2.231,2.123,2.1018,2.4298,2.5787,2.5928,2.7561,2.7101,2.539,2.6873,2.725,2.7014,2.7788,2.825,2.843,2.7957,2.8079,2.8469,2.8281,2.8334,2.8373,2.7747,2.7982,2.8373,2.7729,2.805,2.8551,2.8281,2.8443,2.8614,2.836,2.8277,2.8277,2.8277,2.8255,2.8197,2.8197,2.7053,2.5493,2.374,2.4365,2.5032,2.4667,2.523,2.5841,2.6262,2.5919,2.4974,2.3285,0.0,0.0,2.1509,2.2406,2.2314,2.0488,2.1204,2.1762,2.1817,2.1762,2.294,2.5542,2.3715,2.3353,2.4732,2.4129,2.4284,2.5247,2.6006,2.7161,2.8627,2.8627,2.9041,2.9799,3.042,3.0782,3.099,3.1558,3.18,3.18,3.18,3.18,3.18,3.18,3.18,3.1662,3.2378,3.1857,3.1968,3.388,3.4308,3.3861,3.237,3.5089,3.6519,3.4271,3.3974,3.3974,3.3974,3.4104,3.416,3.4086,3.4067,3.4011,3.39,3.3993,3.3956,3.3751,3.2425,3.1273,3.0381,3.0214,2.9099,2.6999,2.6628,2.5773,2.4455,2.3819,2.3239,2.2814,2.4141,2.4903,2.5219,2.5649,2.6439,2.7376,2.6887,2.7201,2.7968,2.8066,2.8129,2.8143,2.8088,2.8102,2.8183,2.8456,2.836,2.8125,2.8054,2.8089,2.8125,2.8054,2.8293,2.8589,2.8563,2.8755,2.897,2.8917,2.8917,2.8917,2.8917,2.8731,2.8551,2.8551,2.7612,2.632,2.4753,2.4563,2.4353,2.3423,2.3898,2.4086,2.3256,2.3646,2.3198,2.098,2.0773,0.0,2.0532,2.0636,2.0928,2.1403,2.0892,2.0565,2.0565,2.0565,2.1627,2.3926,2.3164,2.3095,2.3905,2.3836,2.4543,2.6008,2.6816,2.7954,2.9403,2.9403,2.9834,3.0575,3.0679,3.1076,3.1696,3.1765,3.18,3.18,3.18,3.18,3.18,3.18,3.18,3.1593,3.4606,3.4241,3.3999,3.416,3.5033,3.5813,3.6129,3.6649,3.6705,3.5813,3.5287,3.5033,3.52,3.4606,3.4197,3.4197,3.4197,3.4197,3.4197,3.4197,3.39,3.3268,3.2778,3.2147,3.1348,3.0846,3.0103,2.9118,2.8114,2.7248,2.6512,2.5279,2.4667,2.4691,2.619,2.6626,2.6257,2.7411,2.7647,2.7303,2.7477,2.778,2.8102,2.8102,2.8224,2.8373,2.817,2.8316,2.8711,2.9163,2.8923,2.843,2.8583,2.8533,2.8404,2.8404,2.8513,2.8601,2.8601,2.881,2.9005,2.9005,2.9005,2.9005,2.9005,2.8917,2.8846,2.8846,2.8088,2.7061,2.5792,2.557,2.5482,2.5235,2.5437,2.5428,2.4827,2.4612,2.4181,2.3267,2.2733,2.263,2.3112,2.2716,2.2565,2.2905,2.1802,2.132,2.1768,2.1785,2.2612,2.4456,2.3767,2.3733,2.4508,2.4956,2.5939,2.7506,2.873,2.9868,3.0886,3.0886,3.1058,3.1351,3.1351,3.1524,3.18,3.18,3.18,3.18,3.18,3.18,3.18,3.18,3.1524,3.0972,3.5423,3.4643,3.4346,3.5442,3.6612,3.7782,3.8934,3.8135,3.7411,3.7411,3.6922,3.6259,3.5466,3.468,3.4197,3.4197,3.4197,3.4197,3.4197,3.4197,3.3863,3.3101,3.325,3.2983,3.2165,3.1608,3.1069,3.0604,2.9415,2.8676,2.8302,2.6757,2.6088,2.6226,2.7257,2.7441,2.7067,2.8313,2.8398,2.7762,2.8345,2.8662,2.879,2.8667,2.876,2.8889,2.8424,2.852,2.8949,2.9323,2.906,2.8729,2.9466,2.9576,2.9422,2.9422,2.9258,2.9076,2.9076,2.9052,2.9005,2.9005,2.9005,2.9005,2.9005,2.9005,2.8932,2.8693,2.8007,2.7211,2.6453,2.6111,2.6084,2.6436,2.6415,2.618,2.566,2.4856,2.4319,2.4319,2.3233,2.3043,2.4508,2.3733,2.3422,2.4095,2.3388,2.294,2.3026,2.3026,2.3526,2.4612,2.4095,2.4181,2.4988,2.5715,2.6988,2.8747,3.0058,3.1076,3.18,3.18,3.18,3.18,3.18,3.18,3.18,3.18,3.18,3.18,3.18,3.1662,3.1472,3.1472,3.1163,3.0575,3.4011,3.1663,3.1496,3.7912,3.9064,3.9082,3.9101,3.9082,3.9064,3.9064,3.9064,3.7819,3.4569,3.4197,3.4197,3.4197,3.4197,3.4197,3.4197,3.4197,3.4179,3.4179,3.4179,3.3807,3.3001,3.2983,3.2184,3.0604,3.0586,3.0158,2.9359,2.8278,2.7591,2.7248,2.6476,2.6531,2.7198,2.7216,2.8065,2.938,2.9463,2.9875,3.0435,3.0025,2.9831,2.9676,2.8878,2.8601,2.8619,2.8619,2.8619,2.8911,3.079,3.1366,3.1366,3.1366,3.0797,3.0179,3.0179,2.9592,2.9005,2.9005,2.9005,2.9005,2.9005,2.9005,2.8767,2.797,2.7163,2.6602,2.6602,2.5952,2.5578,2.6116,2.5973,2.5463,2.4456,2.3393,2.2733,2.2733,2.0734,2.0532,2.3526,2.2492,2.2574,2.4816,2.5643,2.5387,2.3871,2.3802,2.3802,2.3819,2.3819,2.4181,2.4988,2.5715,2.7247,2.9506,3.03,3.1076,3.18,3.18,3.18,3.18,3.18,3.18,3.18,3.18,3.18,3.18,3.18,3.1351,3.0696,3.0696,3.0714,3.0575,3.7466,3.6723,3.6668,3.8729,3.9101,3.9101,3.9101,3.9101,3.9101,3.9101,3.9101,3.8692,3.7652,3.6556,3.6352,3.7429,3.5479,3.468,3.5844,3.4829,3.4197,3.4197,3.4197,3.4067,3.3807,3.3807,3.3287,3.224,3.224,3.1733,3.0757,3.0992,3.0625,2.981,2.9557,2.9575,2.9797,2.9995,3.0312,3.0704,3.0925,3.0945,3.0821,3.0694,3.0622,3.0523,3.0252,3.0306,3.0594,3.1143,3.1344,3.1539,3.2661,3.1531,2.9879,3.0411,3.0393,3.032,3.087,3.043,2.9824,2.9824,2.9409,2.9005,2.9005,2.9005,2.8767,2.797,2.7603,2.7255,2.6704,2.6833,2.7024,2.703,2.741,2.7097,2.531,2.4309,2.3711,2.3484,2.2371,2.2406,2.4422,2.3698,2.3405,2.4129,2.4919,2.5367,2.537,2.5902,2.5712,2.4646,2.5643,2.6057,2.5749,2.7523,2.9058,3.0317,3.1093,3.1576,3.18,3.18,3.18,3.18,3.18,3.18,3.1765,3.1248,3.1041,3.1007,3.0455,3.0093,2.9955,3.0489,3.0351,2.992,3.9101,3.9101,3.9101,3.9101,3.9101,3.9101,3.9101,3.9101,3.9101,3.9101,3.9101,3.9101,3.9101,3.8191,3.8005,3.9008,3.7225,3.6222,3.6681,3.6278,3.5683,3.4866,3.5033,3.5008,3.4692,3.4692,3.4271,3.3436,3.315,3.2445,3.1378,3.1874,3.1761,3.1099,3.0998,3.1011,3.1131,3.117,3.1357,3.1578,3.1774,3.1808,3.1729,3.1436,3.1341,3.1319,3.1016,3.1123,3.1488,3.1971,3.2155,3.2247,3.2742,3.1513,3.0118,3.1237,3.1347,3.1146,3.136,3.1017,3.0577,3.0283,2.9824,2.9372,2.9078,2.9005,2.8858,2.8356,2.7769,2.7291,2.709,2.7218,2.7394,2.7528,2.7894,2.7572,2.5918,2.4956,2.4184,2.361,2.338,2.3613,2.4471,2.4612,2.4663,2.4663,2.5419,2.6057,2.654,2.6747,2.654,2.5885,2.6506,2.7023,2.7385,2.8799,3.0041,3.111,3.13,3.1231,3.0938,3.0938,3.0938,3.0938,3.0938,3.0938,3.0903,3.0437,3.0248,3.0231,3.0024,2.9765,2.961,3.0386,3.0368,3.0024,3.9101,3.9101,3.9101,3.9101,3.9101,3.9101,3.9101,3.9101,3.9101,3.9101,3.9101,3.9101,3.9101,3.9101,3.9101,3.9101,3.9101,3.8451,3.6946,3.8154,3.8098,3.619,3.6538,3.6402,3.5603,3.5584,3.5144,3.4266,3.3505,3.2557,3.145,3.145,3.145,3.1437,3.1166,3.1206,3.1406,3.1166,3.1466,3.2093,3.2148,3.2493,3.2903,3.2196,3.2028,3.2047,3.1309,3.126,3.158,3.158,3.158,3.158,3.158,3.158,3.1856,3.3293,3.3201,3.2454,3.1751,3.1525,3.1305,3.0558,3.0283,3.0008,2.9244,2.9042,2.8987,2.8932,2.7721,2.6888,2.7523,2.7108,2.6906,2.7603,2.7558,2.7151,2.6329,2.5326,2.4301,2.329,2.3766,2.4103,2.3898,2.5129,2.5921,2.587,2.6661,2.7125,2.7057,2.6454,2.6471,2.7264,2.673,2.742,2.9489,2.9558,3.0282,3.1627,3.0938,3.0213,2.9506,2.9506,2.9506,2.9506,2.9506,2.9541,2.9592,2.9523,2.9541,2.9661,3.0351,3.0162,2.961,3.0386,3.0714,3.0714,3.9101,3.9101,3.9101,3.9101,3.9101,3.9101,3.9101,3.9101,3.9101,3.9101,3.9101,3.9101,3.9101,3.9101,3.9101,3.9101,3.9101,3.8934,3.8562,3.7745,3.7578,3.8302,3.7689,3.7021,3.6439,3.642,3.589,3.4815,3.4613,3.395,3.2827,3.2827,3.2827,3.2827,3.2759,3.2774,3.2813,3.2759,3.281,3.2913,3.2928,3.284,3.2669,3.2391,3.2497,3.2762,3.2471,3.2727,3.322,3.322,3.322,3.322,3.322,3.322,3.3183,3.2963,3.2748,3.2693,3.3109,3.2779,3.2271,3.2069,3.1109,3.0155,2.9971,2.9445,2.8822,2.8209,2.7769,2.72,2.6164,2.6825,2.7383,2.6961,2.7358,2.736,2.6334,2.5811,2.5118,2.4067,2.3898,2.4112,2.466,2.4491,2.4112,2.3543,2.4781,2.5281,2.4663,2.556,2.6471,2.7264,2.8799,2.9575,2.9506,3.011,3.0282,3.0041,2.9868,2.9679,2.9506,2.9506,2.9506,2.9506,2.9506,2.9851,3.0368,2.9748,2.9868,3.0368,2.9955,2.9679,2.961,3.0386,3.0714,3.0783,3.9101,3.9101,3.9101,3.9101,3.9101,3.9101,3.9101,3.9101,3.9101,3.9101,3.9101,3.9101,3.9101,3.9101,3.9101,3.9101,3.9101,3.9101,3.9101,3.8284,3.8191,3.9064,3.8544,3.7912,3.7262,3.7257,3.6769,3.5789,3.5749,3.5358,3.4626,3.4247,3.4083,3.4051,3.3498,3.335,3.3508,3.3309,3.322,3.3202,3.3157,3.3006,3.2768,3.2702,3.2862,3.3126,3.3047,3.3258,3.3578,3.3748,3.3694,3.3611,3.3748,3.3807,3.3715,3.3293,3.3146,3.3151,3.3238,3.3201,3.3073,3.2693,3.194,3.1201,3.0834,3.0411,2.9879,2.9053,2.8594,2.797,2.6733,2.721,2.7669,2.7218,2.7512,2.7607,2.7009,2.6356,2.5559,2.4499,2.4445,2.4476,2.4453,2.4388,2.4181,2.3781,2.4181,2.4732,2.5367,2.6195,2.7161,2.8265,2.9506,3.011,3.0041,3.011,2.9765,2.9006,2.9006,2.8816,2.8489,2.8489,2.8678,2.9006,2.9006,2.9437,3.011,2.9679,2.9765,3.0144,3.0075,3.0041,3.0144,3.092,3.1196,3.1248,3.9101,3.9101,3.9101,3.9101,3.9101,3.9101,3.9101,3.9101,3.9101,3.9101,3.9101,3.9101,3.9101,3.9101,3.9101,3.9101,3.9101,3.9101,3.9101,3.9101,3.9101,3.9101,3.9101,3.8785,3.8098,3.8079,3.7657,3.6819,3.6739,3.6528,3.6113,3.542,3.5109,3.5058,3.4021,3.3742,3.4046,3.3641,3.3489,3.3535,3.3476,3.3411,3.3364,3.3349,3.3471,3.3665,3.3523,3.3516,3.3586,3.3744,3.3606,3.3422,3.3707,3.3807,3.3807,3.3807,3.3807,3.3642,3.2981,3.3293,3.3642,3.2949,3.2693,3.2381,3.1568,3.1323,3.0993,3.0173,2.9482,2.8785,2.8117,2.797,2.7959,2.7926,2.7948,2.7923,2.7761,2.6865,2.5913,2.5052,2.5138,2.5004,2.4399,2.4836,2.5229,2.535,2.4698,2.5249,2.7351,2.7471,2.8092,2.9472,2.9627,2.9903,3.0351,2.9679,2.8972,2.823,2.823,2.7954,2.7471,2.7471,2.7868,2.8575,2.8575,2.8989,2.9679,2.9679,2.9748,2.992,3.0593,3.0886,3.0938,3.1558,3.18,3.18,3.9101,3.9101,3.9101,3.9101,3.9101,3.9101,3.9101,3.9101,3.9101,3.9101,3.9101,3.9101,3.9101,3.9101,3.9101,3.9101,3.9101,3.9101,3.9101,3.9101,3.9101,3.9101,3.9101,3.9045,3.8915,3.8915,3.8377,3.7286,3.7272,3.6795,3.5854,3.5613,3.5574,3.5657,3.5291,3.5221,3.5313,3.5189,3.511,3.5062,3.5045,3.5029,3.5012,3.4894,3.5125,3.5384,3.4601,3.4499,3.4641,3.4014,3.378,3.3734,3.3775,3.3807,3.3807,3.3807,3.3807,3.377,3.3642,3.3697,3.377,3.3642,3.3096,3.2381,3.1568,3.087,3.0173,2.9354,2.9097,2.8968,2.884,2.8803,2.8745,2.8506,2.8675,2.8496,2.7592,2.7113,2.6793,2.6577,2.5662,2.5498,2.6659,2.6247,2.6212,2.6885,2.6833,2.7195,2.8178,2.823,2.8627,2.9472,3.0162,2.9937,2.8765,2.8627,2.8196,2.7471,2.7471,2.773,2.823,2.823,2.8627,2.9334,2.9334,2.9782,3.0506,3.0506,3.0869,3.1455,3.1576,3.1627,3.1627,3.1765,3.18,3.18,3.9101,3.9101,3.9101,3.9101,3.9101,3.9101,3.9101,3.9101,3.9101,3.9101,3.9101,3.9101,3.9101,3.9101,3.9101,3.9101,3.9101,3.9101,3.9101,3.9101,3.9101,3.9101,3.9101,3.9101,3.9101,3.9059,3.8803,3.8325,3.8107,3.7772,3.7296,3.6796,3.6487,3.6309,3.5973,3.582,3.5815,3.5709,3.5776,3.5933,3.5887,3.5872,3.5872,3.5807,3.5933,3.605,3.5619,3.5425,3.5352,3.52,3.5011,3.4874,3.5086,3.4816,3.4454,3.4454,3.4137,3.3807,3.3807,3.3807,3.3807,3.3807,3.3532,3.3146,3.2779,3.2412,3.1788,3.0558,3.0283,3.0026,2.9152,2.9217,2.921,2.8686,2.8545,2.8337,2.7849,2.7201,2.6778,2.6751,2.606,2.5868,2.6575,2.6333,2.6437,2.723,2.7299,2.7609,2.8368,2.8403,2.8747,2.9489,2.9472,2.9127,2.8403,2.8006,2.7833,2.7885,2.7885,2.8282,2.8989,2.8989,2.9403,3.0144,3.0144,3.0575,3.1282,3.1282,3.1489,3.18,3.18,3.18,3.18,3.18,3.18,3.18,3.9101,3.9101,3.9101,3.9101,3.9101,3.9101,3.9101,3.9101,3.9101,3.9101,3.9101,3.9101,3.9101,3.9101,3.9101,3.9101,3.9101,3.9101,3.9101,3.9101,3.9101,3.9101,3.9101,3.9101,3.9101,3.9064,3.905,3.9101,3.8781,3.8676,3.87,3.8066,3.7619,3.733,3.6936,3.6721,3.6699,3.6565,3.6677,3.6951,3.6893,3.6883,3.6853,3.6853,3.6853,3.6835,3.6652,3.6391,3.6133,3.6249,3.6083,3.5879,3.6194,3.5844,3.5298,3.5298,3.4711,3.4032,3.3762,3.368,3.3707,3.3793,3.3807,3.3752,3.3568,3.346,3.2998,3.1576,3.1214,3.0779,2.9563,2.9476,2.9463,2.899,2.8766,2.8627,2.8557,2.7734,2.713,2.7101,2.6512,2.6163,2.6368,2.6385,2.6713,2.7489,2.7558,2.7885,2.8627,2.8489,2.8575,2.8989,2.861,2.8403,2.8403,2.7833,2.792,2.8661,2.8661,2.9058,2.9782,2.9782,3.0213,3.0973,3.0973,3.1265,3.18,3.18,3.18,3.18,3.18,3.18,3.18,3.18,3.18,3.18,3.9101,3.9101,3.9101,3.9101,3.9101,3.9101,3.9101,3.9101,3.9101,3.9101,3.9101,3.9101,3.9101,3.9101,3.9101,3.9101,3.9101,3.9101,3.9101,3.9101,3.9101,3.9101,3.9101,3.9101,3.9101,3.9101,3.9101,3.9101,3.9073,3.9059,3.9073,3.8933,3.89,3.892,3.8755,3.874,3.8765,3.8693,3.8652,3.8623,3.8608,3.8581,3.8524,3.8524,3.8524,3.8432,3.7676,3.7386,3.7261,3.6541,3.627,3.6256,3.6285,3.6266,3.6193,3.6193,3.5591,3.4678,3.3622,3.3335,3.3408,3.3721,3.3807,3.3605,3.2858,3.2456,3.1976,3.1111,3.0675,3.0469,3.0394,2.9808,2.9457,2.9828,3.0135,3.0213,2.9906,2.9204,2.8712,2.8651,2.7137,2.6402,2.7144,2.7213,2.7523,2.8265,2.8316,2.8644,2.9386,2.8765,2.8109,2.7471,2.8075,2.8403,2.8403,2.8351,2.8696,2.942,2.942,2.9834,3.061,3.061,3.1007,3.1714,3.1714,3.1748,3.18,3.18,3.18,3.18,3.18,3.18,3.18,3.18,3.18,3.18,3.9101,3.9101,3.9101,3.9101,3.9101,3.9101,3.9101,3.9101,3.9101,3.9101,3.9101,3.9101,3.9101,3.9101,3.9101,3.9101,3.9101,3.9101,3.9101,3.9101,3.9101,3.9101,3.9101,3.9101,3.9101,3.9101,3.9101,3.9101,3.888,3.8792,3.8792,3.8748,3.8643,3.8489,3.8628,3.8707,3.8695,3.8664,3.8725,3.8848,3.8848,3.8851,3.8822,3.8822,3.8792,3.871,3.8431,3.8275,3.8163,3.7598,3.7585,3.7741,3.7489,3.7238,3.6897,3.6152,3.569,3.5226,3.4307,3.3829,3.3652,3.378,3.3807,3.3675,3.314,3.3113,3.2876,3.185,3.1542,3.1312,3.0844,3.0576,3.0164,2.9369,2.922,2.9001,2.8421,2.7641,2.7344,2.7799,2.7257,2.7144,2.7902,2.7971,2.8282,2.9023,2.9075,2.9006,2.8834,2.8558,2.8265,2.7989,2.8696,2.8868,2.8403,2.8851,2.9472,3.0231,3.0231,3.0627,3.1369,3.1369,3.1541,3.18,3.18,3.18,3.18,3.18,3.18,3.18,3.18,3.18,3.18,3.18,3.18,3.18,3.9101,3.9101,3.9101,3.9101,3.9101,3.9101,3.9101,3.9101,3.9101,3.9101,3.9101,3.9101,3.9101,3.9565,3.9658,3.9138,3.9435,3.9472,3.912,3.9101,3.9101,3.9101,3.9101,3.9101,3.9101,3.9101,3.9101,3.9101,3.8865,3.8763,3.8763,3.8763,3.8643,3.8426,3.8658,3.8733,3.8676,3.8676,3.8785,3.8921,3.8921,3.8925,3.891,3.891,3.8881,3.8837,3.8837,3.8792,3.8719,3.8415,3.8415,3.8496,3.8185,3.7822,3.7342,3.6499,3.6091,3.5768,3.5227,3.4645,3.4127,3.3863,3.3807,3.3734,3.3508,3.348,3.3255,3.248,3.2145,3.176,3.0978,3.0904,3.0626,2.9579,2.9243,2.9023,2.8747,2.804,2.7747,2.8299,2.8127,2.8092,2.8368,2.861,2.8868,2.9127,2.9368,2.9282,2.8765,2.8747,2.8747,2.8747,2.9489,2.9627,2.9127,2.9627,3.0265,3.1041,3.1041,3.13,3.18,3.18,3.18,3.18,3.18,3.18,3.18,3.18,3.18,3.18,3.18,3.18,3.18,3.18,3.18,3.18,3.9101,3.9101,3.9101,3.9101,3.9101,3.9101,3.9101,3.912,3.9138,3.9138,3.912,3.912,3.912,4.0606,4.0921,3.9268,4.0155,4.0323,3.9194,3.912,3.912,3.9101,3.9101,3.9101,3.9101,3.9101,3.9101,3.9101,3.9101,3.9101,3.9101,3.9101,3.9101,3.9101,3.9101,3.9101,3.9101,3.9101,3.9059,3.8993,3.8993,3.895,3.8892,3.8892,3.891,3.891,3.891,3.891,3.8896,3.8822,3.8538,3.818,3.8135,3.7844,3.7505,3.7505,3.6952,3.631,3.6292,3.5722,3.491,3.4026,3.3807,3.3807,3.3793,3.3273,3.2795,3.2795,3.2266,3.1576,3.0852,3.0714,3.0714,3.0714,3.0714,3.0938,3.1679,3.1145,3.0679,3.0679,2.9989,2.9213,2.8472,2.9075,2.9196,2.8454,2.9092,2.9506,2.9506,2.9506,2.9506,2.9506,3.0282,3.0714,3.0714,3.0714,3.1076,3.18,3.18,3.18,3.18,3.18,3.18,3.18,3.18,3.18,3.18,3.18,3.18,3.18,3.18,3.18,3.18,3.18,3.18,3.18,3.925,3.9101,3.9101,3.9101,3.9101,3.9101,3.9101,4.1051,4.2537,4.2537,4.1553,4.0996,4.1367,4.1869,4.1813,4.0921,4.1177,4.1219,4.0884,4.0847,4.0606,4.003,3.9435,3.9101,3.9101,3.9101,3.9101,3.9101,3.9101,3.9101,3.9101,3.9101,3.9101,3.9101,3.9101,3.9101,3.9101,3.9101,3.9087,3.9059,3.9059,3.9045,3.9031,3.9031,3.9007,3.8964,3.8964,3.8935,3.8848,3.8551,3.8551,3.868,3.8603,3.8314,3.798,3.7929,3.7541,3.7023,3.6435,3.6114,3.5614,3.4271,3.3939,3.3732,3.2922,3.2763,3.2731,3.2504,3.2301,3.2092,3.1865,3.1618,3.13,3.0765,3.0714,3.0575,3.0231,3.0006,2.9868,2.9868,2.9644,2.942,2.9196,2.9368,2.942,2.9196,2.9386,2.9506,2.9506,3.0041,3.0334,3.0334,3.1076,3.1472,3.1472,3.1472,3.1576,3.18,3.18,3.18,3.18,3.18,3.18,3.18,3.18,3.18,3.18,3.18,3.18,3.18,3.18,3.18,3.18,3.18,3.18,3.18,4.0178,4.0606,4.1033,4.1033,4.1033,4.1033,4.1033,4.2723,4.3856,4.3429,4.2519,4.1962,4.2073,4.237,4.2296,4.1664,4.159,4.159,4.159,4.159,4.1367,4.0903,4.0364,3.977,3.9101,3.9101,3.9101,3.9101,3.9101,3.9101,3.9101,3.9101,3.9101,3.9101,3.9101,3.9101,3.9101,3.9101,3.9101,3.9101,3.9101,3.9101,3.9101,3.9101,3.9073,3.905,3.905,3.9021,3.8931,3.8673,3.8612,3.8631,3.8423,3.8097,3.779,3.7774,3.7432,3.7006,3.6509,3.6347,3.6012,3.478,3.4446,3.4246,3.3563,3.3226,3.2979,3.2774,3.2389,3.2109,3.2109,3.1947,3.1645,3.1196,3.1127,3.0955,3.0489,3.0403,3.0403,3.0403,3.0403,3.03,3.0006,3.0248,3.0403,3.0403,3.0403,3.0403,3.0403,3.0869,3.1127,3.1127,3.1558,3.18,3.18,3.18,3.18,3.18,3.18,3.18,3.18,3.18,3.18,3.18,3.18,3.18,3.18,3.18,3.18,3.18,3.18,3.18,3.18,3.18,3.18,3.18,4.1571,4.2927,4.4005,4.4005,4.4005,4.4005,4.4005,4.4005,4.3652,4.2667,4.2537,4.237,4.1869,4.2463,4.2612,4.1869,4.1813,4.1813,4.1813,4.1813,4.1776,4.1702,4.1702,4.0958,3.9361,3.925,3.9175,3.9101,3.9101,3.9101,3.9101,3.9101,3.9101,3.9101,3.9101,3.9101,3.9101,3.9101,3.9101,3.9101,3.9101,3.9101,3.9101,3.9101,3.9087,3.9059,3.9059,3.9059,3.9059,3.8974,3.8673,3.8259,3.7857,3.7488,3.7226,3.7189,3.6893,3.6523,3.6502,3.6423,3.6149,3.5456,3.5243,3.5172,3.5048,3.4217,3.3457,3.3457,3.2627,3.1903,3.1903,3.1834,3.18,3.18,3.18,3.18,3.18,3.18,3.18,3.18,3.18,3.1541,3.0851,3.1403,3.18,3.18,3.18,3.18,3.18,3.18,3.18,3.18,3.18,3.18,3.18,3.18,3.18,3.18,3.18,3.18,3.18,3.18,3.18,3.18,3.18,3.18,3.18,3.18,3.18,3.18,3.18,3.18,3.18,3.18,3.18,3.18,4.2129,4.3188,4.4005,4.4005,4.4005,4.4005,4.4005,4.4005,4.3912,4.3689,4.3652,4.3615,4.3485,4.3633,4.367,4.3485,4.3485,4.3485,4.3485,4.3485,4.3206,4.2575,4.2537,4.2073,4.107,4.0438,3.977,3.9101,3.9101,3.9101,3.9101,3.9101,3.9101,3.9101,3.9101,3.9101,3.9101,3.9101,3.9101,3.9101,3.9101,3.9101,3.9101,3.9101,3.8942,3.8718,3.8718,3.8718,3.8718,3.8688,3.8628,3.847,3.8012,3.7632,3.7339,3.7226,3.6933,3.6623,3.6523,3.6482,3.6388,3.6132,3.6046,3.5754,3.4573,3.4133,3.3954,3.3954,3.3254,3.2662,3.2662,3.2179,3.18,3.18,3.18,3.18,3.18,3.18,3.18,3.18,3.18,3.1731,3.1576,3.1714,3.18,3.18,3.18,3.18,3.18,3.18,3.18,3.18,3.18,3.18,3.18,3.18,3.18,3.18,3.18,3.18,3.18,3.18,3.18,3.18,3.18,3.18,3.18,3.18,3.18,3.18,3.18,3.18,3.18,3.18,3.18,3.18,4.237,4.3262,4.4005,4.4005,4.4005,4.4005,4.4005,4.4005,4.4005,4.4005,4.4005,4.4005,4.4005,4.4005,4.4005,4.4005,4.4005,4.4005,4.4005,4.4005,4.3633,4.2835,4.2797,4.224,4.1051,4.062,4.0346,4.029,4.029,4.029,4.029,4.029,4.029,4.0271,3.9881,3.9714,3.9677,3.9268,3.9101,3.9101,3.9101,3.9101,3.9101,3.9101,3.888,3.8594,3.8594,3.8504,3.8362,3.8362,3.8362,3.833,3.8065,3.7738,3.7432,3.7358,3.7052,3.6728,3.6667,3.6626,3.6544,3.6423,3.6402,3.6174,3.5338,3.489,3.4611,3.4611,3.4007,3.3473,3.3473,3.3145,3.2905,3.2905,3.2576,3.2317,3.2317,3.2024,3.18,3.18,3.18,3.18,3.18,3.18,3.18,3.18,3.18,3.18,3.18,3.18,3.18,3.18,3.18,3.18,3.18,3.18,3.18,3.18,3.18,3.18,3.18,3.18,3.18,3.18,3.18,3.18,3.18,3.18,3.18,3.18,3.18,3.18,3.18,3.18,3.18,3.18,4.2519,4.3188,4.3838,4.3986,4.4005,4.4005,4.4005,4.4005,4.4005,4.4005,4.4005,4.4005,4.4005,4.4005,4.4005,4.4005,4.4005,4.4005,4.4005,4.4005,4.3708,4.302,4.2872,4.2184,4.0828,4.0694,4.0791,4.1163,4.1311,4.1386,4.1386,4.1534,4.159,4.1571,4.0903,4.062,4.0564,3.9825,3.9528,3.9528,3.9528,3.9528,3.9528,3.9528,3.9231,3.8814,3.8814,3.8535,3.8185,3.8118,3.8101,3.8085,3.7948,3.7685,3.7414,3.7414,3.7148,3.6829,3.6809,3.6748,3.6684,3.6564,3.6523,3.6502,3.6364,3.5839,3.5387,3.5387,3.4783,3.4303,3.4303,3.4162,3.4113,3.4113,3.3542,3.311,3.311,3.2576,3.2145,3.199,3.1869,3.18,3.18,3.18,3.18,3.18,3.18,3.18,3.18,3.18,3.18,3.18,3.18,3.18,3.18,3.18,3.18,3.18,3.18,3.18,3.18,3.18,3.18,3.18,3.18,3.18,3.18,3.18,3.18,3.18,3.18,3.18,3.18,3.18,3.1869,3.199,4.2742,4.2853,4.3188,4.3875,4.4005,4.4005,4.4005,4.4005,4.4005,4.4005,4.4005,4.4005,4.4005,4.4005,4.4005,4.4005,4.4005,4.4005,4.4005,4.4005,4.3949,4.3838,4.3169,4.2705,4.2482,4.1776,4.0773,3.9435,4.0178,4.0564,4.0583,4.1256,4.159,4.159,4.1479,4.1441,4.1423,4.1311,4.1256,4.1256,4.1256,4.1256,4.1256,4.1256,4.0596,3.9638,3.9638,3.915,3.8486,3.8201,3.8101,3.8,3.7355,3.7106,3.7068,3.7068,3.7029,3.6948,3.6829,3.6788,3.6768,3.6684,3.6664,3.6643,3.6502,3.6295,3.6146,3.6146,3.5559,3.5042,3.5042,3.4545,3.4113,3.4113,3.401,3.3941,3.3941,3.3854,3.3524,3.2835,3.2179,3.18,3.18,3.18,3.18,3.18,3.18,3.18,3.18,3.18,3.18,3.18,3.18,3.18,3.18,3.18,3.18,3.18,3.18,3.18,3.18,3.18,3.18,3.18,3.18,3.18,3.18,3.18,3.18,3.18,3.18,3.18,3.18,3.18,3.2196,3.2748,4.3373,4.3466,4.3578,4.3949,4.4005,4.4005,4.4005,4.4005,4.4005,4.4005,4.4005,4.4005,4.4005,4.4005,4.4005,4.4005,4.4005,4.4005,4.4005,4.4005,4.3801,4.3355,4.2983,4.2593,4.2129,4.1776,4.1237,4.0494,4.0884,4.1293,4.1739,4.1627,4.1742,4.1957,4.1015,4.0591,4.0572,4.0095,4.0173,4.0597,4.083,4.1059,4.1295,4.1512,4.099,4.0084,3.968,3.9445,3.9264,3.89,3.8766,3.8709,3.839,3.797,3.7602,3.7602,3.7303,3.6987,3.6928,3.6908,3.6888,3.6768,3.6766,3.6725,3.6623,3.6582,3.6482,3.6322,3.6042,3.5818,3.5818,3.5542,3.5318,3.5318,3.4973,3.4697,3.4697,3.4372,3.3975,3.3611,3.3266,3.3076,3.3076,3.3076,3.3076,3.3076,3.3076,3.3076,3.3076,3.3076,3.3076,3.3076,3.3076,3.3076,3.3076,3.3076,3.3076,3.3076,3.3076,3.2835,3.2421,3.2421,3.2662,3.3076,3.3076,3.2817,3.2421,3.2421,3.2162,3.18,3.18,3.2041,3.2421,3.2421,3.2904,3.3559]}]]